GFSSGP_850_thetae_000.txt.gz
Theta_e
343 345 353 354 355 343 347 351 344 348 348 348 348 349 348 349 347 349 347 343 340 340 341 342 342 342 342 345 346 345 344 341 341 340 337 334 335 335 334 335 336 335 334 331 335 336 335 334 334
351 354 355 355 352 341 340 346 350 345 347 349 351 351 350 350 348 348 347 340 340 340 340 341 341 342 345 346 346 345 342 337 336 334 334 333 332 333 334 335 336 334 333 334 336 337 336 335 335
348 354 354 354 344 340 347 348 348 344 347 349 350 350 350 351 349 349 346 342 339 341 341 343 343 344 345 341 339 337 337 336 333 331 330 332 333 333 334 335 335 334 335 335 334 335 336 336 337
349 350 352 350 335 336 347 348 347 346 347 352 352 352 351 351 350 349 350 342 341 342 343 343 344 344 343 337 341 341 341 340 339 338 337 336 337 337 336 336 336 335 333 333 334 335 336 336 337
346 345 344 336 336 337 346 347 347 350 352 352 351 353 352 350 350 350 349 343 343 343 343 344 344 343 342 340 339 341 339 339 341 340 339 338 338 337 335 333 332 331 331 333 335 335 336 337 336
340 341 346 347 341 335 343 346 349 354 354 352 352 352 352 351 351 352 347 343 344 343 343 344 343 343 342 341 342 342 341 339 338 340 339 338 338 337 332 331 331 332 334 335 335 335 335 335 334
340 343 346 345 345 345 346 347 351 355 354 354 352 353 351 351 350 348 349 345 344 343 342 344 343 342 340 339 341 342 341 339 337 336 336 337 336 336 335 336 337 336 338 337 335 334 334 333 334
342 339 344 344 344 338 345 345 349 352 351 351 349 354 352 350 349 349 346 345 345 341 340 342 343 342 342 341 338 339 340 338 336 336 337 338 339 340 339 343 342 340 339 335 335 340 336 332 336
343 342 344 343 342 342 338 343 347 348 353 349 350 349 352 353 354 352 350 351 347 343 340 342 341 340 341 342 341 340 339 338 336 338 339 340 341 344 335 342 335 342 343 343 338 343 343 343 340
341 342 342 340 341 341 339 341 344 349 350 349 350 350 354 354 355 354 353 352 350 349 346 344 344 342 341 340 341 340 339 337 337 338 340 342 343 347 346 344 346 344 345 342 342 342 342 342 344
338 341 341 341 343 343 345 346 346 347 350 349 349 351 354 354 355 353 352 349 347 349 348 348 348 346 344 343 342 342 340 339 341 339 343 346 346 347 345 344 345 345 344 343 344 344 344 343 343
341 340 341 340 344 344 344 343 340 346 348 348 349 351 354 354 353 353 352 351 350 348 348 348 349 347 349 347 346 347 348 346 346 347 348 346 343 343 345 345 342 342 344 344 344 344 345 341 341
338 340 341 342 341 342 342 340 344 347 348 348 348 350 351 352 352 352 350 350 351 349 349 351 351 347 351 350 350 349 349 349 349 348 348 347 348 346 347 344 344 342 342 342 343 342 342 342 342
340 341 342 342 343 343 339 340 342 349 348 347 347 348 351 351 351 351 349 351 352 349 351 351 351 348 349 351 349 351 349 348 351 351 348 347 349 348 346 346 344 343 343 340 341 342 341 339 338
339 340 338 341 343 344 346 347 345 347 348 348 347 348 347 348 349 350 348 349 350 349 353 350 351 350 348 349 352 350 353 352 350 350 349 347 348 344 345 344 343 343 344 343 341 341 340 339 339
333 332 335 338 342 344 345 350 344 348 348 347 348 348 348 348 347 348 348 349 349 346 349 349 349 347 348 347 347 346 346 345 346 343 346 347 345 346 347 345 344 343 342 342 343 342 339 336 335
328 332 337 337 339 342 344 348 344 345 346 346 347 348 348 348 348 346 347 347 346 347 347 348 347 346 347 347 348 348 347 346 346 345 345 345 344 345 344 345 345 344 342 342 339 338 338 336 333
331 335 337 337 336 339 345 346 345 345 345 345 346 346 347 347 347 347 347 347 347 346 346 348 348 347 348 352 350 349 346 346 344 344 344 345 345 347 346 349 344 341 339 339 339 337 336 336 334
330 335 338 337 334 345 346 347 347 346 347 347 347 347 347 347 347 347 347 346 346 346 347 348 348 347 349 349 347 347 344 344 345 345 346 347 348 348 343 340 339 335 333 333 335 333 333 333 338
328 332 337 338 335 335 346 348 346 346 348 348 348 349 348 349 347 347 347 346 346 346 348 348 348 345 344 344 341 342 339 334 341 342 342 343 342 342 339 334 329 332 336 335 333 337 335 335 336
327 335 335 337 338 337 345 346 345 346 347 347 348 350 351 351 350 349 348 348 348 349 346 346 346 344 344 338 338 338 340 336 337 339 341 343 340 336 331 327 328 332 332 334 335 334 336 337 336
325 327 336 339 340 341 339 348 342 344 342 341 346 348 350 350 351 351 351 348 348 349 346 347 344 334 332 335 334 336 341 339 333 340 342 339 337 327 330 335 332 333 334 332 328 334 335 336 334
327 326 327 339 339 336 341 342 344 338 337 337 343 346 348 349 349 351 352 349 349 351 352 349 335 335 334 331 321 332 340 330 333 336 336 336 330 332 333 334 336 336 332 326 329 329 330 330 331
328 329 324 326 326 334 337 336 338 342 340 338 338 346 346 347 349 349 350 348 350 352 352 351 334 334 335 323 326 335 333 325 329 333 333 333 329 326 331 334 335 334 326 323 326 329 329 332 332
327 322 323 325 325 325 323 339 337 340 339 336 337 345 346 346 348 349 348 350 351 351 351 348 341 334 335 328 343 322 322 315 317 328 332 326 321 329 333 333 332 326 322 322 329 330 329 331 330
323 322 323 328 332 329 326 328 329 338 340 338 338 344 346 345 347 348 346 344 344 348 349 347 341 343 337 337 348 324 323 319 321 320 321 325 331 326 325 329 328 328 324 329 332 331 331 328 330
325 325 324 327 328 329 328 330 336 336 338 337 338 340 343 344 346 346 345 343 344 345 346 346 342 340 340 340 328 324 326 320 321 325 330 333 332 325 328 328 331 330 325 324 330 332 333 333 332
326 324 327 322 329 331 329 333 333 341 340 338 337 336 339 343 345 346 345 344 343 343 343 345 344 340 340 337 326 323 328 325 321 322 328 324 319 323 327 328 325 327 328 325 326 328 329 330 329
328 327 324 323 324 327 328 329 330 339 340 339 338 339 338 341 343 345 345 344 344 343 345 344 346 346 344 344 328 325 331 329 326 327 321 321 322 323 324 327 327 324 321 326 328 328 328 329 331
326 326 324 325 327 324 325 330 333 333 334 339 340 341 341 339 342 343 344 344 344 344 346 344 347 347 346 349 329 325 332 330 328 326 323 320 320 322 322 324 323 325 325 326 325 326 327 329 328

GFSSGP_850_thetae_003.txt.gz
Theta_e
346 345 351 355 353 342 351 350 346 347 349 348 349 347 348 346 346 347 344 342 345 347 348 349 349 346 344 346 346 345 345 344 335 336 335 334 334 334 333 331 334 333 330 334 335 334 333 333 333
342 345 355 355 340 345 346 346 348 346 348 350 351 349 349 349 346 345 344 341 343 345 346 345 344 344 346 346 345 343 343 342 336 337 335 334 332 333 334 335 333 331 332 333 335 335 334 335 335
349 353 354 355 339 346 348 346 346 347 351 351 349 349 349 348 345 343 340 340 341 341 342 342 343 346 347 346 344 341 339 340 337 335 333 334 334 334 335 334 333 333 334 334 332 333 334 335 336
350 351 349 346 336 337 348 344 344 347 348 351 350 351 350 349 345 340 339 341 341 341 342 343 345 346 344 342 340 338 334 333 332 332 333 334 333 334 335 334 334 333 331 331 333 334 335 336 337
349 347 340 335 336 348 347 345 345 346 351 352 351 352 351 351 346 345 339 341 342 342 343 344 344 341 337 338 337 337 337 336 335 336 336 337 337 336 335 334 332 329 330 332 334 334 334 336 337
341 339 339 343 343 348 346 345 346 352 353 351 351 351 351 349 347 345 341 341 343 343 343 343 343 339 339 342 341 341 341 340 340 339 339 338 337 335 332 330 331 331 333 335 335 334 333 334 335
338 338 343 340 342 348 347 348 352 352 351 351 350 351 352 349 348 346 343 343 343 343 343 342 342 341 339 340 341 341 339 339 340 338 338 337 337 334 333 336 338 336 338 338 335 333 334 332 334
340 336 342 341 343 345 345 348 352 351 352 350 347 350 351 350 349 347 344 344 344 343 343 342 342 341 341 342 343 342 340 338 337 335 336 337 338 339 339 342 342 339 337 335 335 340 337 334 336
343 339 340 342 341 340 345 347 352 351 351 347 349 346 346 349 349 350 347 344 345 344 344 344 341 340 339 339 341 341 340 337 335 336 338 340 342 343 337 341 335 336 342 342 339 342 342 342 340
339 338 340 339 338 341 342 348 349 351 350 351 350 346 348 349 349 348 346 345 343 340 343 350 349 341 342 341 339 340 340 338 337 338 340 342 342 346 345 343 343 343 345 342 341 341 342 342 344
338 341 340 339 341 341 341 345 347 350 350 350 351 349 350 349 350 348 347 345 343 341 340 342 342 340 341 341 341 340 340 338 337 339 342 346 345 346 343 341 343 343 344 342 342 342 343 339 340
331 338 340 339 341 340 341 344 348 348 349 347 348 351 352 352 352 350 349 348 345 344 344 344 344 343 342 343 342 341 340 339 343 341 348 347 343 345 344 344 341 340 341 343 343 341 341 341 340
330 338 339 341 341 342 343 344 346 347 348 349 351 352 353 354 353 351 349 346 347 348 347 347 347 346 345 345 345 346 347 345 346 347 348 348 345 345 346 344 344 343 341 341 340 341 342 341 339
337 339 339 341 339 341 345 347 347 348 349 349 353 354 353 354 352 352 351 349 348 347 347 347 348 347 351 349 348 349 349 347 349 347 347 346 344 345 346 345 344 343 342 341 341 341 339 339 338
340 337 337 338 340 339 343 345 350 348 348 350 353 353 354 352 352 352 351 350 348 348 346 350 349 348 349 349 347 345 346 346 348 348 347 347 346 348 344 343 341 343 342 342 341 341 341 340 336
337 334 341 339 341 342 343 349 349 347 347 348 349 350 352 352 351 351 350 347 350 349 350 350 350 351 350 349 349 352 348 348 349 349 348 347 347 347 344 344 343 344 344 343 341 341 337 334 332
328 340 337 340 340 342 343 346 348 348 346 347 347 348 349 351 351 351 349 347 348 349 347 351 351 351 349 349 350 349 348 346 346 346 345 345 346 345 343 343 342 345 345 342 341 337 336 333 331
338 333 340 342 342 339 343 344 348 348 347 347 347 347 347 348 348 348 349 347 348 348 346 346 349 348 347 348 348 347 348 347 347 347 345 343 343 344 344 345 348 343 338 335 332 334 332 330 332
329 332 339 340 337 343 343 344 346 347 346 346 347 347 347 347 347 347 347 347 347 346 346 347 349 348 348 349 349 350 349 347 347 346 347 347 346 347 347 341 339 337 333 333 332 329 330 332 335
326 326 331 335 338 342 343 346 343 343 344 345 345 345 346 347 347 347 347 346 347 346 346 347 348 348 345 344 347 348 346 343 342 345 344 343 343 341 341 338 333 329 328 329 330 334 335 334 336
326 328 329 335 337 342 345 346 345 344 344 344 344 345 345 346 347 347 347 347 346 346 346 347 348 345 339 340 344 345 343 337 335 341 340 335 342 339 335 330 324 326 329 332 329 329 334 337 336
329 326 329 334 338 343 343 349 343 344 345 345 346 347 346 346 347 347 347 347 347 346 346 347 346 342 338 343 340 333 332 336 333 332 334 339 342 335 327 331 331 332 334 332 326 328 332 334 333
329 326 326 331 335 338 341 342 342 343 345 345 345 346 348 348 347 348 347 349 349 347 348 342 342 341 337 341 335 331 332 336 336 329 334 339 336 329 328 332 333 334 334 328 326 328 328 329 329
328 326 321 323 328 338 342 338 338 345 346 344 342 345 348 348 349 350 350 350 350 346 347 344 342 336 333 331 330 326 330 330 327 330 334 335 331 329 327 333 335 334 330 324 325 328 327 329 331
323 321 322 329 335 337 330 337 336 339 343 343 342 342 347 348 350 350 350 350 350 345 345 346 336 330 332 330 326 323 324 324 321 325 329 330 330 323 319 325 331 331 324 322 328 328 329 328 327
322 320 322 324 327 331 327 340 339 335 339 342 341 341 345 347 348 350 349 350 350 344 343 341 339 332 333 334 327 328 325 321 316 317 326 326 322 320 322 325 329 330 327 324 326 328 329 329 327
325 321 320 321 324 325 325 327 328 334 335 339 338 338 342 345 346 348 349 349 350 346 341 338 339 336 333 331 330 330 332 323 318 318 317 317 323 327 325 324 324 328 328 325 322 325 328 331 330
324 321 324 320 326 329 327 329 328 334 336 337 336 335 339 344 345 347 348 348 348 347 339 339 341 340 337 331 332 330 339 326 320 321 320 322 327 328 322 324 328 324 325 326 325 321 324 326 327
326 324 321 321 321 325 327 326 325 331 335 336 336 337 339 343 344 345 346 346 346 347 344 337 343 345 343 337 338 337 341 326 325 320 319 319 319 318 321 323 325 325 322 319 321 326 328 328 329
322 323 323 325 325 321 323 326 327 330 334 335 336 336 338 340 343 344 345 346 347 347 345 340 341 344 345 345 340 342 342 326 329 323 321 319 319 320 321 322 322 322 323 324 325 324 326 327 327

GFSSGP_850_thetae_006.txt.gz
Theta_e
346 348 346 353 348 342 349 348 345 348 349 348 347 346 347 345 345 345 343 346 348 348 347 346 346 345 346 346 346 346 345 341 339 338 335 333 332 332 331 330 333 331 332 335 334 333 333 334 335
345 345 353 354 341 347 346 345 346 346 348 349 349 348 348 347 345 343 343 345 348 349 348 347 346 345 346 346 345 345 342 335 335 334 334 334 334 333 331 333 332 330 332 334 334 335 335 335 335
343 351 353 351 336 345 347 346 347 349 350 350 349 349 348 347 344 342 342 345 347 348 348 346 345 346 346 345 344 344 336 336 334 334 333 333 332 334 334 333 332 333 334 331 332 335 335 336 337
350 350 349 335 335 339 345 344 348 350 351 350 347 351 348 347 342 339 340 343 344 344 344 344 345 346 344 343 342 342 336 337 335 335 335 334 335 335 334 333 334 333 330 332 333 335 336 336 338
349 345 334 337 340 348 345 344 347 347 351 350 349 351 349 346 340 339 339 340 341 342 343 344 346 345 344 342 339 339 338 336 334 333 334 333 334 335 334 334 332 329 330 333 334 334 334 336 336
340 338 336 340 343 347 344 344 347 352 351 350 349 349 350 349 339 340 340 341 341 343 344 345 344 343 341 340 336 334 333 332 332 335 336 336 337 335 333 330 331 332 333 335 335 334 333 334 334
342 336 340 340 348 349 346 345 351 351 350 350 348 348 350 348 342 339 341 342 342 344 344 343 340 338 338 337 338 338 338 338 339 339 338 338 337 334 332 336 338 336 337 339 336 334 337 333 333
341 332 342 339 346 348 344 350 351 349 351 349 348 349 349 348 344 340 340 343 343 343 342 342 340 337 341 341 340 339 340 340 339 338 337 336 336 337 338 342 339 339 338 337 339 341 340 341 339
341 337 338 339 340 341 346 351 350 351 350 349 348 347 347 347 344 342 342 342 343 343 343 341 340 339 339 341 341 341 339 338 339 336 336 337 340 342 337 339 340 336 342 342 340 341 341 341 341
338 338 339 336 336 344 344 350 351 350 349 350 349 346 346 347 346 344 343 343 343 343 342 341 341 340 340 341 342 341 340 338 336 336 338 339 341 345 344 343 343 344 342 342 340 340 340 339 342
338 338 337 338 339 344 343 349 349 348 348 350 348 346 347 348 348 346 344 342 342 342 344 343 341 340 339 339 339 339 340 338 337 338 339 344 345 345 344 342 342 341 343 343 342 340 342 341 340
335 337 339 339 341 344 343 346 348 345 345 347 347 342 347 347 348 348 344 343 342 340 341 342 342 341 341 341 341 340 340 338 337 337 339 346 344 343 343 344 341 340 340 341 342 342 341 340 340
328 329 337 340 340 341 343 345 348 345 348 348 346 344 346 347 346 345 343 344 344 341 339 341 342 342 340 341 341 341 340 339 342 341 342 347 345 343 344 345 342 342 342 341 340 339 340 340 339
328 336 338 339 339 341 343 346 347 347 348 348 346 346 346 346 346 348 347 347 345 343 342 343 343 344 343 343 344 343 344 343 346 346 346 348 344 342 344 345 343 342 342 341 342 341 340 339 339
337 336 336 337 339 343 344 346 346 348 348 350 350 349 349 349 350 350 348 346 345 345 344 343 344 345 345 345 345 346 348 349 347 347 346 346 344 344 344 343 342 341 342 343 342 341 341 340 335
335 335 339 338 339 343 341 345 347 348 349 352 353 352 351 351 350 349 349 347 347 347 345 346 347 348 345 350 348 345 344 345 345 348 349 346 346 345 346 344 342 343 342 344 343 341 340 336 333
331 339 338 341 339 341 342 345 347 347 349 351 353 353 352 351 352 350 349 349 349 347 346 345 348 348 348 348 346 347 349 348 347 348 346 346 344 346 345 344 344 343 344 343 341 339 337 333 330
336 339 336 342 339 340 342 343 347 346 347 348 350 350 352 352 351 350 350 350 348 348 349 349 348 348 348 347 345 345 345 346 347 348 347 346 345 344 342 344 343 345 340 336 332 329 331 329 332
331 337 340 339 338 340 341 343 349 346 345 346 346 347 349 350 349 350 350 350 348 347 349 348 349 348 347 346 347 348 347 347 347 348 347 344 345 344 344 345 341 338 336 332 331 330 325 332 333
333 332 336 334 337 340 343 345 347 346 346 345 345 346 346 348 349 349 349 350 349 347 348 347 346 347 347 346 346 348 350 350 350 348 347 346 345 344 344 340 336 333 329 325 324 325 332 332 335
326 325 326 336 339 341 343 346 344 346 346 345 345 345 345 346 346 346 347 347 348 347 347 346 346 346 347 346 347 349 351 346 341 338 339 341 336 340 339 335 331 323 323 327 328 326 329 334 334
326 324 326 334 340 340 339 341 342 343 345 343 344 344 345 345 345 345 346 346 347 346 346 346 345 346 347 346 345 345 342 337 334 328 330 332 334 339 334 325 323 326 328 332 329 325 327 331 332
327 325 326 333 335 338 344 338 337 342 344 343 342 342 343 345 346 346 346 346 346 346 346 345 345 345 346 346 344 344 340 338 339 336 334 332 338 337 329 324 328 330 332 332 327 325 327 328 329
323 321 321 322 328 335 337 340 335 344 345 343 342 344 344 344 345 345 346 346 346 346 347 346 345 340 341 344 344 343 336 337 336 332 326 327 334 332 327 327 331 332 331 328 325 326 327 329 331
320 321 323 326 333 334 331 340 338 335 341 342 342 343 345 345 346 346 346 347 347 347 348 345 343 334 335 338 336 331 329 329 333 328 320 326 330 329 329 326 329 330 328 323 324 327 328 328 327
322 321 322 326 327 334 332 342 340 337 335 341 341 343 343 345 347 347 348 347 349 348 349 342 338 331 331 332 328 326 329 324 323 321 318 324 329 327 319 320 322 326 324 324 322 326 329 329 329
321 321 320 319 321 324 326 326 328 329 331 336 340 342 342 344 346 347 348 348 350 349 348 340 334 329 328 328 326 327 327 328 322 319 316 320 321 318 321 323 321 324 326 327 326 324 324 328 329
321 319 323 317 324 328 325 326 329 329 332 331 336 339 341 342 345 347 348 348 349 348 347 346 338 328 327 329 327 328 327 327 325 321 318 317 317 321 323 324 322 324 324 323 324 324 321 320 324
321 321 318 318 319 322 324 324 322 326 329 332 333 338 339 340 343 345 346 347 349 348 348 348 343 337 329 328 329 330 332 336 335 325 319 319 319 320 322 319 321 322 324 321 319 318 323 324 325
321 320 320 323 321 319 321 323 324 326 327 332 333 336 336 338 340 342 344 345 347 348 348 348 347 342 338 333 337 335 335 336 343 329 322 320 318 318 319 319 320 322 323 322 323 322 322 325 328

GFSSGP_850_thetae_009.txt.gz
Theta_e
347 349 351 355 350 347 351 351 348 350 349 349 346 345 347 347 346 351 345 346 344 344 343 342 341 340 341 344 345 343 344 343 342 339 335 333 332 331 330 333 331 331 334 335 334 333 334 335 335
347 347 351 353 347 347 351 347 351 348 349 348 349 349 348 348 346 344 345 346 346 344 344 344 343 342 343 344 345 344 341 342 340 336 334 333 333 332 330 333 330 331 334 334 335 335 335 336 335
345 346 354 348 345 346 350 347 350 349 349 348 349 348 347 347 346 346 346 348 349 347 346 346 345 345 345 345 344 342 337 337 336 335 334 334 333 331 333 333 332 334 334 333 334 335 335 336 336
349 350 347 339 344 346 348 347 349 351 350 350 347 347 348 347 346 343 346 347 348 348 347 345 345 345 345 345 344 338 335 334 334 333 333 332 334 334 334 333 334 332 331 333 335 335 335 335 335
348 343 340 343 347 349 346 347 350 351 351 349 348 348 347 347 341 344 346 347 347 346 345 345 345 345 344 343 343 335 336 334 334 334 333 334 334 334 334 334 331 329 331 334 335 334 334 333 334
342 338 341 344 349 349 346 347 350 352 351 349 347 345 348 346 339 341 342 343 344 345 345 345 345 344 342 340 341 337 336 334 333 334 333 333 334 335 334 331 332 333 334 337 337 335 336 333 334
342 341 343 345 351 350 347 347 350 351 350 349 346 348 350 347 339 339 340 344 343 344 345 345 346 343 342 337 337 335 333 332 334 335 336 337 337 334 331 335 340 338 338 337 336 339 339 335 335
340 340 343 345 350 349 347 348 351 349 350 349 348 348 348 347 341 340 341 346 346 347 346 346 345 346 342 336 335 335 336 337 338 338 338 338 337 335 336 341 339 338 340 339 339 342 341 341 339
340 343 344 343 348 347 347 348 351 350 350 349 348 348 346 347 342 342 345 347 348 347 349 348 341 339 337 338 340 340 340 339 339 338 337 336 338 340 338 340 342 342 339 343 340 340 341 341 342
340 344 343 341 343 347 347 348 351 351 350 349 350 349 346 348 346 345 347 348 348 347 343 342 338 339 341 341 340 340 339 339 339 337 336 338 340 342 344 344 342 344 342 341 340 339 342 339 340
340 342 341 341 340 345 347 348 350 349 350 348 350 351 349 349 347 346 346 346 345 342 344 341 341 339 339 341 342 341 340 338 336 336 337 339 343 345 345 343 342 340 342 343 342 342 340 340 339
337 338 339 340 341 344 347 348 348 348 344 346 350 349 350 349 348 347 346 345 343 341 342 341 341 340 340 340 340 340 339 338 337 337 338 340 344 344 344 344 342 342 342 341 341 341 339 339 340
332 331 336 339 342 344 346 348 347 348 345 348 348 350 349 349 349 348 347 345 342 341 341 341 341 341 340 340 339 340 339 339 338 337 338 342 347 343 342 345 344 342 342 341 341 341 340 340 339
329 333 337 340 342 343 346 347 346 346 349 350 350 350 349 349 349 350 350 348 342 341 340 341 342 341 340 341 340 341 340 340 339 342 342 345 347 343 342 344 343 342 341 342 342 341 340 341 339
338 341 341 340 342 344 345 349 348 347 350 350 350 349 349 350 350 350 346 343 343 342 341 340 341 342 342 342 342 343 342 344 344 345 348 346 345 342 342 342 342 341 341 342 342 343 342 340 337
340 341 343 341 342 344 343 345 347 349 350 349 348 349 349 349 350 350 347 345 345 344 343 342 342 344 344 343 344 345 346 348 348 345 344 345 345 344 343 343 343 341 343 342 345 343 342 339 335
339 343 343 343 342 345 344 345 346 349 350 350 349 348 349 349 350 351 350 346 345 345 345 344 344 344 345 345 348 347 344 344 345 345 348 345 345 344 344 344 343 343 343 343 342 338 334 330 329
341 344 343 345 343 345 346 346 349 349 350 350 351 350 350 351 352 352 349 348 347 347 347 345 345 348 347 345 346 345 344 345 345 347 346 347 346 345 343 342 343 344 344 339 335 332 331 328 328
339 343 344 343 342 344 346 346 350 349 349 350 351 352 351 350 350 351 348 348 348 348 348 347 347 347 347 348 347 346 344 344 345 345 346 346 346 344 343 344 344 344 338 335 332 331 327 336 329
340 342 344 341 342 344 345 345 347 349 348 348 349 350 350 351 351 351 352 350 350 350 348 348 348 347 349 348 347 346 345 347 348 348 348 346 346 344 344 344 343 337 333 327 322 327 333 333 332
338 341 342 343 341 343 345 345 348 349 348 347 347 347 348 348 349 349 350 350 349 349 349 347 347 344 346 348 348 348 347 347 345 346 344 343 344 341 338 340 336 331 321 324 326 327 326 335 332
333 336 340 342 343 345 343 345 346 348 351 349 347 347 347 347 347 347 348 348 348 347 348 347 347 345 345 347 348 348 346 349 349 343 336 337 339 333 339 337 328 320 323 324 325 324 325 327 335
333 333 335 339 342 342 346 344 341 347 350 351 348 347 346 346 346 346 347 345 345 345 346 346 346 346 345 346 347 347 346 347 344 338 331 332 333 332 337 332 321 325 326 328 328 323 324 324 327
328 330 331 336 338 339 338 343 338 348 348 347 346 346 346 345 346 346 346 344 345 345 346 346 346 345 345 346 346 346 343 344 338 336 335 335 328 334 333 326 323 330 330 330 325 323 324 326 328
329 331 333 336 337 336 336 345 341 341 344 345 345 345 344 345 345 346 347 345 346 346 346 346 346 345 345 345 345 344 342 341 331 330 331 327 325 325 325 324 322 328 332 327 323 324 327 327 326
329 331 334 336 336 335 335 341 339 340 339 340 343 343 344 344 344 345 345 344 346 346 346 347 346 345 342 341 340 340 339 334 325 326 326 322 324 324 326 320 322 326 328 325 323 324 326 328 328
328 330 331 333 328 332 335 339 334 337 338 338 340 342 344 344 345 346 345 345 346 346 345 346 347 341 335 334 336 337 336 333 326 324 324 319 321 324 322 319 321 322 324 324 325 324 324 325 328
327 328 329 329 337 335 333 334 333 339 339 341 341 342 343 345 346 346 346 345 346 346 345 344 345 339 329 331 331 332 333 328 327 325 323 318 318 319 318 320 324 322 322 323 325 324 325 323 321
325 326 327 330 331 335 334 333 335 340 344 341 341 340 342 344 345 346 348 345 345 346 347 346 345 343 336 328 328 331 333 328 328 330 324 320 318 318 318 320 323 321 322 322 319 320 319 319 322
325 327 329 330 333 329 331 332 332 334 337 337 338 338 340 344 342 347 348 347 345 346 348 348 348 346 341 330 327 329 330 327 327 325 337 323 320 319 319 319 319 319 320 321 321 320 323 324 323

GFSSGP_850_thetae_012.txt.gz
Theta_e
349 351 359 360 359 350 353 352 348 351 351 349 344 346 349 349 351 357 349 350 350 349 345 342 344 344 345 344 343 341 339 339 336 336 335 334 332 332 334 332 331 334 334 334 334 334 335 335 336
357 357 357 354 347 349 352 349 351 350 348 348 348 347 348 350 349 349 350 350 349 348 348 346 341 343 344 343 344 341 341 341 337 335 334 333 331 330 333 331 330 333 334 334 335 334 335 336 336
353 352 353 343 340 348 351 350 351 349 347 348 349 349 348 349 348 349 350 350 350 349 348 344 341 342 345 344 342 341 341 340 337 334 333 332 333 331 334 332 333 334 332 333 334 334 334 335 336
349 351 350 340 340 344 347 350 350 350 349 348 347 349 348 348 349 350 350 351 351 351 352 345 345 345 345 344 340 340 340 338 335 333 333 333 332 334 334 333 334 331 330 333 334 334 333 333 334
350 347 341 340 342 343 345 348 350 351 349 348 347 347 349 350 349 351 351 353 352 351 352 346 345 345 344 343 337 335 334 334 334 333 332 334 334 334 334 333 330 330 332 335 336 335 335 332 333
348 343 342 341 343 343 345 347 349 350 350 349 346 348 350 349 350 351 352 352 352 352 353 349 345 344 344 342 336 336 334 334 333 333 334 334 334 335 334 331 334 335 335 338 337 336 337 332 333
345 343 342 343 343 344 344 345 348 350 350 349 345 350 350 348 350 351 351 351 351 351 351 352 349 344 342 343 341 336 335 334 333 334 334 334 336 335 332 336 339 340 339 337 339 341 341 340 336
344 343 342 343 345 344 342 345 347 347 350 347 345 349 350 347 349 349 350 350 351 351 353 352 352 350 349 346 341 337 335 333 334 337 338 338 337 335 336 339 343 337 340 341 340 341 341 341 340
344 345 344 344 345 347 343 345 346 347 349 349 347 346 346 346 348 349 350 351 351 351 353 352 351 351 352 348 337 334 334 335 338 339 338 340 347 350 349 345 343 342 341 343 339 339 340 339 344
342 345 343 341 341 346 344 344 347 348 348 348 349 348 347 346 348 349 350 350 351 353 352 351 352 353 350 349 348 349 348 347 347 347 346 346 349 349 347 346 341 342 342 342 341 340 342 348 347
337 342 342 342 340 344 345 345 346 345 349 346 349 350 348 347 348 349 350 350 350 351 351 350 351 352 351 350 350 350 349 348 348 346 343 348 349 350 351 349 348 347 344 350 349 349 348 348 347
336 335 336 338 340 344 346 345 346 344 343 344 347 349 348 348 347 347 348 349 350 350 350 351 351 351 351 351 350 350 349 348 347 347 339 347 347 350 348 349 349 346 349 349 349 348 348 347 346
333 333 333 335 339 343 345 346 346 345 344 346 348 349 348 348 347 347 347 347 348 350 351 351 352 352 352 350 350 349 349 348 347 348 347 347 349 347 345 345 348 345 349 349 348 348 347 348 346
333 333 334 336 341 344 346 347 346 345 345 348 349 349 348 348 348 348 347 347 348 349 350 351 352 352 351 350 349 350 350 349 349 348 348 341 347 349 350 349 348 348 347 349 347 347 347 348 347
333 338 341 341 344 346 345 350 349 346 347 350 350 349 348 348 348 348 349 349 349 349 349 352 353 352 352 351 350 350 351 350 349 349 351 346 345 345 343 348 348 348 348 341 347 347 347 349 345
336 338 342 344 345 346 346 347 347 348 348 350 349 349 348 348 348 349 349 349 349 349 350 351 351 352 352 353 352 351 351 351 351 351 351 346 349 345 348 349 349 348 347 346 345 346 347 342 339
338 340 340 346 345 347 347 345 346 348 348 350 349 347 347 348 349 350 350 350 349 351 352 351 350 350 352 351 352 352 353 350 350 350 350 350 346 349 347 349 347 345 347 347 344 345 342 338 335
338 339 339 342 346 347 347 347 348 348 348 349 349 348 347 347 348 349 350 352 351 352 353 353 351 352 353 353 350 349 352 351 351 350 351 349 346 348 346 347 347 343 344 346 344 341 340 338 336
337 339 340 340 345 347 345 345 348 349 349 348 350 350 348 346 346 349 351 352 352 353 354 355 354 354 352 351 352 352 351 351 351 351 348 349 348 346 346 348 347 344 346 345 343 339 336 334 337
336 337 339 341 345 346 345 346 346 348 350 348 349 350 350 347 347 349 351 351 351 353 355 356 356 354 352 353 353 352 352 350 351 351 350 349 349 347 347 347 347 344 343 343 339 337 335 335 337
336 337 338 343 345 345 344 347 346 345 347 348 348 348 350 349 348 348 349 350 351 352 355 356 356 355 355 354 353 353 352 351 352 350 350 350 347 347 345 345 345 343 336 334 338 338 336 336 338
336 335 337 341 344 347 345 346 343 344 347 349 349 348 346 349 349 348 349 349 351 352 353 355 354 350 354 354 355 354 351 348 346 347 346 347 347 348 346 343 343 332 335 337 338 337 336 331 335
334 335 337 338 342 343 346 347 342 343 346 348 349 348 346 344 347 348 348 348 350 351 352 354 349 347 351 355 351 355 354 348 348 348 347 342 346 344 343 343 334 323 330 338 337 336 331 336 334
332 334 336 338 339 343 343 345 341 341 345 343 346 347 347 344 343 345 346 347 349 350 352 352 350 346 347 349 348 353 354 351 348 348 345 343 344 344 343 342 327 327 336 338 337 332 330 330 335
331 335 339 341 340 341 341 343 341 338 339 340 340 344 347 344 343 343 345 346 349 350 351 352 351 345 346 346 345 346 354 353 352 350 345 342 342 342 344 334 325 333 332 338 335 329 336 334 335
330 334 338 341 339 339 339 341 340 339 337 336 339 341 346 346 342 343 344 345 348 349 350 351 351 344 345 345 345 344 345 353 351 350 343 341 340 339 341 326 327 324 337 336 325 333 335 335 334
330 335 335 337 337 337 337 339 338 337 338 339 339 341 344 346 343 343 343 345 347 348 349 349 349 342 343 345 344 343 343 344 350 350 342 342 340 339 341 324 325 334 335 326 330 333 335 335 334
330 332 335 336 342 339 337 337 339 338 336 336 341 342 343 345 345 342 344 344 346 347 348 350 351 350 344 345 339 341 341 338 339 342 331 329 335 323 336 327 319 326 329 324 325 334 335 335 332
328 331 333 335 335 337 339 337 336 336 336 336 337 341 341 344 346 345 344 345 347 347 347 349 351 353 351 345 336 338 340 337 333 331 324 324 322 319 319 321 324 319 324 329 330 330 331 334 333
328 330 333 335 338 336 336 336 335 336 335 334 334 335 337 341 345 347 347 346 347 348 347 348 349 350 350 335 331 333 339 335 335 328 327 327 325 321 319 321 322 324 328 334 331 331 330 331 331

GFSSGP_850_thetae_015.txt.gz
Theta_e
349 352 358 358 358 353 353 352 350 352 351 347 347 349 352 351 351 355 346 347 351 350 345 341 342 342 341 340 339 339 336 336 335 336 335 332 333 334 332 331 334 334 334 333 334 334 335 336 337
356 359 362 361 353 358 353 350 352 351 349 347 347 349 350 352 349 351 350 351 350 347 349 346 344 344 342 341 339 339 337 336 336 335 334 331 330 333 331 331 333 334 333 333 334 334 334 336 335
360 358 357 354 347 351 352 349 350 348 348 348 349 348 350 349 349 350 350 349 348 349 350 344 344 344 344 341 340 341 338 335 335 334 333 332 332 333 333 333 334 331 331 333 334 334 333 334 334
356 353 351 340 343 347 350 349 347 348 347 347 348 350 349 350 351 350 350 349 349 349 350 342 344 345 343 342 341 341 340 337 334 332 332 333 332 334 333 334 331 329 331 334 335 334 333 332 334
351 351 351 338 340 344 348 347 347 348 348 347 348 351 350 350 351 351 352 350 351 351 350 345 345 345 344 341 339 339 338 335 333 333 333 333 335 335 334 332 331 333 333 336 336 335 335 331 334
351 345 345 341 339 341 346 347 347 348 348 347 349 350 352 351 351 351 352 352 352 351 350 347 345 344 343 337 336 335 334 334 333 333 334 335 335 335 333 332 339 337 337 336 337 340 338 333 335
349 347 344 341 341 340 342 344 346 346 347 347 348 352 351 351 351 352 352 353 352 351 352 352 349 344 342 336 334 334 334 333 333 334 334 334 336 334 332 339 338 338 339 338 339 341 341 339 337
347 343 342 345 342 340 340 342 343 344 348 345 347 352 352 351 351 350 351 351 351 352 350 351 351 351 349 337 336 335 334 333 334 334 334 337 336 336 341 341 345 341 339 343 339 339 339 339 340
343 346 346 343 347 341 339 341 342 345 346 345 346 348 349 351 350 349 349 351 351 351 350 350 350 349 351 351 344 336 335 333 335 338 338 337 349 349 349 350 343 342 343 342 339 339 340 346 346
342 348 346 341 344 343 341 339 342 343 345 346 346 347 349 350 350 349 349 349 349 352 351 352 351 350 349 347 344 346 345 346 346 348 349 344 349 350 347 348 342 341 340 341 343 341 346 347 347
338 346 344 341 340 344 342 341 341 342 344 345 347 347 348 349 350 349 349 349 349 350 352 352 349 351 349 349 349 350 350 350 348 350 349 348 350 350 350 350 350 349 347 350 348 347 348 348 346
337 338 337 339 340 341 343 342 340 339 342 343 346 346 347 349 349 349 348 349 349 350 349 349 352 351 349 349 349 349 348 347 348 349 350 350 349 349 350 350 349 348 349 348 348 349 348 347 347
336 338 336 336 339 340 342 343 342 339 340 343 346 346 347 348 349 348 348 348 349 349 349 349 351 352 352 353 349 349 348 347 348 348 350 349 348 349 350 350 350 351 348 348 348 347 349 346 347
336 335 336 336 338 340 343 343 343 340 342 344 347 347 346 347 347 347 347 347 348 349 349 350 352 353 353 351 354 351 349 349 347 349 349 349 348 350 349 349 349 349 348 348 348 350 346 345 345
334 337 339 338 339 341 341 343 344 341 344 345 347 347 345 345 345 347 347 347 348 350 350 351 352 353 353 353 352 351 350 348 349 348 350 350 350 350 349 349 350 348 348 348 348 347 348 345 344
335 337 340 339 340 342 343 346 343 343 344 345 346 347 345 345 345 346 347 347 348 349 350 351 351 352 353 353 354 353 350 350 349 349 350 352 352 352 351 350 349 348 349 349 349 348 346 343 340
337 338 339 340 340 344 344 348 344 344 343 343 345 345 346 346 346 347 347 348 348 349 351 352 352 352 353 353 353 352 351 351 352 352 349 352 350 351 351 349 350 349 348 348 345 346 344 340 337
339 339 340 344 341 345 344 347 346 346 344 343 344 344 345 345 346 347 348 348 349 350 352 353 352 352 353 353 352 354 353 353 352 350 351 351 350 351 352 350 350 348 350 348 346 345 341 339 338
337 339 338 341 340 343 344 345 346 347 347 345 345 343 344 344 345 346 349 349 349 350 353 354 354 353 353 354 353 353 353 350 350 349 353 352 348 351 349 347 349 350 346 348 345 342 337 336 339
336 338 340 340 340 343 344 345 346 349 347 347 346 345 344 344 344 346 348 349 350 351 352 354 355 354 354 355 353 352 351 350 350 348 350 352 353 354 350 349 349 349 347 344 343 339 337 336 339
335 337 339 340 345 344 344 346 345 345 347 347 346 347 346 344 343 345 347 349 350 351 353 355 354 355 355 354 353 353 355 351 352 349 352 351 350 350 348 350 347 350 342 337 338 340 338 338 338
335 336 337 339 343 347 342 346 346 344 345 348 348 347 347 345 344 343 347 349 350 351 354 354 355 354 356 355 355 353 352 348 346 346 346 349 350 348 350 349 347 345 339 337 339 339 337 334 337
333 335 337 338 342 347 342 343 342 343 344 345 347 348 348 346 345 344 345 348 349 351 353 356 356 356 356 356 353 354 352 347 348 346 349 349 348 348 347 346 347 343 328 338 342 339 333 340 337
332 334 337 337 339 343 345 344 346 344 344 344 343 346 348 348 345 346 346 347 348 349 352 354 356 356 355 355 353 353 354 349 348 349 350 346 345 346 346 346 345 339 337 341 340 339 339 335 337
330 333 337 340 339 340 342 343 348 343 342 342 341 342 345 348 346 344 347 346 348 349 351 353 355 355 355 356 357 353 354 354 353 353 348 345 345 346 345 346 345 338 331 342 340 339 339 338 338
329 332 335 341 340 340 339 342 342 343 340 339 338 338 341 346 347 344 344 346 347 348 350 352 354 355 351 355 355 354 352 354 351 351 349 345 344 344 344 344 344 336 342 341 341 337 336 337 336
328 331 333 336 338 340 340 340 340 341 341 340 338 337 338 345 347 345 343 344 346 347 350 352 353 355 351 356 353 353 355 352 351 349 347 349 343 342 343 347 340 340 339 341 338 334 338 337 338
327 330 333 338 344 344 339 340 340 341 340 339 339 337 338 342 346 346 344 344 345 347 349 351 353 355 353 354 353 353 352 353 345 351 350 348 344 340 342 344 336 335 339 341 333 336 337 337 336
327 328 332 334 337 340 341 341 339 341 340 339 339 336 337 340 345 346 344 344 345 346 347 349 351 353 353 353 353 352 352 354 345 341 346 347 343 344 342 342 341 337 339 339 338 334 335 338 337
328 328 329 337 340 337 340 339 338 338 338 337 337 336 337 337 342 345 345 345 345 345 345 347 349 350 353 353 352 349 347 349 351 341 351 349 331 342 334 331 334 332 336 336 329 337 336 334 334

GFSSGP_850_thetae_018.txt.gz
Theta_e
350 353 353 346 354 353 356 355 351 352 349 350 350 349 350 351 349 355 345 347 348 347 344 343 343 343 340 337 335 333 332 333 335 334 332 334 334 332 332 333 334 333 333 334 334 334 335 335 338
350 355 349 340 356 359 358 352 354 351 348 351 351 351 350 351 348 348 350 350 350 348 343 343 342 341 339 338 336 334 334 336 336 333 332 331 333 331 331 333 333 331 333 334 334 334 333 334 334
355 356 358 361 353 357 355 351 351 349 349 349 350 350 350 349 350 350 350 349 348 348 348 342 341 340 339 339 338 336 336 336 335 333 332 331 332 332 333 333 330 330 333 334 335 333 332 333 333
360 357 361 361 351 350 349 348 348 347 349 348 350 351 351 350 350 350 350 348 350 351 345 344 344 342 340 339 339 337 336 335 334 333 332 331 333 333 334 330 332 331 333 336 334 337 332 332 336
361 352 357 352 344 350 347 346 347 347 348 350 349 353 352 349 350 350 349 349 350 350 344 344 343 342 341 341 341 339 336 335 332 332 332 333 334 334 332 331 337 334 336 335 338 337 331 332 336
356 353 357 341 340 345 346 348 347 347 348 349 349 351 352 352 351 351 350 349 350 349 347 344 344 342 340 340 340 339 336 333 332 332 333 334 334 334 331 339 339 338 336 337 339 340 340 335 338
349 352 348 343 340 342 344 346 348 346 346 348 351 351 351 352 353 352 351 352 348 350 351 345 344 343 339 338 337 335 334 333 332 333 334 334 335 333 335 339 341 337 339 341 338 339 339 339 339
342 349 352 346 340 340 340 343 344 345 348 346 348 349 351 352 353 352 351 351 351 350 352 350 345 342 336 334 333 332 332 332 333 333 333 336 336 348 348 348 344 341 343 341 338 337 340 345 344
346 345 348 347 343 340 340 339 344 346 345 345 349 348 349 349 354 351 352 351 351 351 350 351 352 346 343 335 334 333 333 333 334 334 337 337 348 348 352 350 346 340 339 341 339 341 345 346 346
343 350 345 345 343 341 340 339 340 342 343 345 349 349 349 348 352 352 351 350 351 351 351 349 350 350 347 350 336 335 333 333 337 341 345 341 349 351 348 346 347 345 346 343 346 346 348 347 349
341 343 342 343 342 341 342 340 339 342 343 344 349 350 349 348 347 350 351 349 351 349 349 351 347 349 348 350 339 336 341 343 344 348 350 349 350 349 351 348 347 350 351 348 348 349 347 348 345
341 341 341 342 342 343 342 339 339 341 342 344 349 350 350 348 347 346 348 348 350 349 352 349 347 346 349 348 344 349 350 348 349 350 347 346 347 349 350 350 350 351 348 349 348 349 349 346 345
336 336 340 336 336 339 342 341 339 340 342 343 346 348 349 349 347 346 347 347 351 343 353 353 349 349 351 348 349 350 349 348 349 349 347 343 349 350 351 348 347 347 350 350 347 346 347 347 345
335 336 337 336 337 338 343 342 340 339 341 342 345 346 348 348 347 346 347 348 351 349 350 353 352 346 352 348 351 351 347 349 347 348 350 349 345 350 351 347 347 347 348 345 346 346 347 342 342
334 335 336 337 337 339 342 343 342 340 340 343 345 345 346 347 348 347 346 347 349 348 349 349 352 350 349 347 351 350 352 349 348 350 350 346 348 344 345 348 349 347 348 347 347 346 343 342 344
333 334 336 338 338 340 340 346 341 341 340 342 345 344 345 346 346 347 347 347 348 349 349 351 352 354 351 350 351 348 347 348 349 351 348 350 350 349 348 349 349 350 349 348 350 343 347 342 341
333 335 336 339 339 341 341 347 345 342 341 342 343 344 344 345 345 346 347 347 348 349 350 350 351 352 354 349 351 351 351 350 348 349 352 348 350 350 348 348 349 351 349 346 345 346 344 342 339
333 336 337 341 341 341 347 348 342 341 342 342 342 343 344 344 345 346 347 347 348 349 350 351 352 352 352 352 348 354 349 351 348 350 348 351 349 352 349 346 350 347 344 346 346 345 342 335 336
333 337 338 341 341 340 349 347 344 343 344 342 342 342 343 345 345 346 347 347 347 349 350 351 351 351 355 354 353 350 352 351 348 349 351 350 350 346 346 347 347 346 343 349 346 342 337 337 338
333 335 339 341 343 343 344 351 347 347 345 343 343 342 342 342 344 346 348 348 348 349 350 351 352 352 351 354 353 351 348 351 348 349 348 351 349 346 349 345 346 347 346 347 346 337 332 338 338
333 335 337 339 341 342 341 342 346 345 345 345 344 344 342 342 342 346 347 348 349 350 351 352 353 353 353 352 352 350 353 354 354 352 348 351 349 348 350 347 347 350 349 343 341 339 336 338 340
333 334 335 337 342 344 342 346 349 346 349 347 346 346 346 343 342 343 346 349 349 350 351 352 352 353 352 351 356 352 353 353 351 352 349 346 351 346 349 347 347 348 343 338 338 336 335 333 339
334 335 336 336 339 345 347 346 347 347 349 350 348 346 346 347 344 343 346 347 349 350 353 353 353 354 352 352 353 356 353 350 345 346 347 348 351 348 350 350 349 343 334 337 338 341 327 339 336
332 333 335 336 337 341 344 345 346 348 346 343 346 346 346 347 347 344 344 346 348 350 353 353 354 355 354 353 352 354 355 348 351 348 348 348 349 346 347 348 344 341 320 339 337 331 328 336 337
329 330 336 338 340 340 341 347 347 346 345 344 343 345 346 347 348 346 345 347 349 350 352 355 355 355 355 352 354 350 356 350 351 349 348 349 340 347 343 342 341 332 321 339 336 339 338 330 331
328 329 335 339 339 339 340 341 346 346 344 342 343 344 344 347 348 347 347 346 349 349 351 354 356 356 356 354 354 351 350 354 347 353 351 349 345 345 347 345 338 333 327 339 342 335 328 336 334
328 328 330 333 335 338 339 339 338 342 345 342 341 341 341 346 348 348 347 348 349 350 349 352 356 356 354 354 351 352 348 347 349 351 353 350 345 346 345 345 344 337 335 333 339 332 335 339 340
328 329 328 330 337 340 339 342 343 344 347 345 343 341 339 338 347 348 347 348 349 350 350 351 354 356 355 354 351 348 344 338 340 351 350 349 351 345 345 343 341 329 328 337 333 324 331 326 328
328 328 328 329 332 337 341 342 343 346 348 347 344 340 339 338 345 346 348 346 348 350 351 352 354 356 356 355 354 348 345 335 335 349 353 351 348 347 344 343 342 335 328 328 323 324 337 330 327
330 329 328 329 335 333 336 341 339 342 342 344 342 340 338 338 339 344 347 346 346 347 349 352 354 356 357 357 354 350 346 335 333 339 349 351 350 346 344 341 341 340 330 325 320 321 328 326 330

GFSSGP_850_thetae_021.txt.gz
Theta_e
350 349 352 350 355 351 358 357 352 352 352 349 348 349 350 349 349 350 345 345 343 343 342 342 342 340 338 336 332 330 334 335 334 332 334 332 331 332 333 333 332 333 334 334 334 334 334 335 338
350 349 348 344 356 359 359 349 353 352 349 350 350 349 348 349 346 345 346 346 345 342 342 342 341 339 337 333 331 332 335 334 332 333 333 332 330 332 333 330 330 332 334 335 334 332 332 332 334
350 348 347 353 354 359 357 350 351 351 351 351 351 349 348 349 348 347 346 347 344 343 343 343 340 338 335 333 331 332 335 334 332 330 330 332 332 333 331 330 330 332 335 335 334 333 331 334 335
354 354 355 359 354 352 351 351 350 352 351 350 350 350 350 350 350 346 349 347 344 342 341 341 340 338 337 334 332 334 335 334 333 331 331 332 333 333 330 334 333 333 337 336 338 333 331 335 336
355 352 357 358 353 348 347 347 349 351 350 350 349 351 350 349 346 348 349 349 349 344 342 341 339 338 338 336 335 335 335 334 332 332 331 333 333 332 333 338 337 337 335 338 340 338 333 337 337
347 348 357 356 348 347 346 346 349 350 352 352 350 350 350 348 348 349 350 350 350 343 342 342 341 339 340 338 335 335 335 333 332 332 333 334 333 331 337 339 337 338 339 338 339 339 337 339 339
344 346 352 349 342 346 348 347 350 350 351 351 351 351 350 349 348 348 347 349 348 343 344 341 341 341 340 340 338 336 334 332 332 332 333 334 334 338 345 342 342 341 341 337 337 337 342 341 342
341 346 353 347 347 341 347 346 348 348 351 350 352 353 351 350 350 349 349 350 350 346 344 344 341 339 338 337 337 335 333 332 332 333 333 336 347 348 350 346 341 340 342 338 339 345 345 345 344
343 348 351 346 346 339 342 345 347 349 350 351 350 352 351 351 350 348 351 351 350 350 344 343 341 337 335 334 333 332 331 332 333 333 336 341 347 346 350 347 344 341 340 342 344 345 345 347 341
344 349 344 343 343 340 343 346 346 347 348 349 350 349 351 352 351 348 350 351 351 350 345 343 340 336 333 332 332 332 332 333 334 337 343 346 348 347 348 347 344 348 347 346 346 345 347 343 343
344 342 343 343 342 342 339 339 342 343 349 349 350 351 352 353 352 348 349 348 352 351 350 348 343 338 336 333 333 333 333 335 338 338 345 347 348 341 344 348 346 346 347 347 346 346 345 345 344
341 340 340 340 343 339 338 339 341 341 347 349 348 348 353 352 352 349 350 349 351 351 350 350 346 342 348 345 345 336 345 346 348 348 347 346 345 347 347 348 345 346 348 346 348 347 344 349 343
337 339 340 339 341 342 340 340 342 343 348 349 348 347 351 352 351 350 348 347 345 347 350 349 348 345 347 349 345 347 349 348 348 349 349 343 346 347 347 348 347 345 345 345 345 344 344 342 342
336 337 335 339 341 341 340 340 342 345 350 350 349 348 348 347 350 351 349 350 348 348 348 349 347 345 347 350 348 349 351 351 349 349 349 349 347 346 347 347 346 345 347 347 345 344 343 339 341
333 334 333 335 336 339 342 344 341 344 348 350 350 349 349 347 347 347 350 349 350 345 351 351 350 347 343 348 350 349 349 348 348 349 349 348 348 346 344 346 346 346 346 346 345 347 343 343 341
330 329 329 332 335 338 341 344 342 341 346 348 348 349 349 349 347 346 349 349 350 349 352 352 351 348 346 344 349 348 348 348 348 348 351 348 349 348 347 345 345 350 349 346 345 346 343 342 340
327 328 329 331 335 338 340 343 340 340 345 345 347 347 348 348 347 347 346 351 348 349 350 352 351 351 349 343 345 350 348 347 348 349 349 348 350 349 348 341 347 347 348 346 344 344 343 342 340
326 328 329 331 336 340 341 341 341 341 340 344 344 345 346 347 348 347 346 347 348 348 348 350 351 351 353 352 346 344 345 346 347 347 349 349 350 350 347 347 343 346 348 345 345 344 343 333 336
328 329 330 332 338 343 344 342 341 339 339 340 344 344 345 345 345 347 347 347 347 348 348 350 350 350 352 352 351 347 347 348 348 347 346 350 349 350 349 345 344 346 345 345 344 342 339 337 338
327 328 330 332 339 343 346 344 341 337 337 339 342 344 344 345 345 346 346 347 347 348 348 349 349 350 353 353 352 350 348 351 349 347 350 353 350 348 345 346 344 344 346 346 344 341 327 337 337
327 327 329 332 339 341 346 347 343 337 340 341 342 343 344 344 345 345 346 347 347 348 348 348 349 349 351 354 353 353 352 347 350 350 350 348 347 350 346 346 342 346 347 346 343 336 335 339 337
327 329 330 332 334 341 344 350 345 339 343 343 342 341 343 344 344 345 346 346 347 347 348 349 349 350 350 352 353 353 348 346 350 352 349 347 348 349 349 345 342 347 350 345 336 331 328 337 339
327 329 330 331 332 340 341 340 346 344 345 344 342 342 341 342 344 345 346 347 347 348 348 348 349 350 351 350 350 350 345 346 351 352 351 351 349 350 344 347 344 346 346 340 335 331 324 337 337
326 328 329 330 331 336 339 341 343 345 346 344 343 344 343 341 342 342 345 347 347 348 349 349 349 350 351 351 350 349 352 350 350 345 345 346 350 348 346 345 348 343 338 335 331 329 324 328 336
324 322 327 330 332 332 335 339 343 342 341 345 345 345 345 344 342 341 345 347 347 348 350 350 349 350 351 352 351 348 353 353 346 347 351 349 347 347 348 342 345 334 330 319 329 325 320 322 326
323 323 325 328 331 332 331 339 341 341 341 346 345 344 345 346 344 343 342 346 347 348 349 350 351 351 351 352 352 348 351 351 347 352 354 348 347 346 338 335 328 328 324 318 324 324 320 320 319
324 323 323 322 326 329 332 332 332 341 340 341 341 341 343 343 347 345 344 345 347 348 348 350 352 352 351 352 353 350 347 349 346 350 351 351 348 343 344 345 344 341 329 319 322 323 321 324 333
325 325 322 323 324 328 330 332 335 335 341 341 339 340 342 342 345 347 345 344 345 346 346 349 351 352 352 352 353 352 345 348 346 347 349 353 352 346 347 346 345 345 342 324 322 324 324 329 334
325 324 322 322 324 326 329 331 331 336 342 341 340 340 340 342 343 348 347 345 345 347 347 348 351 353 354 353 352 353 350 344 347 345 346 350 352 346 345 346 345 344 342 333 322 324 322 328 330
326 325 322 323 323 325 324 327 330 330 339 341 340 339 340 340 345 348 348 347 347 347 349 348 349 351 352 353 352 351 351 344 342 343 342 345 349 350 347 344 345 344 342 340 325 323 322 327 333

GFSSGP_850_thetae_024.txt.gz
Theta_e
350 348 349 348 354 352 357 357 353 351 351 348 349 349 348 347 347 350 345 344 345 345 343 343 342 337 331 330 331 332 334 334 331 332 331 331 332 332 332 331 333 333 333 333 331 333 334 338 338
348 348 348 345 356 359 356 351 354 350 347 349 348 347 348 347 345 345 344 344 344 343 343 343 341 339 333 329 330 332 333 332 332 331 329 330 332 332 330 330 332 334 334 333 332 332 333 334 338
350 344 345 350 354 358 355 349 350 349 350 350 349 347 347 346 345 344 343 343 344 343 342 341 339 337 335 329 331 334 333 332 331 331 331 332 333 330 331 331 332 335 334 336 332 331 335 334 334
351 344 347 360 357 352 352 353 349 351 351 349 348 349 349 347 346 344 343 342 341 341 341 341 337 335 333 330 332 334 332 331 329 330 332 332 332 330 336 334 334 335 338 339 333 333 336 337 335
353 350 352 358 354 350 350 352 351 350 350 350 349 350 349 349 344 344 343 342 343 342 341 339 337 334 332 331 332 334 333 331 331 331 333 333 331 336 337 338 337 336 338 340 339 336 338 338 341
350 347 354 355 350 349 350 351 350 350 350 349 349 349 348 346 345 347 345 342 341 341 340 339 338 336 333 331 332 333 333 332 331 331 333 333 332 338 340 341 340 340 338 339 339 339 339 341 344
344 344 350 350 347 349 352 350 350 350 350 349 348 349 349 348 348 348 348 346 342 341 340 339 338 338 335 333 333 333 333 331 332 333 334 334 338 347 343 342 341 342 338 338 339 343 343 341 343
340 344 350 348 346 351 348 351 350 350 351 349 347 349 349 348 349 349 348 348 343 342 341 340 339 339 338 335 334 334 333 332 331 333 334 342 346 347 344 343 339 340 338 342 345 346 347 344 344
340 345 350 345 345 348 348 350 351 350 350 349 351 348 346 346 349 350 349 349 345 343 341 340 339 339 339 338 336 333 332 331 332 333 336 343 347 346 342 343 343 341 342 344 346 345 345 342 343
343 343 346 341 341 345 346 349 349 351 351 352 350 348 348 347 347 349 349 349 347 344 343 340 338 337 336 336 334 332 331 332 332 336 339 346 345 346 345 346 347 348 346 346 345 346 343 341 341
345 344 341 343 342 345 347 349 349 351 352 351 351 350 349 348 349 349 350 349 349 348 343 342 338 335 334 332 330 330 331 333 335 338 338 344 346 342 345 348 346 347 347 343 344 344 345 343 342
342 343 341 341 342 342 344 349 349 348 348 346 348 350 350 349 348 351 351 348 350 349 344 341 336 333 332 331 331 332 333 338 339 345 341 344 344 347 345 345 344 344 344 345 343 344 343 342 345
335 335 341 341 341 341 341 341 349 348 348 348 350 351 350 350 347 349 348 349 349 348 349 342 341 336 333 333 341 334 341 347 347 347 347 343 346 347 346 347 344 345 344 343 342 343 345 340 340
331 332 333 337 340 340 338 339 343 347 349 351 351 352 351 351 347 348 349 349 349 347 349 346 347 343 338 342 342 344 348 347 348 347 349 347 345 345 346 346 344 344 343 344 344 343 342 340 341
331 330 330 329 333 339 339 343 349 349 348 349 352 352 352 352 350 347 347 347 349 345 344 346 347 346 340 345 346 347 347 349 347 347 349 349 347 347 346 343 344 346 344 344 343 344 342 342 340
327 326 327 329 339 340 337 341 349 349 348 347 350 353 352 351 351 350 348 346 347 343 346 348 347 346 343 348 348 348 349 349 348 348 350 349 349 348 348 346 344 344 348 348 344 344 341 342 339
323 326 326 326 336 340 338 340 340 349 349 348 347 348 350 350 349 350 350 347 346 347 346 348 349 349 346 346 348 347 349 349 347 348 349 349 348 348 349 344 344 346 346 348 343 342 342 341 333
325 325 325 326 330 340 339 340 339 349 349 349 349 348 348 346 346 347 349 349 348 348 345 350 350 351 349 345 344 347 346 349 347 347 347 348 348 348 349 347 347 345 346 345 344 343 341 332 336
325 325 325 326 329 339 340 339 338 347 348 348 348 348 348 347 345 345 347 348 349 346 348 350 351 351 350 349 345 344 344 348 346 346 348 347 349 348 348 348 344 344 345 344 343 343 337 335 335
323 324 325 325 327 339 340 341 337 341 344 346 346 346 347 347 347 346 346 346 350 348 348 349 350 349 351 351 351 349 345 343 344 347 349 347 349 350 349 345 344 345 345 344 342 342 324 335 336
323 323 324 325 327 343 341 342 342 338 337 341 344 345 345 346 346 347 347 346 348 348 348 348 348 349 350 350 351 351 350 345 346 349 347 346 350 347 348 347 345 343 343 344 343 340 330 337 336
321 324 325 326 327 334 339 341 343 340 335 337 341 343 344 344 345 345 347 347 346 346 347 348 348 348 349 349 351 352 351 348 346 349 347 347 345 348 349 349 345 342 343 345 345 338 331 336 335
324 324 325 327 326 327 331 339 339 341 341 337 337 342 342 344 344 344 345 346 346 346 346 347 347 348 348 349 349 351 352 349 347 344 350 350 348 349 350 349 344 340 343 347 343 329 322 336 336
325 322 323 326 326 328 329 338 338 340 341 338 339 340 342 343 344 344 344 345 346 346 346 346 347 348 348 348 349 349 349 349 347 344 351 351 349 350 349 347 336 341 342 343 335 328 326 327 335
322 319 320 323 325 327 326 335 338 338 340 339 341 341 340 342 343 343 344 345 345 346 346 346 346 347 348 348 349 350 348 348 343 346 351 348 347 347 350 347 343 342 340 334 326 325 327 322 332
320 319 320 322 324 326 325 333 336 336 340 341 342 342 341 340 342 343 343 344 345 346 346 346 346 347 348 349 349 350 350 347 343 347 350 345 345 347 347 346 346 338 336 330 319 324 322 320 323
322 319 319 318 321 323 325 328 328 333 336 340 342 342 341 340 340 342 343 344 344 345 346 346 347 347 348 349 349 350 351 347 342 348 347 346 349 348 346 345 335 330 331 326 318 321 322 320 319
322 320 320 315 320 322 322 327 330 329 334 336 340 342 342 342 341 341 341 342 344 344 345 346 347 347 348 348 349 350 351 349 342 348 346 350 350 349 348 342 340 344 336 336 325 319 322 319 323
325 322 318 318 319 321 321 324 323 326 328 334 341 343 343 343 343 342 341 341 342 343 346 346 347 348 348 348 349 350 350 351 343 342 345 349 351 351 349 348 342 345 345 344 341 326 321 320 322
325 324 319 322 319 319 322 324 327 325 326 332 337 341 343 344 343 344 344 342 343 345 346 345 346 347 348 348 349 350 350 351 347 341 342 347 349 351 349 349 344 345 346 345 343 340 324 321 320

GFSSGP_850_thetae_027.txt.gz
Theta_e
346 348 349 346 353 351 357 357 352 351 350 348 348 346 347 346 347 349 344 342 343 342 342 341 341 338 334 336 332 334 335 332 331 330 332 332 332 331 331 333 333 334 332 331 332 334 338 338 340
348 348 349 346 354 354 354 351 353 349 348 348 348 348 346 347 345 345 345 342 342 342 343 342 339 335 333 337 336 335 333 330 331 330 331 332 331 329 330 333 335 334 334 331 332 333 335 339 340
348 342 345 349 352 355 353 351 350 348 348 349 347 347 346 345 345 345 344 344 344 343 344 339 336 335 332 333 334 332 331 332 329 329 331 332 329 332 331 333 335 336 334 330 333 335 334 336 339
342 343 349 356 359 353 352 351 349 350 349 348 347 347 346 346 344 344 344 344 343 343 341 340 338 333 331 332 332 332 331 331 331 331 332 331 333 337 334 335 335 339 337 332 336 337 337 336 338
347 347 353 356 355 351 351 348 350 350 349 348 348 349 346 346 343 343 343 343 343 342 340 339 338 332 330 332 332 331 330 329 330 332 333 331 338 337 337 338 339 338 339 335 338 338 339 341 340
351 347 354 354 351 351 351 350 350 350 349 348 348 348 348 346 343 342 343 342 341 341 340 337 335 333 330 331 332 332 331 330 330 333 332 332 339 341 341 340 340 337 338 338 338 339 341 344 343
345 345 349 350 349 353 352 351 349 349 348 348 345 347 348 344 343 342 342 342 341 341 339 337 335 332 331 330 332 333 332 331 331 333 332 337 346 342 340 340 341 337 337 340 341 341 342 343 344
342 338 347 348 352 351 350 350 349 349 349 347 343 347 348 344 342 342 341 341 342 340 338 337 336 334 331 331 332 333 332 330 332 333 338 345 346 344 342 339 339 337 342 344 345 345 343 344 344
341 341 346 346 346 348 350 350 349 350 348 345 347 343 343 345 346 347 347 344 340 340 339 338 338 336 333 332 332 333 331 331 332 333 338 346 346 344 343 342 340 340 343 345 345 345 341 340 341
342 340 341 340 340 347 349 350 349 350 347 350 349 344 345 347 348 348 348 345 342 341 340 338 338 338 336 334 333 333 331 331 333 334 340 344 344 344 346 343 345 345 345 344 343 343 340 341 344
343 346 341 341 343 347 349 349 350 349 348 350 346 345 347 348 348 348 348 346 342 342 340 340 339 338 337 335 333 331 331 331 332 338 341 345 346 345 346 345 345 346 343 342 344 342 343 344 342
346 343 344 343 341 343 348 349 349 348 347 348 343 344 346 348 349 348 348 347 346 343 342 340 339 337 335 334 332 331 331 332 335 340 341 345 344 346 344 343 344 344 345 343 342 342 342 341 342
346 343 340 341 342 341 347 348 349 348 348 347 347 346 347 347 348 347 346 345 348 347 344 342 338 335 334 331 330 331 332 335 338 344 343 343 344 346 346 346 344 344 343 342 343 343 342 339 339
327 333 332 333 334 341 347 348 348 349 349 349 348 348 347 347 347 348 348 348 348 347 342 341 338 334 331 330 331 333 338 345 344 347 347 345 344 345 346 344 344 343 342 343 342 343 341 339 340
328 329 328 328 331 337 344 347 349 347 349 350 350 349 348 347 348 349 349 347 346 346 346 341 336 335 333 331 338 335 343 346 347 345 348 348 346 346 346 345 346 345 342 342 342 344 343 340 340
325 325 327 329 334 335 339 343 346 347 349 351 351 350 349 348 347 347 347 345 347 346 346 345 344 342 340 335 341 343 346 344 348 346 347 348 348 347 347 347 345 345 344 348 346 344 343 342 340
321 326 326 326 335 337 336 339 347 348 349 350 351 351 350 350 349 347 346 346 346 345 346 348 346 346 344 339 344 346 347 347 347 347 347 347 347 348 349 347 343 343 344 346 347 342 341 342 340
324 324 324 326 329 338 337 339 348 348 349 351 351 351 351 351 350 348 346 346 346 346 346 343 345 346 346 342 347 346 347 348 348 348 347 348 348 348 348 348 346 345 345 345 342 343 340 337 332
324 325 324 325 329 338 337 337 349 347 346 347 350 351 352 351 350 351 350 348 347 347 347 344 346 347 347 346 347 348 348 349 349 348 347 347 348 348 348 348 348 346 343 345 342 343 341 330 336
322 323 323 323 328 336 335 338 340 348 347 346 347 348 350 351 350 350 350 350 349 347 346 346 345 348 349 349 346 345 344 347 347 348 347 347 348 348 348 349 347 345 345 344 341 341 338 332 334
321 321 323 323 325 336 337 339 338 347 348 348 347 347 347 347 347 346 347 347 348 349 348 348 346 348 349 349 349 348 346 344 345 346 346 347 348 346 350 348 347 345 344 343 343 341 329 333 335
321 321 323 324 324 324 336 342 339 344 348 347 347 347 347 347 346 345 346 346 346 346 348 348 347 348 350 349 349 349 349 348 346 342 345 346 345 346 346 347 348 346 343 342 342 343 335 334 336
324 323 323 324 323 324 328 336 334 339 344 342 343 345 346 346 346 345 345 344 345 345 346 348 348 348 349 349 349 349 349 348 348 341 346 345 346 345 346 348 349 347 343 341 344 343 328 335 334
324 323 320 322 320 323 325 326 327 340 339 338 336 342 344 344 345 346 345 345 345 346 345 346 347 347 347 348 349 349 349 348 347 349 345 346 347 348 348 349 350 345 342 341 341 340 330 325 334
322 318 320 319 321 324 321 326 327 330 338 338 337 337 342 343 344 344 344 345 346 346 346 346 346 347 347 348 348 348 348 348 347 347 348 343 350 350 347 349 350 343 336 338 339 333 326 323 323
319 319 317 319 320 323 322 326 327 330 335 338 339 339 338 341 342 343 343 344 344 346 346 346 346 346 347 347 347 347 348 348 348 347 347 342 349 348 345 345 349 346 341 335 332 325 324 327 323
321 320 319 317 319 319 322 323 325 329 332 334 337 337 338 339 341 342 343 343 343 345 345 345 346 346 346 346 347 347 347 348 349 346 345 342 348 345 344 346 347 346 343 335 330 325 321 321 319
321 316 320 311 321 322 318 322 323 327 329 330 336 337 339 339 340 341 342 342 343 343 343 344 345 345 345 346 346 347 347 348 349 348 340 344 346 346 345 347 347 346 337 332 327 323 319 322 320
322 320 317 315 314 320 319 321 320 324 327 329 332 338 340 340 340 340 342 342 342 342 344 344 344 345 345 346 346 346 347 348 349 350 341 342 344 344 347 348 347 341 338 334 332 335 324 320 321
322 323 317 318 318 316 321 320 323 322 324 324 328 334 338 341 341 341 341 341 342 343 343 344 344 344 345 345 346 346 347 348 349 350 347 336 343 343 348 349 348 347 343 343 343 343 341 332 322

GFSSGP_850_thetae_030.txt.gz
Theta_e
347 349 349 346 353 351 356 355 351 350 349 348 345 345 346 346 347 347 345 348 346 344 342 343 341 336 336 334 333 334 332 331 331 331 331 332 331 332 333 333 333 331 333 343 337 337 338 339 338
347 348 348 345 350 353 353 350 352 348 347 347 347 346 345 346 345 344 344 346 344 342 341 343 335 332 329 329 331 333 331 331 330 332 331 331 330 331 333 334 334 332 331 333 333 338 339 340 340
348 348 346 348 349 356 351 350 349 348 348 348 347 346 345 346 344 343 343 342 342 342 342 341 334 333 331 332 334 332 331 330 330 331 331 329 332 331 334 335 337 332 332 334 335 334 338 339 341
344 345 349 355 357 353 351 349 348 348 347 347 345 346 346 345 344 343 342 342 342 342 341 337 332 335 335 335 332 331 331 329 330 332 330 335 336 334 334 337 339 337 334 335 337 336 336 337 340
349 348 353 356 356 350 349 349 349 349 348 347 347 346 345 346 344 343 342 342 343 342 339 338 331 332 333 332 331 331 331 330 331 332 332 337 336 336 338 338 338 339 336 337 337 341 341 340 341
348 348 352 352 350 350 350 349 350 349 348 347 345 346 347 346 344 344 344 343 343 340 336 335 332 330 330 332 331 330 329 329 332 332 333 338 340 340 340 339 337 338 338 338 339 342 344 342 343
344 344 346 349 348 352 351 348 349 348 347 347 345 347 347 344 344 344 343 342 342 341 339 337 332 328 330 331 331 330 330 330 333 332 339 343 341 341 340 340 337 337 339 339 340 342 342 343 341
343 336 344 347 350 351 350 349 349 347 348 346 345 346 346 343 343 343 342 342 341 339 339 338 335 332 329 331 331 331 331 330 333 333 340 344 342 341 339 339 337 339 343 344 343 342 342 341 341
343 339 343 346 347 347 350 349 348 348 347 345 346 344 343 342 342 342 341 340 340 340 337 336 333 332 331 330 331 332 331 331 333 336 345 344 344 343 341 338 337 340 343 345 344 341 340 339 340
342 340 342 339 340 345 349 349 348 348 346 349 347 343 343 342 342 342 342 342 341 340 338 336 334 332 330 330 331 332 331 331 333 335 343 344 344 343 343 342 342 343 344 342 342 341 340 342 341
343 347 340 341 345 345 349 349 349 347 346 348 347 343 342 342 342 341 341 340 340 339 338 337 337 335 332 331 331 332 331 331 332 336 342 345 345 344 345 344 345 344 342 342 343 342 341 342 342
346 343 344 343 341 348 348 349 348 345 344 344 348 340 343 345 346 344 342 340 339 339 338 338 337 337 335 333 332 333 331 331 332 337 340 343 343 344 344 345 344 343 344 342 341 342 341 341 341
346 342 341 341 341 341 347 348 349 348 345 347 345 342 344 346 346 345 343 341 340 340 339 338 338 337 337 335 334 332 331 331 333 339 341 343 343 345 344 345 344 343 342 342 343 342 341 339 337
333 339 339 337 335 336 343 348 348 349 347 347 344 346 346 345 345 346 346 345 344 342 341 339 338 337 336 334 333 330 331 333 335 343 343 342 343 343 345 344 344 343 342 342 342 342 343 338 340
324 325 326 327 328 331 340 348 349 348 348 346 346 347 347 345 346 345 344 345 345 345 343 341 339 336 335 333 330 330 332 337 338 346 347 346 344 345 346 344 344 344 343 340 341 342 342 339 341
323 324 325 326 328 329 344 347 347 348 349 348 347 346 346 346 346 345 344 342 343 346 345 340 339 337 333 331 329 331 337 343 346 345 343 345 346 346 346 345 346 345 344 343 344 345 342 342 341
320 324 324 326 327 336 340 338 343 347 349 349 348 347 347 346 346 345 345 345 345 345 344 343 340 336 333 331 331 336 341 345 345 347 345 346 346 346 347 348 347 344 344 345 344 344 341 341 338
322 322 323 325 329 335 336 336 342 347 349 349 349 348 348 347 346 344 344 345 346 344 344 344 342 336 339 338 334 338 343 345 346 346 347 347 347 346 347 348 348 345 345 345 346 342 342 338 335
322 323 325 324 326 336 335 337 346 347 348 349 349 349 349 348 346 346 345 345 346 346 345 345 346 343 344 344 338 344 346 346 347 347 347 346 346 346 347 348 348 347 345 343 343 341 341 339 334
321 322 322 322 323 333 333 335 345 347 347 348 349 349 349 348 349 347 347 346 346 346 344 344 344 345 345 346 342 340 344 344 346 347 348 347 346 347 348 348 348 348 344 343 343 339 339 335 334
320 322 322 324 323 329 334 334 338 347 346 347 349 349 349 349 349 349 348 348 347 346 346 345 345 343 344 346 347 344 345 346 345 347 348 348 346 346 346 348 349 349 346 343 343 343 341 324 332
319 319 322 322 321 323 330 332 336 340 347 345 345 348 349 349 349 349 348 349 349 348 348 347 346 346 344 346 347 348 346 345 344 344 346 348 346 346 344 347 349 349 347 344 342 342 342 329 333
323 321 320 321 320 321 325 330 331 335 348 348 346 346 346 348 348 349 347 345 347 349 348 348 348 346 346 345 347 348 348 347 346 346 345 343 345 345 344 347 348 347 347 345 341 342 342 329 333
321 322 317 317 317 321 321 326 322 339 341 346 346 347 347 346 346 347 346 346 346 347 347 347 347 347 347 346 347 348 348 348 347 347 348 341 344 345 343 346 347 348 348 345 341 342 343 327 331
321 318 320 321 321 324 319 322 326 328 337 341 343 344 346 347 346 346 346 345 344 344 346 345 345 346 347 347 346 348 348 348 348 347 347 344 344 345 345 346 346 347 348 339 339 341 339 329 322
318 317 318 322 320 323 318 322 323 324 332 337 339 340 341 343 345 346 346 345 345 342 343 345 344 345 345 347 347 347 348 348 348 348 348 345 343 342 345 347 346 346 348 340 339 339 331 327 325
318 320 316 316 316 316 318 320 322 324 325 333 335 337 338 337 342 344 345 345 345 344 342 342 343 343 344 345 346 346 347 347 348 348 348 348 344 342 348 348 345 343 347 346 340 336 330 325 325
318 316 320 312 321 320 318 319 324 325 327 327 332 335 337 337 337 340 342 343 344 344 343 343 344 343 343 343 344 345 346 346 346 347 348 347 345 345 341 348 343 345 346 347 343 337 333 325 324
318 317 315 317 314 319 318 320 317 323 325 326 328 334 335 337 338 338 339 340 341 342 343 343 343 344 344 344 344 345 346 346 346 346 347 348 346 343 341 347 342 344 346 347 342 335 334 327 322
323 321 314 318 317 312 315 320 319 319 323 324 326 328 331 333 334 338 338 339 341 342 342 342 343 343 343 343 344 345 345 345 346 346 346 347 349 341 342 344 342 345 347 346 337 331 330 334 325

GFSSGP_850_thetae_033.txt.gz
Theta_e
346 349 349 348 355 354 357 356 352 352 351 348 347 347 347 347 347 351 347 346 345 344 344 344 345 345 344 342 339 340 336 333 330 331 331 331 332 333 333 333 332 339 341 340 340 339 339 338 337
347 348 349 346 355 360 357 352 353 350 349 347 347 346 347 348 346 346 348 348 344 344 343 343 343 342 339 339 337 333 332 331 331 331 331 330 331 333 334 334 334 343 336 339 340 339 339 340 339
348 349 349 351 354 358 355 352 351 348 347 347 348 347 346 347 345 345 347 345 343 343 344 338 339 335 333 333 332 331 331 331 331 331 329 330 331 334 336 336 338 342 339 335 334 336 338 340 341
348 346 350 357 356 353 352 351 349 350 349 348 347 348 346 346 346 344 345 343 343 342 341 335 333 329 330 333 332 330 330 330 331 330 333 334 333 335 338 339 343 340 335 336 336 337 337 341 342
344 348 355 356 354 351 350 349 350 350 349 347 347 347 346 346 344 342 343 343 344 344 339 335 330 329 333 333 331 331 329 330 332 331 337 336 336 337 338 339 341 341 338 337 342 343 342 342 343
352 349 352 352 351 350 350 349 350 350 349 346 346 346 347 345 343 343 343 344 344 344 343 341 334 334 334 331 331 330 330 331 332 334 337 338 339 339 339 338 339 339 338 339 343 343 343 340 340
347 347 347 348 350 353 352 350 351 350 348 346 346 347 346 346 344 343 343 343 344 344 343 343 334 333 332 331 331 329 330 332 332 334 339 341 341 340 340 338 337 338 338 340 342 343 342 342 340
345 342 345 347 351 352 351 350 350 348 348 346 346 348 346 346 344 343 343 344 344 343 342 336 334 332 331 331 330 329 330 332 332 336 343 342 341 340 339 337 338 342 343 343 342 340 339 341 340
345 345 350 346 349 348 351 351 349 348 347 345 347 346 345 346 345 344 344 344 343 342 337 333 330 330 330 331 331 330 330 332 333 340 342 343 343 340 339 337 339 342 344 344 343 340 340 340 339
343 350 348 343 345 343 350 350 349 349 346 346 347 346 344 346 346 345 345 345 345 344 342 338 333 329 329 331 331 332 331 331 333 341 343 345 343 342 341 340 340 342 343 341 341 341 341 341 341
350 351 347 342 344 346 350 350 349 349 348 346 348 346 346 346 346 345 345 344 344 343 341 336 335 334 331 330 331 332 331 331 333 335 343 344 343 345 344 344 343 344 342 343 343 342 341 341 342
350 348 347 345 344 348 350 350 350 348 345 344 347 346 346 346 345 345 344 343 344 343 337 336 334 332 331 330 330 332 331 331 332 335 341 345 344 345 344 345 343 342 343 341 341 341 340 340 339
352 347 343 344 343 341 348 350 350 349 346 346 347 346 346 345 345 345 345 344 342 340 337 337 336 335 332 331 331 332 332 331 332 336 339 343 344 344 343 344 343 342 341 341 342 342 342 339 337
338 343 339 332 334 336 342 344 349 349 347 348 347 346 346 345 345 345 345 343 340 338 338 337 337 337 335 333 332 332 331 331 332 338 341 342 343 344 345 345 343 343 342 341 341 340 341 338 339
327 327 328 328 329 331 334 341 349 348 349 348 347 346 346 345 346 346 343 341 338 338 338 338 337 337 336 336 335 333 331 331 333 341 343 343 343 344 345 345 343 343 343 343 341 342 342 340 340
326 327 330 329 329 330 335 336 342 348 349 348 347 346 347 346 346 347 347 345 340 339 339 339 338 337 336 335 334 332 330 332 334 343 346 346 344 345 346 345 346 344 344 342 343 344 343 341 342
324 327 329 330 329 334 338 336 339 348 349 349 348 347 347 347 348 348 347 343 342 342 341 341 341 338 336 334 333 330 330 333 342 344 345 343 345 345 345 347 347 345 344 343 344 346 342 341 338
324 325 326 329 331 336 338 340 341 347 349 350 348 347 347 347 347 347 347 346 343 343 344 343 341 339 337 334 332 330 331 336 343 346 346 345 346 347 346 347 347 347 345 345 345 344 342 338 336
323 324 328 328 328 336 337 339 341 347 349 350 350 348 347 347 347 347 347 348 345 343 343 344 343 339 338 335 332 330 335 336 344 344 343 346 346 347 346 347 348 348 346 344 343 342 342 340 332
322 323 326 327 327 329 332 338 339 347 349 349 350 350 349 348 347 347 347 348 347 344 344 344 343 342 336 335 336 333 334 339 345 344 347 346 346 346 346 347 347 348 348 345 343 342 339 340 332
324 323 324 326 327 328 332 333 337 344 347 348 350 350 349 349 348 348 348 348 347 345 343 343 342 343 340 342 342 338 337 340 345 345 347 347 347 346 347 346 347 349 349 347 343 343 343 341 327
324 323 323 324 326 330 332 335 337 339 349 349 348 350 350 349 349 349 348 349 347 345 345 344 343 344 344 344 345 345 339 340 342 344 344 346 348 347 346 346 346 348 349 348 346 343 342 342 332
324 324 323 324 327 328 329 332 334 339 347 349 348 349 349 349 350 350 350 344 346 347 345 346 345 344 345 344 344 345 346 345 344 345 344 344 346 347 347 345 345 347 346 346 347 341 341 342 331
325 325 325 325 326 328 329 330 333 335 339 344 347 347 348 349 349 350 350 349 349 345 346 346 347 346 345 345 345 344 346 347 347 346 345 345 345 346 345 346 344 347 348 347 348 342 341 342 329
325 325 327 327 327 327 330 330 332 333 335 336 343 346 347 347 349 350 351 350 347 348 343 344 346 347 348 347 346 345 345 346 347 347 347 346 347 343 343 345 343 345 345 347 348 341 341 341 328
325 325 324 326 326 326 328 330 331 330 330 334 336 341 346 347 347 348 348 348 346 346 346 344 343 343 345 347 347 347 346 345 347 348 347 347 347 343 342 343 342 342 346 346 348 336 339 338 329
324 327 325 324 322 324 327 328 328 329 331 333 336 338 342 344 346 347 347 346 345 345 345 343 341 341 343 343 344 346 347 346 346 347 347 348 348 347 343 343 344 344 345 346 348 339 337 333 327
324 324 323 325 324 325 326 327 329 333 332 332 334 336 338 340 342 345 347 347 346 345 345 345 342 338 338 342 342 343 344 346 347 346 347 347 348 348 347 344 342 344 345 344 347 346 338 333 328
322 325 324 325 324 324 324 325 328 332 336 335 334 333 335 337 338 340 342 343 344 346 345 345 345 343 341 339 341 342 343 344 346 346 346 346 347 348 348 346 343 347 342 343 346 347 342 333 329
324 325 325 325 327 325 325 325 326 328 330 333 332 332 334 337 336 337 337 341 344 345 345 344 344 344 344 342 341 341 341 342 344 345 345 346 346 347 348 345 343 341 345 341 345 346 343 332 328

GFSSGP_850_thetae_036.txt.gz
Theta_e
347 348 349 351 358 357 357 357 352 353 353 350 348 349 348 349 350 354 347 347 342 341 342 344 343 344 342 342 338 335 334 331 330 331 331 332 333 333 333 335 341 341 340 340 339 340 339 338 335
353 352 348 350 360 359 357 354 354 353 351 350 349 349 349 351 348 347 347 346 344 344 345 345 343 343 342 338 337 335 332 331 331 331 331 332 333 334 334 338 343 340 338 341 339 339 340 338 340
353 352 353 356 356 357 356 353 354 352 350 350 350 350 350 350 349 348 346 346 345 347 350 346 345 343 338 338 336 332 330 331 331 331 330 331 334 336 339 342 342 339 335 335 336 338 340 341 341
352 352 351 360 354 353 353 353 351 351 350 349 350 351 348 349 349 349 347 345 349 349 350 345 343 340 337 336 332 331 331 332 331 330 332 332 335 338 340 342 341 336 336 338 338 339 341 343 343
350 350 358 359 352 352 352 351 351 352 351 350 349 350 348 348 349 350 348 348 348 347 349 344 338 336 333 332 331 330 331 332 330 335 335 334 336 338 339 341 341 337 339 343 342 342 342 342 343
354 351 355 351 351 352 352 351 351 351 351 349 349 349 351 349 348 349 348 347 347 347 345 344 331 331 333 331 331 329 330 332 332 337 337 337 339 338 338 338 338 338 341 343 343 343 342 338 340
354 350 351 349 351 352 353 351 351 350 349 348 348 352 349 348 349 347 347 347 347 345 344 344 342 336 333 331 330 329 331 332 333 338 340 340 340 339 337 337 338 338 341 342 343 342 342 341 340
353 347 350 350 351 354 352 351 351 349 349 348 348 351 350 348 348 348 347 347 347 345 343 344 345 345 344 333 331 331 332 332 333 341 340 341 341 340 338 338 340 342 342 342 340 339 341 340 340
349 350 350 348 350 349 352 352 350 348 348 347 348 349 348 348 348 348 348 348 347 345 343 343 344 345 346 345 332 330 331 333 333 343 343 345 350 350 349 342 341 344 344 343 340 341 340 340 339
350 350 348 345 344 345 350 351 351 349 347 347 349 348 348 347 348 347 348 348 348 345 343 343 343 344 346 344 343 344 343 343 346 349 348 352 350 348 348 344 340 343 342 341 341 340 343 347 346
348 349 347 343 343 348 349 351 350 349 348 347 349 348 348 347 348 348 348 348 347 345 344 343 344 346 346 345 346 346 345 346 347 347 349 351 351 351 351 351 349 350 345 349 348 349 345 347 343
351 347 347 344 343 345 350 350 351 349 346 346 349 348 349 348 349 348 348 347 347 346 345 345 345 346 346 345 345 345 344 344 344 345 342 348 350 351 351 351 350 349 349 344 345 343 345 348 344
349 347 343 343 343 342 343 347 347 350 346 346 348 348 349 349 348 348 347 347 347 347 347 347 347 347 347 346 345 345 345 343 343 345 344 350 350 352 351 350 350 349 344 344 347 346 344 346 343
343 344 342 338 337 337 339 343 345 346 348 348 348 348 348 348 348 347 346 346 346 346 346 346 347 347 345 345 345 346 346 345 344 344 346 342 349 348 348 351 349 349 350 351 344 346 344 344 344
340 335 334 334 333 334 335 338 340 344 349 350 349 348 348 347 347 347 346 346 346 346 347 347 348 347 341 337 333 343 345 344 344 344 343 341 342 344 344 348 350 349 345 344 347 342 344 344 341
334 331 334 335 334 332 334 339 339 343 348 351 350 349 348 347 347 347 347 346 346 347 347 347 347 347 346 347 337 343 346 345 344 344 347 344 344 344 345 352 350 352 346 347 346 347 347 344 341
330 336 337 337 334 335 335 339 340 342 348 350 350 349 348 347 347 346 346 346 346 347 347 348 348 348 348 344 346 344 346 344 343 344 347 346 345 345 345 352 351 348 351 349 349 348 345 341 340
334 333 335 338 336 335 338 339 338 343 347 349 350 350 349 348 347 347 347 347 347 347 348 349 348 349 349 348 342 347 345 344 343 345 347 345 343 345 345 352 347 349 351 350 350 348 344 340 337
332 333 334 335 335 334 336 338 338 343 347 348 350 350 350 349 348 347 348 347 348 349 349 350 350 347 346 345 347 346 344 343 343 346 346 345 345 346 347 352 351 345 349 350 350 347 346 341 337
329 329 332 334 333 332 336 338 338 343 347 348 349 349 350 350 349 348 348 348 348 349 350 352 350 347 341 348 345 345 343 342 343 347 349 343 345 346 346 347 354 353 352 347 349 345 344 342 336
327 329 331 332 333 332 333 336 337 338 344 346 348 349 349 350 350 348 347 347 348 349 350 351 348 346 342 347 348 346 344 343 344 347 351 351 346 347 346 345 349 353 348 352 349 347 345 343 337
328 327 328 329 331 333 335 339 339 338 341 343 344 349 349 350 350 349 347 347 348 350 351 351 349 345 346 342 347 344 344 344 344 347 350 351 348 349 347 346 346 345 353 353 350 349 346 342 339
325 326 327 328 328 331 333 335 337 338 339 341 343 345 349 350 350 350 349 346 347 349 350 352 351 343 346 343 344 346 347 346 346 348 350 351 352 348 352 348 346 346 345 348 347 347 342 346 339
325 326 326 327 327 331 333 335 337 338 339 339 341 344 347 349 349 350 350 348 347 348 351 353 352 343 343 343 343 344 348 349 349 350 351 352 352 352 349 353 346 345 348 348 349 347 342 343 340
325 327 328 327 328 329 332 334 336 336 337 338 339 341 346 349 349 350 351 351 349 348 350 353 354 346 344 344 344 344 344 345 350 353 353 352 351 350 350 348 345 349 345 347 347 347 344 338 339
326 327 327 329 328 328 330 333 335 335 334 334 335 336 342 347 349 349 350 352 352 351 349 350 350 345 346 346 345 345 345 348 351 352 353 354 351 350 351 352 344 344 344 344 345 349 343 342 334
328 328 327 327 328 329 329 330 331 333 334 335 334 335 337 345 348 349 350 351 353 354 353 351 346 339 343 345 346 347 346 346 352 351 350 354 353 352 353 352 344 349 342 341 344 348 342 339 330
328 327 327 327 329 329 328 330 332 333 333 334 335 336 336 340 346 347 349 350 352 353 354 354 345 340 336 340 343 345 347 347 347 347 347 349 353 351 353 353 349 351 349 343 343 349 348 334 329
327 328 328 328 328 329 329 329 331 332 334 334 335 335 336 339 343 346 346 347 349 351 353 354 355 348 344 340 338 340 342 344 344 346 346 346 347 349 348 349 347 350 352 348 341 345 351 338 330
327 327 328 328 330 328 329 329 329 330 331 334 333 334 335 336 338 341 343 345 347 349 350 351 353 355 353 344 340 337 338 340 341 342 344 345 346 346 347 348 348 347 348 352 342 339 349 343 337

GFSSGP_850_thetae_039.txt.gz
Theta_e
347 348 351 352 360 360 358 354 352 354 353 349 347 349 351 349 352 356 343 343 339 335 338 344 341 340 342 343 340 331 331 332 332 332 332 333 335 334 335 340 341 340 340 339 340 339 337 336 337
350 353 353 353 361 364 356 353 353 353 351 350 350 349 351 352 349 346 341 343 335 336 347 347 342 341 342 343 337 334 332 331 331 332 332 334 335 334 339 344 341 336 343 339 339 340 338 340 341
353 351 354 359 359 361 355 353 353 351 351 350 351 351 352 352 349 345 343 342 337 343 350 345 341 342 342 337 336 335 331 331 331 331 332 334 335 338 340 342 338 335 334 336 337 340 341 341 342
353 354 355 360 361 353 352 352 351 351 350 350 351 352 351 352 350 349 349 343 344 351 350 342 343 342 337 337 334 332 331 331 331 331 331 334 338 342 342 339 336 337 340 340 340 341 343 343 342
354 353 359 362 353 350 351 350 351 352 351 350 351 352 351 350 351 350 346 347 349 350 350 344 343 338 337 333 332 331 331 331 331 334 333 335 338 339 339 339 337 342 343 342 341 341 342 343 343
355 353 359 357 351 349 349 349 349 351 351 351 351 351 351 351 351 349 349 349 350 350 348 347 343 337 334 332 331 331 332 331 336 336 335 338 338 338 338 338 339 342 343 343 342 342 338 340 340
355 357 357 353 350 351 350 348 348 350 350 351 351 354 351 352 351 348 349 348 348 349 349 348 345 335 332 331 330 330 332 332 337 338 339 340 339 337 337 338 338 342 342 343 340 341 340 339 339
356 353 350 350 348 349 347 348 347 348 350 350 351 354 352 352 350 349 348 348 348 347 345 343 345 345 346 334 329 330 332 332 338 340 341 339 339 337 339 339 341 342 342 340 339 339 340 339 337
353 355 352 346 347 348 346 346 346 348 349 349 350 351 350 350 350 348 348 347 347 345 342 342 343 346 347 347 331 331 332 332 340 342 340 347 350 347 349 343 342 343 343 340 341 340 340 341 335
351 355 350 345 345 346 347 344 345 347 348 348 350 351 350 350 348 349 348 348 347 345 342 342 343 345 346 344 336 344 344 344 347 349 343 350 351 350 351 342 341 341 341 341 340 342 346 347 342
348 351 349 344 345 345 345 346 344 345 348 348 351 351 349 350 350 349 349 348 346 345 342 343 345 345 345 344 344 346 344 346 349 350 350 350 350 349 348 349 347 348 347 347 348 344 348 343 344
348 346 347 344 344 347 347 346 346 344 343 347 349 350 349 349 349 350 350 349 347 344 343 342 345 346 345 346 344 345 344 346 346 348 345 351 351 350 351 350 350 349 348 347 347 347 347 343 344
346 347 346 346 344 344 346 347 350 346 343 345 348 349 349 349 349 348 348 347 346 345 343 343 345 347 347 348 345 345 345 344 344 347 348 352 350 350 349 349 349 350 347 347 346 348 344 344 344
344 345 346 343 343 342 343 344 344 348 346 348 348 350 349 349 349 348 348 347 345 344 344 344 346 348 349 347 348 346 345 345 345 345 347 342 350 349 352 350 348 349 349 347 346 345 342 347 346
343 344 346 345 342 339 340 342 345 347 348 349 349 348 349 349 348 347 347 346 345 345 345 346 347 349 349 349 349 348 346 346 345 345 348 350 346 348 350 350 348 348 348 344 348 343 350 345 342
343 343 344 341 340 338 338 341 340 343 350 350 350 349 348 348 348 347 347 347 346 345 347 347 346 348 349 349 349 348 346 345 345 345 348 347 345 350 346 350 352 349 348 348 347 345 346 346 341
337 343 344 340 339 339 338 340 340 341 347 351 351 350 348 347 348 348 347 346 346 347 348 348 348 348 349 350 349 349 346 347 345 345 346 349 347 349 350 351 353 347 350 347 347 346 343 338 340
336 340 340 340 339 338 338 339 341 341 345 348 351 351 350 348 347 348 347 346 346 347 349 350 349 348 349 350 350 349 347 347 346 345 346 350 351 351 347 351 351 348 352 349 349 346 342 339 337
335 338 339 341 339 339 339 340 340 341 345 347 350 351 351 349 347 346 347 347 346 347 349 350 350 349 350 350 350 348 347 347 346 345 346 350 352 353 350 354 353 349 348 348 347 348 342 342 337
338 338 340 339 338 339 339 340 339 341 345 347 349 350 350 350 349 347 347 347 346 347 349 350 351 350 350 350 349 348 346 345 345 344 347 351 354 354 354 351 353 351 352 351 349 345 345 343 338
335 336 337 338 338 338 338 339 340 340 343 347 348 349 350 350 350 349 347 347 347 348 349 351 351 351 350 351 350 349 347 345 344 344 347 351 353 355 351 354 348 353 350 351 352 349 345 345 337
331 332 334 334 337 340 337 339 339 339 342 345 348 348 349 350 350 350 348 347 347 348 350 351 351 351 351 348 350 349 346 344 344 344 345 351 353 355 356 353 347 352 352 352 351 349 350 341 341
328 329 331 332 334 336 338 340 339 339 340 343 344 346 348 348 350 351 350 348 346 348 349 352 353 353 353 351 348 350 348 345 345 345 346 349 353 354 354 356 356 350 345 350 349 353 342 348 344
328 328 329 331 332 335 336 337 339 338 340 341 341 341 345 348 349 350 350 349 347 347 349 351 353 352 352 352 346 350 350 346 347 347 348 351 352 355 353 355 354 351 353 353 352 352 352 345 345
327 328 328 329 332 333 334 336 337 338 338 339 340 341 341 346 349 350 350 350 348 346 348 350 353 354 354 351 352 343 346 346 351 348 350 350 350 349 351 349 352 353 350 354 351 352 353 346 347
327 327 328 330 330 330 332 336 336 336 337 337 338 339 341 343 348 350 351 350 349 347 348 349 352 353 351 345 346 343 341 352 352 352 352 352 350 349 349 351 352 351 356 352 353 353 353 352 343
329 330 328 329 331 330 330 332 333 335 336 337 338 338 339 342 347 349 350 351 351 349 349 350 351 351 344 342 343 343 343 343 354 354 352 356 354 350 350 352 355 355 354 353 353 353 353 350 343
330 330 328 329 333 332 331 333 333 334 336 337 338 338 337 340 345 349 349 351 352 352 350 350 352 354 344 343 344 344 344 344 345 353 353 356 355 354 353 352 354 354 354 353 351 352 353 349 347
329 331 329 329 330 331 333 333 333 335 336 335 337 336 336 337 343 348 349 350 352 353 353 353 353 355 354 345 346 347 345 345 345 346 348 349 351 355 351 355 352 351 353 353 351 351 352 351 337
329 330 331 331 333 330 332 333 332 333 334 335 335 336 336 337 340 346 347 349 350 352 354 355 356 356 357 355 348 344 343 343 344 345 347 347 347 348 352 352 353 351 349 353 352 352 350 353 344

GFSSGP_850_thetae_042.txt.gz
Theta_e
345 347 351 351 362 360 363 359 354 355 353 348 350 350 352 350 351 356 346 343 341 343 341 336 338 341 340 337 336 331 332 337 336 332 334 340 333 334 337 338 339 340 339 339 339 337 337 339 339
349 350 353 354 363 364 361 355 356 353 351 350 351 351 352 353 349 346 346 341 341 345 344 337 338 341 342 339 332 332 332 333 332 332 341 334 334 338 343 337 335 341 338 339 340 339 339 341 340
352 353 353 358 360 362 361 354 353 352 351 352 352 352 353 351 347 345 345 340 343 346 347 339 341 343 343 339 334 332 331 331 332 332 334 335 336 341 340 335 334 335 336 337 340 341 341 342 340
353 354 354 362 360 355 355 353 352 352 351 352 351 353 352 350 345 346 341 337 343 347 348 341 342 343 342 335 334 331 331 331 330 331 333 337 338 341 337 336 340 341 340 341 342 344 344 342 339
355 353 354 355 359 353 351 350 352 352 351 352 352 353 350 348 346 346 338 335 346 347 349 341 342 342 337 335 332 331 331 330 333 332 334 337 338 339 338 338 342 342 340 339 339 340 342 343 340
355 346 355 356 353 349 350 350 351 351 353 353 351 351 351 351 349 347 338 342 351 350 348 342 343 339 335 331 331 331 331 332 336 334 335 337 337 338 338 339 343 343 342 341 338 337 339 338 338
355 351 357 355 351 351 350 349 349 349 352 353 352 354 351 350 350 345 346 349 349 348 349 346 343 337 332 330 331 331 331 336 336 336 338 338 337 337 337 339 342 341 342 340 340 339 338 338 338
354 356 360 357 351 351 349 346 347 350 353 352 351 353 352 350 348 350 349 349 349 348 350 348 343 335 331 330 330 331 331 337 338 340 340 339 337 340 338 340 341 340 339 338 340 338 335 335 337
349 359 361 351 348 347 346 349 349 348 353 352 353 352 352 350 348 349 349 348 350 349 347 346 346 346 341 332 329 331 332 336 340 340 341 346 349 350 344 341 342 342 340 341 340 343 341 335 336
350 353 353 348 345 347 345 344 347 347 348 352 352 353 351 350 349 349 349 349 348 347 344 343 345 347 345 346 330 331 332 334 346 347 333 346 349 349 348 340 342 341 341 341 339 345 343 342 341
348 351 347 348 345 346 346 344 345 346 348 352 353 352 352 350 349 349 348 348 346 345 341 343 344 346 345 345 332 338 341 346 347 344 348 346 350 347 348 347 344 337 343 345 346 347 345 345 346
348 344 345 346 346 347 347 346 345 344 346 352 352 351 351 350 349 349 348 348 347 344 342 344 344 344 344 346 342 345 345 347 348 350 347 350 347 349 344 347 349 346 348 348 347 347 341 345 344
345 345 346 345 346 346 344 346 343 344 346 350 351 351 350 350 349 349 349 348 346 345 343 344 346 342 344 348 342 345 345 346 346 347 344 348 348 350 349 349 349 350 349 348 349 345 346 342 342
344 344 346 347 344 347 348 347 344 344 344 348 350 350 350 349 350 350 349 348 348 345 344 344 346 344 346 348 345 346 344 342 346 346 347 344 352 351 350 349 348 350 347 344 347 345 347 347 343
342 344 345 346 343 343 341 350 349 344 345 346 349 350 348 348 352 350 349 349 347 344 343 344 345 347 345 346 347 346 346 347 344 346 346 345 347 351 350 351 350 350 349 346 346 345 342 344 344
342 344 347 345 345 342 340 343 349 345 347 348 348 349 349 347 346 348 349 346 346 344 344 345 347 349 345 345 346 344 348 345 346 345 347 344 340 349 345 344 348 352 348 345 345 347 347 346 338
343 345 347 346 344 343 340 340 340 348 347 349 349 348 348 349 347 347 346 346 345 344 345 346 346 348 348 348 347 345 346 347 346 346 347 347 343 343 346 351 340 349 350 347 346 346 345 338 341
344 342 344 345 342 341 341 339 342 341 349 350 350 349 348 348 348 347 346 346 345 346 345 346 346 348 348 347 348 349 347 347 348 346 346 347 348 344 344 351 350 350 350 349 345 343 339 340 338
341 340 339 342 343 340 340 340 342 341 343 350 350 351 349 348 348 348 347 346 347 346 347 347 347 347 349 349 349 350 347 347 347 347 345 347 349 347 344 347 354 347 346 349 346 345 342 342 337
340 339 336 339 340 341 340 340 339 343 344 350 351 352 351 349 348 348 348 347 346 347 348 348 347 348 350 348 349 347 349 347 347 346 346 345 348 348 347 346 352 351 350 347 346 347 345 343 339
339 339 337 338 341 341 341 341 341 341 340 345 349 350 351 350 349 348 348 347 347 348 348 349 349 349 349 349 350 349 348 347 347 346 344 346 348 350 348 350 349 352 352 349 347 339 347 342 340
338 339 338 338 340 342 340 342 344 340 342 346 347 349 351 351 350 348 348 348 347 348 348 348 349 349 349 349 351 350 347 347 347 346 345 346 347 346 354 350 347 346 347 352 349 348 346 346 341
332 333 337 337 337 338 339 340 340 340 341 346 347 348 349 351 350 350 348 348 348 347 350 348 348 349 350 347 352 350 350 346 345 345 344 345 349 352 349 351 349 346 345 353 351 352 343 343 346
329 332 333 333 335 338 336 339 342 341 342 341 344 348 348 350 351 351 350 348 348 348 351 351 349 350 349 348 345 353 349 348 345 345 345 345 350 354 351 354 353 349 345 352 352 349 343 346 343
328 328 330 331 334 334 335 336 340 339 341 341 345 343 348 348 350 352 352 350 348 349 350 352 350 351 350 348 341 344 352 350 346 346 346 347 350 351 353 349 354 354 347 347 352 346 344 341 344
328 328 329 333 332 331 333 336 337 337 338 338 341 341 343 346 349 351 353 352 349 349 350 352 352 351 351 349 344 339 345 351 344 346 350 348 350 352 351 350 349 347 346 347 350 346 349 346 337
328 329 328 328 330 330 331 332 333 337 337 338 337 340 342 344 347 349 353 352 351 349 349 350 352 350 350 346 343 341 340 342 339 345 348 352 350 352 350 349 350 350 350 347 349 351 346 350 347
329 329 328 329 332 334 331 336 335 336 339 338 339 339 341 343 345 350 352 353 352 349 349 350 351 350 348 347 340 336 334 337 339 340 350 350 355 350 353 350 350 350 350 348 353 348 349 351 349
329 330 329 328 329 331 333 334 337 339 338 339 339 338 339 343 345 348 352 353 353 351 350 350 352 354 353 351 344 341 339 340 339 340 343 350 352 358 349 356 352 351 350 346 349 348 352 346 348
330 329 331 333 335 332 334 333 334 336 338 338 338 338 337 340 345 347 350 352 353 353 352 351 352 354 354 351 349 343 340 341 342 342 343 344 349 350 356 351 356 354 353 343 345 343 347 353 350

GFSSGP_850_thetae_045.txt.gz
Theta_e
342 347 350 352 356 356 362 359 355 355 354 352 349 350 352 351 350 351 344 343 338 337 333 332 334 333 334 332 331 332 335 333 333 336 333 331 334 335 336 338 339 338 339 338 337 337 339 328 325
345 350 352 352 364 363 361 355 356 353 350 350 351 351 351 351 347 347 343 341 336 335 332 333 334 335 335 333 331 336 334 332 333 341 333 332 337 337 334 340 340 338 339 339 338 339 341 340 334
350 351 352 355 358 362 361 354 353 351 351 353 352 352 352 348 347 345 342 338 337 336 337 339 339 336 334 331 333 333 331 331 333 334 335 335 338 335 334 335 336 336 339 340 340 341 341 338 340
352 352 352 360 362 357 355 353 352 352 352 352 352 352 348 348 346 345 340 338 344 339 337 339 341 340 333 331 331 331 331 330 331 334 336 337 339 336 338 340 340 340 341 343 343 343 342 338 337
354 351 351 353 354 355 352 351 351 353 352 352 352 348 345 345 345 341 341 347 348 343 337 341 341 342 334 331 330 331 330 332 332 334 337 336 338 337 341 341 340 339 338 337 338 340 340 339 337
354 347 356 357 354 351 350 351 352 352 353 350 349 350 347 346 345 340 345 347 345 345 340 340 342 337 333 330 331 331 330 335 334 334 336 337 337 338 342 342 342 340 338 337 335 336 336 337 338
352 346 348 354 356 354 352 351 352 353 352 351 350 351 347 346 341 343 346 346 346 345 340 340 339 335 332 330 331 331 334 336 335 338 337 337 337 337 340 341 341 339 338 337 336 336 337 338 338
353 341 346 353 357 353 349 350 352 353 352 352 351 351 349 348 338 340 347 347 349 347 340 338 335 332 330 330 331 331 336 336 338 339 337 336 339 338 340 340 340 338 337 337 336 337 336 339 343
353 355 358 355 349 348 347 351 352 352 352 352 351 350 349 349 338 345 346 348 350 348 341 335 333 330 330 329 330 331 336 338 339 338 344 346 348 346 341 341 342 340 340 339 343 339 333 337 343
348 352 354 348 347 346 344 346 353 353 353 352 351 350 348 345 347 349 348 349 349 349 345 335 332 330 330 328 330 332 333 341 339 341 341 343 346 346 346 340 341 340 340 340 342 343 343 342 341
348 353 347 347 346 347 345 345 345 352 355 352 352 349 348 350 348 349 349 349 349 348 346 339 334 333 332 329 330 332 339 345 339 339 341 343 344 347 346 342 340 341 343 346 346 342 345 347 344
348 348 345 345 344 347 346 344 345 352 354 352 352 349 348 350 346 348 347 349 348 347 343 342 341 340 342 338 332 341 345 343 346 344 341 343 335 341 342 343 346 343 344 347 346 343 345 345 338
344 345 345 345 343 346 344 343 346 353 354 351 350 349 349 348 347 348 348 348 347 344 341 342 342 339 345 346 342 345 344 346 348 347 344 343 346 348 349 348 348 344 346 345 344 345 345 343 340
343 345 345 344 342 345 342 344 344 353 352 352 351 349 350 348 348 349 348 346 345 345 342 343 343 340 343 347 343 345 346 346 347 347 345 344 342 348 348 348 348 347 345 346 346 343 343 339 338
342 344 346 346 346 347 345 346 345 352 351 351 351 350 350 348 347 348 346 348 345 345 343 344 344 342 344 347 347 346 346 344 346 347 347 347 343 347 347 350 348 346 346 344 344 345 341 339 342
340 342 343 344 344 345 346 349 346 349 351 351 351 351 350 349 348 348 345 346 346 345 344 345 345 345 341 345 346 346 345 345 345 343 346 346 341 347 347 348 344 346 349 345 343 346 344 342 336
337 342 341 344 342 344 346 347 346 345 350 351 351 351 350 349 350 348 344 343 347 348 344 344 344 344 344 341 342 344 345 345 345 347 345 346 342 341 344 345 345 349 348 346 346 346 345 340 337
338 340 340 343 344 344 341 338 345 345 346 349 350 349 349 351 350 349 348 345 346 347 343 344 344 345 345 344 338 340 345 343 345 347 346 346 347 345 342 347 348 346 348 346 344 342 340 339 339
338 341 341 340 343 342 341 337 347 344 348 349 349 349 349 348 349 350 349 348 348 345 343 343 344 346 347 347 340 338 337 344 346 347 347 345 347 348 344 345 351 347 350 347 342 340 340 337 339
336 339 341 339 338 340 338 338 339 345 349 349 349 349 349 348 348 348 347 348 346 345 344 344 344 346 346 347 346 339 338 340 341 346 347 346 346 346 346 344 350 347 349 348 344 343 343 339 338
333 337 338 338 335 336 339 339 339 346 347 343 346 348 349 349 348 348 346 346 346 345 344 344 345 345 344 346 347 345 342 347 346 346 345 347 346 345 345 345 346 349 351 349 346 345 345 340 340
333 335 338 339 337 340 340 341 338 339 347 348 351 351 347 348 348 348 346 346 346 346 346 345 345 345 344 345 348 347 340 345 346 347 346 344 345 344 344 347 347 351 349 349 349 343 347 342 340
334 333 335 337 338 337 340 340 339 336 339 349 351 349 346 349 348 348 347 347 347 347 347 346 346 347 346 346 347 346 342 343 345 348 347 345 344 346 348 346 350 345 348 347 350 347 343 344 341
333 332 331 335 336 338 334 340 340 338 338 349 349 349 348 350 349 348 348 347 347 347 348 347 347 347 347 346 347 346 343 344 345 345 347 345 344 345 349 351 351 350 346 345 351 350 348 340 343
331 329 329 330 333 336 330 332 332 336 336 339 345 348 348 349 346 349 349 348 348 347 348 348 347 347 347 346 345 346 341 344 342 342 343 345 345 345 350 353 350 349 348 343 350 351 347 341 341
331 329 327 331 332 332 328 330 331 331 334 337 344 348 348 348 350 350 349 348 347 348 347 348 347 347 347 347 344 343 345 345 344 340 342 344 345 346 346 349 351 348 345 347 344 350 347 339 335
327 327 324 323 326 326 327 327 328 329 331 331 336 347 347 347 350 350 349 349 348 348 348 348 348 347 347 347 346 340 340 341 340 341 342 345 346 348 350 352 351 350 349 347 344 341 344 342 342
325 324 324 323 324 326 327 328 329 328 328 330 331 340 346 348 351 351 350 349 348 347 347 349 348 348 347 348 348 339 335 339 340 338 338 344 347 347 352 354 352 350 349 349 349 344 343 345 342
325 325 324 322 322 325 328 329 328 329 329 330 331 335 341 347 351 353 352 350 350 349 348 348 349 349 349 348 349 348 341 337 338 338 334 338 347 349 349 352 353 351 349 349 349 342 346 345 346
327 325 324 325 324 323 323 327 330 331 330 330 332 334 340 345 350 353 352 351 351 350 349 348 348 349 349 348 347 347 346 340 338 338 335 334 338 347 349 348 350 354 353 350 350 344 338 345 344

GFSSGP_850_thetae_048.txt.gz
Theta_e
341 344 349 351 353 356 360 358 354 355 354 353 348 348 351 348 351 351 343 342 340 339 340 340 335 332 330 329 331 333 332 333 333 331 333 335 336 337 338 338 339 340 338 336 336 336 331 327 336
345 349 351 351 362 362 360 354 356 354 352 351 351 351 351 349 347 344 344 340 339 337 339 336 333 331 329 331 333 332 332 336 333 332 342 344 334 336 344 339 341 339 338 337 340 341 339 328 337
347 351 351 354 355 362 360 353 353 351 351 352 352 351 350 348 346 343 342 338 334 333 334 333 332 330 329 331 336 331 332 335 334 334 344 338 334 334 335 336 337 339 340 340 340 339 339 333 338
350 351 351 356 357 356 356 354 351 351 352 352 350 348 347 347 343 343 338 336 332 333 334 335 333 330 329 331 330 331 331 333 335 340 344 335 336 340 340 340 340 342 342 343 343 341 337 336 335
353 350 350 354 354 352 351 351 351 352 352 352 349 346 347 345 344 341 338 335 333 337 338 336 333 329 330 330 330 330 331 332 336 336 338 337 339 340 339 338 338 337 336 339 339 337 338 336 337
353 347 354 356 354 352 351 351 353 352 350 347 346 346 346 346 342 340 342 337 336 338 340 339 339 330 330 330 330 331 334 333 336 336 336 337 339 341 341 340 337 336 335 335 335 337 336 337 337
346 347 350 350 354 354 353 346 353 351 351 349 348 347 345 344 341 346 345 344 337 338 340 339 336 331 330 330 330 333 335 334 337 336 337 336 338 341 339 340 338 336 336 336 336 337 338 338 339
345 344 350 352 353 354 349 351 352 352 351 350 346 346 345 342 346 349 348 347 344 339 338 337 331 330 330 331 331 335 335 337 337 335 336 336 337 339 339 339 338 337 337 337 336 336 342 341 339
346 352 353 354 352 351 348 352 352 351 351 350 350 346 345 342 346 348 349 346 346 341 339 335 330 330 330 331 331 335 338 338 338 337 343 340 340 339 341 340 339 339 339 342 338 334 339 342 341
353 352 351 348 347 347 348 351 352 351 352 350 348 344 342 345 346 347 347 345 346 343 339 332 330 329 329 330 331 337 338 338 340 343 344 344 341 339 340 341 340 339 339 342 344 339 338 341 342
352 351 349 347 347 347 345 352 353 352 352 349 348 346 340 338 343 348 346 348 346 342 339 332 330 329 328 330 331 336 340 337 333 339 342 344 345 340 341 341 338 340 343 342 343 344 346 346 344
348 348 347 345 344 345 346 345 353 353 351 350 347 346 340 339 344 345 349 348 349 346 339 331 330 329 328 330 331 341 343 340 343 342 336 343 342 342 340 343 339 343 344 342 343 344 343 340 341
345 346 347 347 345 345 342 345 351 353 351 349 347 346 340 342 345 346 347 348 348 347 345 331 330 330 329 332 338 344 344 345 344 346 343 345 344 346 347 344 344 345 343 342 342 341 341 340 340
343 344 344 347 343 345 345 344 348 352 351 348 347 347 347 345 348 348 348 348 348 347 344 332 333 332 333 342 342 344 344 346 347 347 340 340 344 346 346 346 344 345 343 345 342 343 343 342 340
334 339 343 345 344 345 345 345 356 352 351 349 348 349 349 347 347 347 348 348 348 346 341 338 338 336 341 341 343 345 346 346 346 348 346 346 344 344 346 346 347 344 344 345 343 340 339 340 338
334 336 343 346 345 346 344 347 354 352 351 350 348 348 348 348 344 348 348 347 347 345 342 341 342 339 341 342 343 345 347 344 345 345 346 346 344 339 345 347 344 346 346 344 343 340 341 338 338
330 334 339 345 345 347 345 345 353 352 350 350 349 348 349 347 345 347 348 348 347 344 344 341 343 342 342 343 341 345 345 346 345 344 343 345 344 340 342 344 345 344 345 343 343 344 342 338 337
329 336 337 339 345 346 347 344 351 351 351 350 349 349 349 347 347 347 347 345 346 346 346 342 342 344 342 342 338 345 345 345 345 345 345 345 346 344 342 347 343 346 345 345 343 342 339 340 338
329 333 336 338 340 347 345 346 345 351 350 351 350 349 349 348 346 347 347 344 346 346 345 345 343 345 343 342 342 340 346 344 345 346 347 347 346 347 345 345 345 347 347 347 345 341 340 338 339
325 328 334 337 337 340 344 345 345 350 350 350 350 350 350 349 349 348 347 345 345 346 346 346 344 344 344 345 343 338 343 341 343 345 347 347 346 346 346 343 347 344 348 346 342 338 340 339 339
325 326 328 336 337 336 340 342 346 345 349 350 350 350 350 349 349 349 349 345 344 346 347 347 344 343 344 344 345 341 336 340 341 344 346 346 347 347 345 344 343 347 349 347 345 343 342 337 337
325 326 328 333 336 337 338 344 340 345 348 348 349 349 349 348 348 349 350 349 348 348 347 347 343 343 343 343 343 343 337 334 334 339 345 346 346 348 345 345 344 349 349 349 348 343 344 338 338
327 327 328 331 334 335 336 340 340 345 352 348 345 344 343 348 348 347 348 350 349 348 348 344 343 343 343 344 344 340 342 334 334 339 344 345 344 345 344 345 345 347 348 348 349 341 345 343 339
328 329 330 330 330 336 335 337 338 348 351 348 344 344 342 347 348 347 347 347 348 348 347 344 343 343 344 344 344 343 340 339 335 340 345 347 345 344 344 347 345 347 346 347 347 346 342 345 340
329 328 332 331 332 333 331 331 335 344 348 346 345 346 346 348 347 348 347 346 346 346 346 345 344 344 344 344 345 344 340 341 335 338 343 346 346 344 344 345 349 347 346 343 345 349 348 345 341
329 328 329 334 330 330 326 332 333 330 335 347 346 347 349 345 346 347 347 347 346 346 346 346 345 345 345 345 346 345 341 340 339 335 338 345 345 344 344 345 349 351 348 347 343 345 347 348 344
329 329 324 322 322 324 326 327 326 326 327 344 348 349 349 346 344 348 347 347 347 346 346 346 346 346 346 346 346 346 343 339 338 335 337 338 341 342 344 345 345 349 350 348 347 343 344 348 345
327 325 326 318 327 323 323 324 329 326 325 325 346 349 349 347 348 347 347 348 347 347 347 347 346 346 346 346 346 346 345 342 339 338 336 337 338 343 344 346 348 350 350 349 347 346 342 343 343
325 327 324 324 318 324 322 325 322 324 324 324 333 347 348 347 349 346 348 348 347 347 347 347 347 346 346 346 346 346 346 346 343 339 337 337 337 340 345 346 348 352 352 350 350 349 348 343 340
331 322 321 323 320 318 320 325 326 324 324 324 326 345 346 347 348 346 348 348 348 347 348 347 347 347 346 345 346 346 346 346 345 340 336 334 335 337 344 347 348 352 352 353 351 349 349 346 338

GFSSGP_850_thetae_051.txt.gz
Theta_e
339 343 347 349 354 356 358 357 354 355 354 352 346 348 347 348 349 349 343 342 341 338 334 332 331 332 329 332 332 331 332 335 335 336 335 337 338 340 339 342 339 341 333 332 331 326 331 335 326
342 347 350 351 361 360 358 354 356 353 351 350 349 350 349 349 345 344 342 341 339 337 337 333 332 329 330 333 331 333 334 331 334 339 334 339 342 339 343 341 340 337 338 340 340 334 333 340 340
348 350 350 351 355 360 359 355 352 351 351 352 350 349 348 348 344 343 341 340 338 339 338 332 330 330 331 332 331 333 333 332 336 344 344 334 339 339 340 340 339 338 339 340 338 338 332 341 341
350 351 351 355 357 355 355 353 351 351 352 351 348 347 346 346 343 342 340 339 338 341 333 331 329 330 334 331 331 334 334 334 343 342 341 337 338 338 338 341 342 342 342 341 338 338 332 341 342
351 351 350 354 355 352 351 350 352 351 352 350 347 347 345 344 343 340 339 337 338 338 332 331 329 330 331 330 330 332 334 336 342 342 339 340 339 338 337 336 336 337 338 338 337 336 333 338 340
352 347 352 355 353 351 351 350 352 352 348 346 346 346 346 345 342 338 336 334 333 332 332 331 329 330 329 330 330 332 333 336 335 337 338 341 340 339 337 335 334 334 335 336 336 336 335 338 341
345 345 350 350 353 353 352 347 351 351 348 347 345 346 345 344 339 339 334 334 336 335 332 331 329 329 330 330 332 333 333 336 336 336 338 341 340 339 338 336 335 335 335 337 337 337 336 337 340
349 346 351 351 352 354 349 347 350 351 350 347 345 346 345 342 340 340 337 338 341 336 335 333 329 329 330 330 334 334 335 336 336 336 337 339 339 337 338 336 337 336 336 335 338 340 339 339 340
345 349 352 350 352 351 349 351 352 351 349 349 347 344 344 341 342 343 342 339 340 340 338 334 329 329 330 331 335 334 337 336 335 336 336 337 337 338 339 338 339 339 340 337 335 340 341 339 339
351 350 349 348 348 348 351 350 352 350 350 347 346 344 342 344 345 345 346 343 339 340 339 332 329 329 330 332 335 337 338 336 336 341 338 338 337 340 340 340 339 339 341 340 336 339 341 342 341
351 351 350 347 347 346 348 348 352 351 350 347 344 342 344 347 347 347 347 345 338 338 337 331 328 328 330 331 336 338 337 340 343 342 344 342 339 340 339 338 340 342 342 342 343 344 342 343 341
350 350 350 345 347 347 345 350 352 351 351 349 345 342 345 347 348 346 346 345 340 338 336 330 328 328 329 331 336 339 336 334 340 341 343 344 342 342 339 338 342 342 342 342 344 343 341 340 340
346 346 348 349 347 344 345 345 352 351 351 346 342 342 345 346 347 347 345 345 341 339 337 330 328 328 328 331 334 341 340 342 344 339 340 338 344 344 342 344 342 342 343 343 342 342 340 338 338
340 342 344 345 346 345 343 348 351 352 349 343 342 342 343 345 346 347 345 345 342 340 337 331 328 328 328 331 336 342 344 345 346 342 342 342 345 346 344 343 345 344 344 342 343 342 342 338 337
331 335 335 337 344 344 345 344 350 351 348 344 340 340 338 342 346 347 346 346 345 341 338 332 329 329 329 336 343 344 345 346 347 345 344 344 344 345 345 345 343 342 342 343 343 343 344 342 337
330 330 334 335 344 344 344 346 353 350 347 345 342 339 337 341 342 345 346 345 345 342 344 336 329 330 332 337 343 344 345 345 346 347 345 346 345 344 344 346 344 343 343 343 341 340 340 341 337
322 331 335 336 343 346 344 345 352 350 348 347 346 345 344 343 344 345 346 346 345 345 344 336 331 333 335 339 343 344 345 344 345 344 345 346 344 342 342 342 343 344 342 343 341 343 343 337 337
322 331 333 334 344 346 345 344 352 351 349 348 347 348 348 346 346 346 346 346 346 346 345 336 339 338 339 339 342 344 346 345 344 342 344 345 345 342 341 345 343 344 343 342 343 341 339 336 337
326 332 335 335 336 346 347 345 354 350 350 349 348 347 348 348 346 346 346 347 347 346 346 341 340 342 340 342 343 344 345 345 345 343 345 346 346 346 344 344 344 344 346 344 343 341 339 339 338
321 322 327 330 333 344 346 347 352 351 350 349 348 347 348 347 347 345 346 347 347 347 346 343 342 341 342 341 342 341 343 345 344 345 345 347 347 347 347 344 345 345 345 345 344 340 339 338 339
320 321 323 328 334 338 339 347 346 352 351 350 349 348 348 348 346 346 346 346 347 347 346 344 345 344 341 343 342 343 341 344 344 344 345 345 345 346 347 345 343 347 344 344 342 339 341 338 339
320 321 323 326 331 337 335 342 347 351 352 350 350 349 348 348 347 346 346 347 347 345 345 345 345 345 343 343 343 343 342 339 342 342 344 345 346 345 346 345 344 345 346 345 346 345 343 339 337
324 322 324 325 327 332 333 335 341 348 354 351 349 349 349 349 348 347 346 346 345 344 343 344 345 345 345 343 343 344 344 338 335 339 339 344 346 345 345 345 344 344 347 347 348 345 343 342 336
325 325 325 326 326 332 331 333 333 348 347 350 349 349 349 349 349 348 348 348 344 343 343 343 344 345 346 343 343 344 343 340 335 332 335 340 344 344 344 343 345 345 346 347 347 348 342 345 340
325 323 326 328 329 332 328 331 334 340 342 344 347 349 348 348 348 348 348 348 349 345 341 344 345 346 347 344 343 343 343 342 338 333 332 336 343 344 344 343 344 346 346 345 347 347 344 342 344
325 324 325 330 330 333 326 330 332 337 340 342 345 347 347 345 345 348 347 348 348 349 346 344 345 345 347 345 343 343 344 343 342 337 335 336 342 344 344 343 344 346 348 345 345 345 347 347 342
326 328 325 324 320 326 329 325 327 333 339 341 344 345 345 344 344 344 347 346 347 348 349 348 347 347 347 345 343 343 344 344 343 338 335 334 339 344 344 344 343 344 349 350 347 345 342 347 345
327 324 327 321 327 325 322 325 333 326 328 340 344 345 345 344 344 346 347 346 346 346 347 347 347 347 346 345 344 344 344 344 344 342 336 334 335 340 344 344 344 344 345 348 347 345 344 342 344
324 328 326 326 323 332 323 324 321 326 325 333 338 342 344 345 345 345 346 347 346 345 346 346 347 347 346 345 344 344 344 345 345 343 339 336 335 336 339 341 342 345 347 349 349 348 347 346 342
318 324 320 330 327 318 327 330 322 322 321 330 339 342 344 345 346 346 344 346 347 346 345 346 346 346 345 345 345 345 345 345 345 345 341 337 336 337 337 340 342 345 347 349 351 350 349 348 347

GFSSGP_850_thetae_054.txt.gz
Theta_e
341 340 347 349 355 355 356 356 354 354 353 349 345 347 347 348 349 348 342 342 340 339 333 338 334 331 335 332 331 339 338 338 338 338 341 341 339 339 340 338 339 333 329 330 326 330 334 325 328
342 344 348 351 358 357 355 353 355 352 351 348 347 348 348 349 345 344 342 341 336 332 332 341 331 332 337 332 332 339 337 337 338 339 337 341 339 339 343 341 339 335 337 337 333 335 339 332 333
343 348 350 353 354 360 359 354 352 351 349 348 349 348 347 346 344 342 341 341 334 332 330 332 329 332 333 333 340 331 332 341 339 334 341 343 341 343 340 338 337 339 340 339 334 336 341 340 339
347 350 350 354 356 355 355 352 351 351 350 350 348 347 346 347 343 342 340 340 333 332 331 331 329 332 331 333 339 332 333 341 341 342 335 337 337 338 339 339 339 340 340 338 337 332 341 340 340
349 350 348 353 355 353 351 351 351 352 350 348 346 347 345 344 342 341 340 339 334 334 331 329 330 340 331 331 342 333 337 343 341 339 341 341 340 340 341 339 339 339 338 337 336 331 339 341 340
352 347 349 352 352 350 350 349 353 351 348 346 344 344 345 343 342 340 339 339 337 333 330 329 331 338 330 330 335 334 337 342 340 340 342 339 338 336 335 334 334 335 335 335 335 333 337 340 341
348 344 348 349 352 352 351 348 352 350 347 346 345 346 345 343 341 340 338 340 337 331 330 328 330 330 330 330 332 335 335 335 339 344 342 338 337 337 336 334 335 336 336 336 336 335 337 339 340
351 343 349 352 353 353 349 349 351 350 348 345 345 345 345 343 339 342 338 340 333 332 330 328 329 329 330 332 332 334 335 335 336 339 339 338 338 338 336 335 336 336 337 340 339 336 338 338 340
348 346 349 351 352 352 349 350 352 351 346 347 345 344 343 341 339 340 339 340 338 343 332 328 329 329 330 334 333 334 335 336 336 337 338 337 337 337 337 337 338 338 336 338 340 339 338 338 339
348 346 347 346 348 349 351 352 350 349 348 345 345 344 343 339 339 338 340 343 342 341 334 328 328 329 330 335 333 336 335 335 335 336 337 337 339 339 338 339 340 338 339 337 340 339 340 340 339
350 350 348 347 348 346 349 349 351 350 350 345 344 344 342 340 340 342 344 343 341 337 333 330 329 330 331 334 335 337 335 336 340 339 338 338 339 339 339 338 339 340 342 339 341 338 340 340 341
350 349 350 346 347 346 347 349 351 350 350 349 346 343 340 339 342 344 343 341 342 338 333 329 329 329 331 335 337 337 338 341 341 342 343 342 341 340 338 339 342 343 342 343 342 341 341 341 340
348 346 347 349 348 346 345 350 352 350 350 349 344 343 342 340 343 345 344 336 337 336 333 329 328 329 331 334 338 337 335 338 340 340 343 342 342 341 340 341 342 342 342 342 342 341 339 338 338
339 343 343 344 344 345 342 345 349 349 348 345 343 343 343 342 343 344 342 337 336 335 333 329 327 327 330 331 338 337 339 343 340 340 341 342 345 343 342 342 342 342 342 339 341 341 338 337 336
336 331 332 334 339 343 343 345 351 347 346 342 342 343 343 343 345 341 340 339 336 335 333 329 328 327 329 331 341 339 342 345 343 342 342 343 344 345 343 342 344 343 342 341 341 342 339 337 336
326 328 335 335 338 343 344 347 351 346 343 342 342 342 343 343 345 343 343 340 340 336 335 330 328 328 328 331 340 343 345 345 346 344 343 345 343 344 345 346 342 339 341 342 340 340 340 338 337
319 333 334 338 337 344 344 346 350 346 342 342 342 342 342 341 344 345 343 341 342 336 335 332 329 328 328 335 342 343 344 345 345 346 345 345 343 342 344 342 343 343 341 341 340 343 340 339 337
323 326 332 336 337 343 344 346 350 347 344 341 340 340 339 340 344 345 344 343 344 340 337 337 331 328 329 337 342 343 344 345 345 344 344 345 345 341 342 344 344 343 341 340 342 342 342 340 338
323 328 332 332 333 344 345 346 353 348 346 344 341 339 338 338 342 345 346 345 345 344 341 342 336 329 330 337 341 343 343 344 344 342 344 344 345 344 342 343 344 343 342 342 342 339 339 337 337
320 321 326 329 332 342 343 345 352 349 347 346 346 345 343 342 341 342 343 345 344 343 343 344 338 331 333 337 339 341 343 342 345 344 343 344 345 346 346 343 345 344 344 344 344 342 339 338 338
318 319 321 328 329 335 342 344 351 351 349 348 347 346 346 346 346 344 343 344 345 344 344 345 340 337 338 338 340 341 343 345 345 344 344 344 345 346 346 346 345 345 345 343 341 337 339 337 339
316 320 322 322 326 330 337 340 341 353 351 349 348 347 346 346 347 345 344 345 345 344 345 344 343 340 340 341 340 341 342 342 343 345 344 344 345 345 345 346 345 342 345 343 343 342 341 337 338
317 319 320 321 325 326 327 334 332 347 354 351 348 348 347 346 347 346 345 344 345 345 345 344 344 341 341 342 341 342 342 342 342 343 344 344 344 344 344 345 345 344 344 346 345 344 342 342 338
321 322 320 322 321 327 325 330 332 346 350 351 349 349 348 347 346 346 346 345 345 346 345 346 345 341 342 344 345 342 342 342 342 342 341 342 341 343 343 343 344 344 345 346 345 345 345 342 341
321 320 322 324 326 328 325 327 331 331 342 347 349 349 349 348 347 346 346 345 345 345 345 345 346 343 341 342 344 345 342 343 343 343 337 336 338 337 341 343 343 344 344 345 347 347 347 342 343
322 320 320 325 326 329 324 329 330 329 335 344 345 348 348 349 348 347 345 345 344 345 345 343 342 342 342 342 343 345 344 343 343 342 340 333 331 331 337 341 342 344 346 347 346 344 345 347 342
322 323 320 322 321 324 329 326 327 328 331 336 340 342 347 348 348 348 348 347 345 346 346 343 341 341 342 342 343 345 346 343 343 343 343 339 332 331 338 342 343 343 344 346 349 346 343 344 346
320 322 325 321 329 325 324 325 332 329 331 334 338 340 344 347 348 348 348 348 348 347 347 347 344 342 343 344 344 345 346 345 342 343 343 342 337 334 337 341 343 343 343 344 347 349 346 345 341
319 322 323 323 322 326 326 327 322 329 330 331 336 340 342 345 347 347 346 347 347 347 347 347 347 346 343 344 345 345 345 346 343 343 344 344 340 336 334 339 342 343 344 344 344 348 346 345 343
317 319 321 328 326 322 323 327 322 325 325 328 329 336 340 343 344 345 345 344 346 346 347 346 347 347 347 347 346 346 345 345 343 343 344 344 343 338 335 335 338 339 342 344 346 347 348 348 347

GFSSGP_850_thetae_057.txt.gz
Theta_e
339 338 343 348 355 356 359 356 353 355 353 348 345 346 347 349 349 353 344 343 345 344 339 331 332 331 331 331 332 336 339 341 341 341 339 338 339 337 338 337 335 330 339 326 330 333 324 330 336
342 343 348 350 356 361 358 353 354 351 351 346 348 348 349 350 345 343 343 342 343 343 343 330 334 331 331 337 340 340 339 341 340 341 341 339 339 340 339 340 334 332 332 334 335 338 329 330 333
343 346 350 354 356 361 360 354 353 349 348 347 350 348 348 348 344 343 342 342 341 342 342 330 335 332 331 336 339 337 337 339 341 339 340 340 340 342 340 338 341 341 339 334 335 340 338 338 337
347 348 349 355 355 355 355 352 351 350 349 349 348 348 346 346 344 343 341 340 341 341 342 330 337 332 338 341 331 337 343 338 335 343 342 342 342 342 341 339 340 339 338 335 335 340 339 339 338
347 351 353 355 354 352 352 351 352 352 351 349 348 347 345 344 343 342 341 342 341 342 342 331 339 331 335 340 332 337 341 342 337 337 338 340 340 341 343 343 340 339 336 336 331 341 340 340 339
351 348 354 356 354 351 350 351 353 352 350 347 346 346 346 343 342 342 342 343 341 342 343 334 340 331 335 344 333 342 341 339 342 342 343 345 340 336 336 336 336 335 334 335 332 338 340 341 339
348 351 353 351 353 353 352 351 352 351 349 348 345 346 345 343 343 343 343 342 342 340 340 340 343 331 332 341 334 339 342 340 342 341 341 342 336 335 335 336 336 336 336 335 334 337 339 340 339
351 346 350 352 355 355 350 349 352 350 350 347 346 348 346 343 344 343 342 341 340 336 340 339 343 334 330 332 334 334 336 340 343 342 341 337 336 335 335 336 336 339 339 337 335 336 338 339 339
348 351 354 350 351 353 349 351 352 349 347 347 346 346 345 342 344 344 343 343 341 339 340 339 339 330 331 332 334 335 335 337 339 338 337 337 336 336 336 337 336 337 339 339 338 337 338 338 338
349 354 352 345 348 351 351 352 351 350 348 347 346 345 344 345 345 345 345 344 342 341 341 339 332 330 332 334 334 335 340 341 337 337 337 338 338 338 338 339 337 337 338 340 339 339 339 340 343
349 356 349 347 347 352 352 352 351 351 352 348 346 346 345 345 345 343 344 342 341 343 337 332 329 330 333 334 335 336 336 335 335 336 337 339 339 339 339 339 339 341 338 339 338 339 340 340 341
353 351 351 350 348 347 348 350 352 351 351 349 346 345 344 344 343 342 342 342 343 343 330 329 329 330 333 334 336 335 335 338 337 337 339 338 339 338 338 339 341 342 341 343 342 340 341 340 341
349 349 348 349 349 348 347 349 353 352 351 348 346 345 344 343 342 341 342 343 342 337 331 329 329 330 333 335 337 336 338 341 341 342 343 343 342 338 339 341 342 342 342 342 340 338 337 337 339
343 345 347 346 346 346 347 346 351 350 348 347 346 344 343 343 342 341 343 343 339 333 331 328 329 330 333 335 337 337 338 339 340 342 342 344 341 342 342 342 343 343 341 342 341 338 336 336 336
335 340 337 340 342 346 344 348 349 348 347 346 345 344 343 343 342 341 342 343 334 332 330 328 328 330 331 337 337 335 340 342 339 341 342 343 345 343 342 343 342 343 342 341 339 339 337 337 333
327 332 344 343 341 341 344 351 350 347 347 346 345 344 343 342 343 343 343 343 338 333 331 328 328 328 330 332 338 340 343 344 341 342 343 344 345 344 343 343 343 342 343 340 340 342 340 337 337
328 327 336 344 339 345 346 350 351 347 347 346 345 345 344 342 342 345 345 344 339 334 332 329 327 327 329 331 339 340 344 346 346 344 344 344 344 344 346 345 343 341 342 337 339 340 339 338 337
326 327 335 343 343 342 347 348 352 346 347 346 345 345 344 343 342 344 345 345 342 335 334 331 328 327 328 330 337 343 344 345 345 346 345 345 344 343 344 342 343 344 341 341 340 338 341 338 338
327 329 329 340 342 344 346 345 353 349 346 346 345 345 344 343 342 344 345 346 346 340 336 335 330 328 328 330 336 342 343 344 345 344 343 344 344 341 342 345 344 344 340 339 342 340 340 339 338
323 327 332 332 335 342 345 345 349 351 349 346 345 344 344 343 342 344 345 345 346 343 340 336 333 329 328 332 340 342 341 343 343 343 343 343 345 345 344 343 345 343 343 341 341 341 339 338 338
321 323 327 331 333 336 343 345 347 352 350 349 345 344 343 342 342 344 345 345 346 346 343 339 336 335 329 329 337 340 341 342 344 344 342 344 345 345 346 345 345 345 345 343 342 339 340 339 338
319 320 324 326 328 339 339 349 346 349 354 351 349 346 343 342 341 341 345 346 346 346 344 343 338 341 331 330 331 338 339 340 341 343 344 344 344 345 346 346 346 344 345 342 342 341 339 337 338
319 319 318 323 328 329 332 343 345 346 355 354 350 349 348 346 344 343 343 345 345 346 342 343 342 343 335 331 334 337 340 338 339 342 344 344 344 344 344 345 346 345 343 344 344 345 342 340 339
319 321 320 320 322 330 333 335 341 344 350 352 351 350 349 348 348 348 346 345 344 345 344 341 342 344 339 337 338 339 340 341 341 342 342 344 344 343 343 344 345 345 344 344 345 345 346 341 343
320 321 324 325 322 328 332 334 335 337 342 346 350 350 350 349 348 348 348 347 346 345 345 342 342 344 344 340 340 341 341 341 342 342 342 342 342 343 342 342 343 343 343 344 346 346 345 346 343
322 323 323 326 323 321 327 333 334 333 332 339 344 347 349 350 349 349 349 347 345 344 343 343 343 344 342 342 341 341 342 343 343 342 342 342 342 339 339 338 339 343 343 345 345 346 347 346 344
324 324 323 323 326 326 323 329 331 333 335 334 336 345 348 350 349 349 349 348 346 345 343 342 342 343 343 343 341 341 342 343 344 343 342 343 343 340 334 334 336 341 343 346 347 347 345 343 345
323 324 325 325 324 326 325 326 330 335 335 336 336 342 346 348 350 350 349 349 347 344 343 342 341 340 342 343 341 339 341 342 344 344 342 342 343 341 336 331 337 341 342 344 345 347 349 347 345
323 324 325 326 326 326 325 327 329 332 337 337 337 337 340 345 348 349 349 349 348 346 343 343 344 342 342 341 341 340 341 342 344 345 343 342 343 343 340 334 334 340 341 342 343 344 346 348 347
319 323 325 328 329 329 328 326 329 332 334 335 335 337 338 342 346 348 349 349 349 348 346 344 344 345 343 342 341 342 342 343 344 345 346 343 342 343 343 338 333 337 340 342 343 344 344 346 346

GFSSGP_850_thetae_060.txt.gz
Theta_e
339 341 347 347 356 357 361 358 354 356 352 349 348 347 349 350 353 358 348 349 349 350 346 341 331 330 331 331 332 331 332 332 333 333 334 336 337 340 341 337 332 341 328 331 333 326 331 332 327
346 347 347 350 359 365 362 356 357 352 350 348 349 348 349 352 348 348 349 349 348 348 346 346 332 332 332 335 335 339 340 341 341 340 339 340 338 340 343 336 331 339 341 335 339 328 334 339 331
348 350 351 356 361 363 361 357 354 350 348 349 350 351 351 351 348 347 348 348 348 345 344 342 335 332 338 339 339 339 339 338 341 340 341 339 341 340 341 339 340 341 337 336 340 337 336 335 334
349 350 353 360 359 357 355 355 352 351 348 349 350 352 349 348 347 348 348 347 347 344 343 340 333 332 341 338 336 337 340 341 339 339 342 341 341 340 338 339 340 339 337 335 340 339 338 338 335
351 352 358 359 356 353 354 353 352 353 350 350 350 352 347 347 347 348 347 347 345 343 343 345 333 341 340 331 342 343 340 339 342 342 342 343 343 344 341 340 340 337 337 332 341 340 339 337 335
353 353 358 357 354 354 353 353 354 353 352 351 351 350 348 346 347 348 347 345 343 342 342 346 336 338 339 332 341 341 341 337 340 343 345 343 344 343 340 337 334 334 335 332 339 341 340 337 334
353 355 358 354 355 356 356 354 354 354 353 351 350 353 348 347 347 347 345 342 342 342 343 347 344 341 343 333 342 340 339 342 342 342 341 341 337 332 335 335 335 335 335 333 338 339 340 338 336
354 350 354 354 357 358 353 354 354 353 353 351 350 352 350 348 347 346 344 342 343 342 343 347 345 345 349 339 342 342 340 341 340 339 340 339 334 336 335 338 339 339 336 335 337 338 338 339 338
350 354 356 353 353 356 352 355 353 353 352 351 350 350 349 347 348 345 344 342 343 342 342 345 343 345 346 347 342 341 342 342 340 340 339 346 346 345 346 339 338 339 338 337 337 338 338 338 337
351 356 354 348 351 352 352 354 354 353 352 351 350 349 348 347 347 346 344 343 342 341 342 343 343 345 346 345 346 347 345 347 347 347 347 347 347 348 346 340 337 339 339 339 339 339 344 347 344
350 355 350 349 351 352 351 354 353 353 354 351 351 349 347 348 348 346 343 342 341 341 341 343 344 346 346 346 347 347 347 346 347 346 347 347 348 346 348 344 346 345 344 344 345 345 346 346 345
349 348 351 350 349 352 353 353 353 352 353 352 350 349 347 347 346 345 344 343 340 341 341 343 344 346 347 346 347 347 346 345 345 346 338 346 349 348 347 346 345 346 347 347 346 345 347 347 347
344 347 350 350 349 349 349 351 353 353 353 351 350 348 347 347 345 344 344 342 340 341 341 343 344 346 348 347 347 346 346 346 347 347 340 349 349 349 347 347 348 347 348 345 345 344 344 341 347
337 338 344 348 349 348 350 349 351 353 352 351 349 348 347 346 344 344 344 340 341 341 340 342 344 345 347 348 348 348 348 349 349 348 346 344 349 350 348 348 348 347 348 346 346 344 342 343 344
332 339 339 343 348 350 348 351 351 352 351 351 350 348 347 346 344 343 343 342 342 341 342 342 344 344 345 348 347 348 348 347 348 348 344 342 346 343 349 349 349 347 347 344 347 346 342 338 340
328 331 337 343 347 347 347 352 350 351 351 351 350 348 347 346 344 343 343 342 342 342 343 343 342 343 345 346 345 347 347 347 348 349 347 344 345 343 345 344 348 349 348 346 345 337 341 339 340
325 329 333 350 346 348 348 351 352 350 351 352 350 348 347 346 345 343 343 342 342 344 344 344 343 343 342 343 344 346 347 348 349 350 350 344 345 345 348 348 350 342 347 345 345 343 343 340 341
326 328 332 345 347 348 350 351 352 351 351 351 350 348 347 347 346 344 343 343 343 345 345 344 343 343 342 342 340 345 347 348 349 350 350 345 347 344 345 351 346 343 346 346 346 346 343 343 343
327 329 330 339 346 348 350 350 354 350 351 351 351 350 348 347 346 346 345 344 343 344 345 345 344 344 340 340 343 344 346 348 349 349 346 345 344 343 342 351 346 344 347 346 348 347 344 337 337
324 329 332 332 341 347 349 349 348 353 350 350 351 350 348 348 347 345 346 345 343 344 345 346 345 344 331 340 342 344 347 348 348 350 344 344 344 342 346 350 347 345 348 349 343 343 344 345 341
323 324 329 332 335 340 347 350 348 349 351 350 350 350 349 348 348 346 346 345 344 345 346 346 345 340 329 340 341 346 349 350 351 350 348 347 344 345 346 344 348 343 345 349 345 343 344 343 344
323 322 323 329 333 339 343 352 349 348 353 352 350 350 349 348 347 346 346 346 345 345 347 348 346 335 330 329 341 346 347 345 345 348 347 349 344 345 345 346 345 344 346 349 344 345 345 343 342
322 322 322 323 330 333 338 346 346 347 351 354 351 349 349 348 347 346 346 348 347 346 347 349 349 341 338 329 337 343 343 343 345 347 350 351 346 345 349 345 345 343 349 350 347 344 343 341 341
322 322 322 322 322 329 334 340 345 346 347 349 351 350 349 348 347 346 346 347 348 347 347 349 350 339 336 335 329 338 342 343 345 348 349 349 349 350 345 346 344 344 343 345 348 349 342 347 344
323 323 326 325 323 321 328 335 339 341 345 345 348 349 350 350 348 347 346 346 348 348 348 349 350 345 338 338 336 330 333 345 349 349 347 347 347 348 350 343 343 347 343 349 344 344 349 345 346
324 325 326 328 326 324 323 329 335 337 338 341 344 348 350 351 350 350 348 347 347 348 349 349 348 345 342 339 339 330 333 345 348 347 348 348 346 346 348 351 348 341 348 345 346 351 351 352 347
327 326 326 326 327 328 325 324 329 334 336 337 340 344 346 348 349 350 351 351 349 348 348 348 349 346 342 344 342 333 337 341 347 347 347 348 348 347 348 349 351 350 349 351 351 351 353 352 346
326 327 327 327 328 330 329 328 325 333 336 337 339 338 343 345 349 350 351 351 352 350 349 350 350 349 347 346 345 341 338 340 341 348 346 348 349 344 346 345 346 348 349 351 349 353 353 353 352
324 326 327 327 327 329 330 329 328 328 331 336 338 338 339 345 348 349 350 351 352 351 349 350 350 351 349 346 348 346 344 342 340 343 343 344 344 343 342 342 337 342 349 350 346 349 353 354 354
323 325 327 329 330 328 330 329 328 329 329 332 335 336 338 339 344 348 349 350 351 352 350 349 350 350 350 348 344 342 344 340 346 341 342 343 344 343 342 343 340 333 342 350 350 347 352 353 354

GFSSGP_850_thetae_063.txt.gz
Theta_e
338 341 349 347 358 359 363 358 355 354 354 350 349 350 352 352 354 361 349 351 350 350 347 345 344 343 342 342 342 341 338 335 335 336 335 334 338 339 338 335 340 333 334 331 329 330 329 328 338
347 348 350 354 363 368 362 355 356 353 351 350 348 349 351 353 351 351 351 350 349 348 347 345 334 332 332 332 332 333 334 335 335 335 338 338 339 343 338 333 342 341 338 336 328 339 340 331 336
349 350 354 359 363 365 363 357 356 352 350 351 352 351 353 351 351 350 350 349 348 345 344 340 334 332 338 335 338 340 341 341 341 340 339 339 341 342 341 337 341 338 341 340 337 335 336 335 329
349 352 354 364 362 358 358 355 352 348 350 351 351 353 351 351 350 350 350 349 346 345 344 335 332 338 340 338 339 338 338 342 340 340 340 342 341 338 339 341 339 337 338 340 339 338 337 333 332
351 353 361 361 359 355 352 353 351 351 351 351 352 354 351 349 350 350 349 347 344 345 345 345 335 343 339 336 336 339 340 343 341 342 342 343 342 340 340 340 338 336 334 340 340 339 336 335 335
353 354 362 363 356 354 353 353 352 351 352 352 353 351 351 349 349 349 348 348 343 343 344 342 339 341 332 343 342 340 339 339 340 345 343 344 343 339 337 335 335 335 333 339 341 339 336 334 334
354 358 361 357 355 356 356 354 354 353 353 353 353 356 350 349 348 348 348 344 343 342 345 346 347 340 333 341 342 341 340 344 346 343 340 335 332 334 336 335 334 334 333 339 340 339 336 335 331
354 357 356 357 357 360 355 354 353 354 353 352 353 355 351 349 348 347 346 343 341 342 343 345 346 349 346 343 342 340 342 341 340 338 334 332 335 337 342 341 337 335 335 338 338 338 338 337 336
353 357 358 355 355 359 353 355 354 353 353 352 352 353 351 349 348 347 343 343 342 342 343 342 344 348 346 349 342 341 341 339 339 336 344 346 346 346 347 339 338 336 336 337 338 337 337 335 334
353 358 356 350 353 358 353 354 354 353 353 352 352 352 350 348 348 346 343 343 341 341 342 342 344 345 345 345 343 348 347 347 348 345 348 347 347 346 344 338 338 338 337 338 339 346 342 346 346
350 357 353 351 353 352 353 354 353 353 353 352 352 351 349 348 347 345 343 343 341 340 342 341 344 344 343 346 348 346 348 345 348 347 348 345 345 346 345 344 344 341 343 344 344 344 347 346 346
348 347 350 351 353 351 353 352 352 353 352 351 352 351 349 349 347 345 344 343 341 340 341 341 343 346 346 343 346 347 346 344 345 347 349 344 349 348 347 347 346 347 348 344 344 346 346 346 345
345 346 350 351 350 352 352 351 352 352 352 352 351 351 349 349 347 346 344 342 341 340 341 342 344 346 349 348 348 347 344 344 347 348 349 349 348 347 347 347 346 347 344 342 342 343 345 345 346
338 341 347 350 350 350 349 349 350 352 352 352 351 351 350 349 348 345 344 342 341 340 340 343 345 347 347 347 347 346 344 348 346 348 348 349 349 348 348 346 346 345 345 346 345 345 344 345 344
334 339 341 345 350 350 349 352 350 352 352 353 352 351 349 348 348 346 345 342 341 340 340 343 345 347 348 349 348 345 346 348 348 348 346 351 349 350 349 348 345 347 348 348 346 341 339 340 344
333 335 341 343 347 350 350 355 348 352 353 353 351 351 350 348 348 346 345 342 342 341 340 343 343 346 347 350 348 348 346 347 347 348 350 350 352 350 349 347 348 346 346 346 344 342 341 339 342
328 334 337 339 341 347 352 353 345 351 352 353 351 350 349 348 347 346 345 342 343 342 342 343 344 346 347 350 348 349 348 348 347 348 349 347 353 346 351 349 350 341 347 343 345 341 342 340 338
328 330 333 338 348 348 352 354 352 352 351 353 352 350 350 349 348 346 345 343 343 342 343 344 344 345 347 349 349 348 349 349 349 349 350 348 352 352 347 350 348 347 346 346 345 343 342 343 342
328 329 332 336 348 349 350 352 354 351 351 353 352 350 350 349 348 346 345 344 343 343 344 345 345 345 346 348 347 346 347 348 349 350 352 350 353 352 346 352 343 347 347 349 344 344 344 336 338
326 328 330 333 340 348 349 351 351 352 351 352 353 351 349 349 349 346 345 344 343 344 346 345 345 345 346 346 345 346 346 348 348 347 352 352 351 353 353 352 351 349 348 349 348 349 344 342 339
326 327 329 333 334 345 348 352 351 355 351 351 352 352 349 349 350 348 346 345 344 345 346 346 346 345 344 344 344 346 347 348 347 350 351 351 352 353 354 346 352 349 349 349 345 344 347 345 343
327 326 326 329 335 339 344 354 354 349 353 352 352 352 351 348 349 349 348 347 345 344 346 347 346 345 344 342 343 345 347 346 347 348 348 350 352 352 353 354 352 343 351 350 349 347 347 346 343
326 326 326 325 327 335 338 344 353 351 356 352 352 351 351 350 348 349 349 349 347 345 346 347 347 347 344 336 342 344 347 346 346 347 349 349 351 353 352 353 349 347 348 350 349 351 346 343 347
326 325 326 326 325 327 334 340 347 348 348 351 351 350 351 351 350 349 348 349 349 347 346 348 348 347 343 338 334 343 345 346 344 345 351 348 352 351 352 353 352 347 353 351 352 351 347 347 344
326 327 327 327 327 326 327 335 340 345 346 347 350 350 350 350 350 350 349 348 349 348 347 348 349 348 340 340 331 340 343 341 346 348 349 347 346 347 349 348 351 349 347 354 354 350 352 351 348
327 327 329 331 329 328 327 327 334 338 342 344 342 348 349 350 350 350 349 349 349 349 349 348 350 351 348 342 336 330 333 344 346 348 348 347 346 346 348 349 352 352 356 353 352 350 350 351 348
328 328 327 329 330 331 329 327 327 333 337 343 342 347 349 349 350 349 350 349 349 350 350 350 350 352 352 349 343 334 331 333 344 347 345 351 347 347 347 351 354 352 351 354 353 352 353 352 352
326 328 328 328 331 332 331 331 328 328 333 337 341 343 345 349 350 350 350 349 349 350 351 351 351 353 354 352 348 343 334 332 337 347 350 350 349 347 349 349 350 353 352 352 353 351 352 354 354
324 327 329 330 329 331 333 332 332 330 330 334 338 340 343 348 348 349 350 351 350 350 351 351 352 353 354 353 352 349 348 345 330 346 348 350 351 351 347 350 351 351 352 352 353 350 353 355 349
320 323 323 330 332 330 330 332 332 332 330 332 336 337 338 340 345 347 348 351 352 353 351 351 351 352 353 354 353 350 349 348 346 337 345 349 348 349 352 349 348 344 348 351 353 353 351 356 355

GFSSGP_850_thetae_066.txt.gz
Theta_e
337 347 350 351 356 359 363 360 353 354 353 350 351 352 353 353 354 359 346 348 349 349 346 345 345 346 346 343 343 342 340 339 340 340 336 339 339 340 335 341 335 338 329 333 334 331 334 337 333
344 345 351 352 362 367 362 356 358 353 351 350 351 351 352 354 351 349 350 350 349 350 348 346 345 346 341 339 337 334 332 333 333 334 337 339 341 338 334 342 339 340 331 330 341 337 329 333 331
349 349 352 359 364 364 364 356 356 351 349 350 353 353 352 351 350 351 350 348 348 347 348 340 345 332 333 338 339 341 340 341 339 339 339 340 342 340 335 341 337 340 338 336 333 335 335 329 332
351 351 353 363 365 358 360 355 354 352 351 353 352 353 351 351 351 350 349 348 345 345 346 331 333 342 339 342 341 339 340 340 342 340 341 341 340 340 341 339 335 340 339 338 338 336 331 329 330
351 352 360 363 362 355 356 353 350 353 352 353 353 353 351 351 350 349 347 347 345 346 335 332 337 340 340 340 339 338 339 340 341 341 342 341 342 340 340 338 334 337 340 339 337 336 334 333 329
351 354 363 365 356 352 353 352 350 352 353 353 352 351 351 350 349 348 347 346 346 346 346 338 342 339 337 336 340 339 342 341 343 342 343 342 342 334 334 335 334 337 339 340 337 334 332 333 329
352 358 361 359 358 357 356 353 352 353 353 353 352 353 351 350 349 348 346 345 344 344 346 344 341 334 342 342 339 337 340 343 343 341 335 331 335 337 335 332 333 334 339 340 337 333 331 332 328
353 356 361 360 361 358 350 354 353 353 355 353 354 353 351 350 349 348 346 343 343 345 346 349 344 343 344 341 340 341 344 342 337 332 332 334 342 343 344 336 333 335 337 338 337 337 335 329 334
351 359 362 358 360 358 351 355 353 353 353 353 354 352 350 349 349 348 345 342 345 343 344 346 348 345 345 341 342 340 338 336 336 343 343 348 348 344 342 336 334 334 337 338 336 336 335 334 342
349 360 359 354 353 350 352 354 353 353 353 353 355 352 350 349 349 348 344 341 344 343 341 344 348 347 347 348 341 339 338 343 344 348 347 348 347 345 337 337 334 335 338 340 337 335 342 344 344
347 352 356 353 352 351 350 354 352 353 353 353 353 351 350 349 348 346 344 341 341 342 341 344 344 345 346 346 340 345 346 347 345 346 348 348 346 343 342 339 342 340 340 343 342 345 344 346 347
346 347 348 349 353 354 355 354 355 351 352 353 353 351 350 348 347 345 344 343 341 342 342 345 341 345 347 343 347 346 346 349 345 346 348 345 344 344 347 347 348 342 346 348 346 347 345 343 344
344 346 346 350 353 352 347 352 354 346 345 353 352 350 349 348 346 344 344 342 341 342 342 345 340 346 347 346 343 347 344 345 346 344 348 348 348 348 347 345 348 345 343 344 343 348 344 346 345
341 342 345 349 352 353 350 352 352 352 352 354 352 350 349 348 346 345 344 342 341 340 342 344 339 346 347 346 349 347 341 347 348 346 350 347 349 347 347 344 347 344 347 344 344 342 345 345 344
333 338 340 343 351 352 350 352 353 353 352 352 353 350 349 348 347 345 345 342 341 340 342 344 343 348 346 345 347 343 344 349 346 349 347 348 348 346 348 346 345 347 346 340 340 341 343 339 342
331 333 339 339 344 350 351 357 350 352 353 352 353 350 350 349 348 346 345 343 341 341 342 344 343 346 345 346 347 345 349 348 349 349 346 347 348 351 348 348 346 347 346 343 344 344 343 344 342
330 332 336 338 343 347 352 356 352 351 353 352 352 351 350 350 348 346 345 343 342 341 341 344 344 346 345 345 343 346 349 349 347 349 351 344 347 347 346 347 349 343 349 348 341 341 343 340 343
329 331 333 337 339 344 349 354 351 345 350 351 351 351 349 349 349 347 346 343 343 342 340 343 345 346 346 349 346 347 346 347 349 348 348 348 347 346 348 349 346 349 345 346 347 343 344 342 342
329 329 331 332 335 343 345 351 348 346 346 346 350 352 350 349 349 348 347 343 344 343 341 342 345 346 345 349 345 349 347 348 349 349 350 349 352 352 346 349 341 350 347 344 346 345 345 340 342
330 330 329 330 333 345 352 349 345 344 343 344 350 350 351 349 348 348 346 344 344 343 344 343 344 347 345 350 347 346 349 347 347 350 353 346 352 352 351 350 346 344 350 345 349 343 343 339 337
328 328 328 329 332 342 344 352 349 343 345 348 351 348 349 350 349 348 347 345 344 344 344 344 344 349 346 348 346 346 346 349 348 351 351 346 348 348 352 348 349 347 349 345 346 346 345 341 340
328 328 327 328 329 334 337 352 351 350 351 344 343 349 348 350 349 348 347 346 344 345 344 344 345 347 345 346 345 345 346 348 346 350 350 345 349 350 349 350 345 346 345 345 340 340 348 343 345
327 328 328 327 327 329 333 337 351 352 349 348 343 349 347 348 349 349 347 347 345 346 346 345 345 346 345 342 346 346 346 346 350 345 350 348 349 348 354 350 349 342 350 350 348 348 347 346 345
326 326 328 328 327 328 328 333 339 354 348 343 343 349 348 347 349 350 348 347 346 346 347 347 347 343 342 339 344 344 344 347 347 344 351 350 350 347 351 353 348 344 348 351 346 341 344 344 345
327 326 327 328 328 328 327 327 334 341 346 343 344 349 350 349 348 350 350 349 348 346 347 347 347 346 340 333 338 344 342 348 345 347 352 351 352 352 346 350 350 346 344 350 348 344 342 341 342
327 327 328 330 329 328 329 328 329 331 346 346 346 348 348 351 350 350 350 351 350 348 347 348 349 347 345 338 329 340 340 342 347 348 346 350 346 349 350 348 346 342 347 348 349 347 345 340 339
327 329 327 328 329 330 330 330 329 330 332 349 345 340 343 348 351 351 351 350 351 350 348 348 350 348 347 342 332 331 333 332 345 345 349 346 348 348 347 349 349 348 345 351 350 349 349 353 347
324 326 328 328 331 333 330 333 332 332 331 336 347 347 347 349 347 350 351 351 351 351 351 349 350 350 349 348 340 330 330 328 330 341 347 350 346 346 353 347 346 345 350 349 352 351 349 351 348
324 325 327 328 330 331 331 332 334 337 333 333 347 344 339 341 341 348 347 351 351 352 352 351 351 353 353 351 349 343 333 331 329 336 341 345 350 351 346 351 348 349 347 351 351 348 354 353 348
320 324 325 329 332 331 331 331 332 334 333 333 332 342 341 343 345 342 343 349 352 352 352 353 352 353 355 354 353 351 348 338 331 329 336 345 345 348 349 346 351 351 348 348 350 346 347 354 354

GFSSGP_850_thetae_069.txt.gz
Theta_e
336 346 349 347 353 355 363 361 352 353 353 351 352 352 353 352 353 353 345 343 340 340 341 341 340 342 342 342 342 340 340 341 341 337 339 338 338 336 341 336 339 329 337 332 337 335 332 332 339
340 346 349 351 360 365 363 357 359 352 351 352 353 352 352 351 349 345 346 343 341 342 343 343 345 344 342 342 342 337 333 335 337 341 339 340 337 335 340 339 341 331 338 339 334 332 338 334 337
345 348 349 355 359 360 364 355 357 351 351 353 353 351 351 349 348 347 346 345 345 344 343 344 345 340 336 333 337 340 342 341 337 339 339 342 337 335 340 338 339 338 333 337 338 334 331 331 333
349 350 350 355 363 352 357 353 352 353 353 352 352 351 349 350 349 347 347 348 347 345 344 342 332 332 336 338 343 344 340 340 338 339 340 340 340 340 338 334 339 338 337 336 331 328 329 333 335
352 351 357 360 362 356 352 350 350 353 353 352 351 351 351 350 347 345 347 346 347 344 333 333 338 335 339 341 341 341 339 339 340 340 339 339 340 340 337 333 339 339 337 335 332 331 326 330 337
351 353 360 362 359 355 354 351 353 353 353 352 351 351 351 349 346 346 346 346 343 334 331 335 338 337 341 339 339 340 340 340 340 341 339 334 332 335 335 333 339 339 336 334 331 332 327 336 342
351 356 361 358 359 358 355 351 352 353 352 351 351 351 350 346 346 347 346 344 343 330 333 339 337 336 337 340 339 338 342 340 339 331 334 337 338 335 331 333 337 340 339 333 331 331 327 342 343
352 354 359 359 358 354 350 352 352 353 354 351 350 351 350 348 347 347 345 346 345 333 334 335 332 340 340 340 337 342 339 334 330 334 341 341 341 338 334 333 337 337 336 335 333 330 328 339 342
350 355 360 360 351 349 347 352 353 353 352 352 352 350 349 346 348 347 345 343 342 334 332 331 335 339 338 338 339 337 332 333 333 342 347 345 340 338 334 333 336 337 336 336 332 332 338 341 343
347 355 357 349 350 351 349 351 354 354 355 353 351 350 349 346 347 345 344 344 343 341 340 334 335 339 338 337 337 333 341 345 345 347 348 347 343 338 334 334 336 337 335 334 335 338 341 342 342
346 350 351 352 350 353 354 355 353 354 356 352 351 350 349 347 348 345 344 345 342 340 345 345 342 343 335 336 338 344 340 342 343 348 347 346 344 339 339 338 337 341 342 343 340 343 340 341 340
344 345 347 351 352 354 355 354 351 351 352 352 350 349 349 349 348 343 345 345 342 343 345 347 342 342 342 340 343 346 346 346 346 345 346 340 344 344 345 345 342 341 344 341 344 341 344 344 342
342 343 344 347 351 354 354 352 344 349 352 352 350 349 349 348 348 344 340 343 341 342 346 343 343 345 345 344 348 348 349 346 343 342 343 344 344 345 345 345 340 344 343 343 343 342 342 342 344
339 340 341 347 351 350 351 352 350 350 351 352 350 349 349 348 348 344 341 341 341 344 344 341 345 346 346 346 347 347 348 348 347 345 340 345 347 346 344 345 344 344 344 344 342 341 340 341 342
336 331 332 340 351 352 353 356 355 351 350 351 350 349 348 347 347 344 343 340 341 343 344 341 340 346 344 347 346 349 348 347 346 347 344 347 343 346 344 344 344 343 344 344 345 345 345 343 341
331 327 329 332 341 351 352 361 355 351 353 351 350 349 348 348 345 345 343 341 339 344 344 342 340 341 345 344 347 349 344 344 346 347 348 347 346 344 347 344 345 346 343 343 340 345 345 343 343
330 327 329 330 333 342 349 356 354 347 348 351 350 349 349 349 345 346 343 341 339 343 343 343 341 338 341 345 344 346 348 348 348 347 345 344 346 346 345 344 346 343 343 340 341 342 344 344 343
329 326 326 328 333 336 352 356 348 345 350 352 351 349 348 349 349 347 343 341 340 341 343 344 342 338 338 344 341 346 348 347 347 349 351 344 344 344 347 344 343 347 343 342 342 343 344 343 342
327 329 328 327 330 333 350 353 347 342 346 353 351 349 348 349 349 348 343 342 341 340 341 342 343 342 343 344 342 343 349 347 347 348 347 349 347 339 341 344 343 346 345 344 342 344 343 341 341
327 327 328 328 327 341 354 353 348 343 349 350 347 350 349 349 350 347 344 342 342 341 341 341 343 344 343 347 342 346 346 346 348 347 348 345 348 347 349 341 343 344 344 344 344 344 341 338 340
325 326 326 327 326 338 349 352 350 347 345 347 349 349 349 349 349 349 345 344 342 342 341 340 342 345 345 342 344 347 349 348 348 350 349 348 353 347 350 345 346 348 347 340 345 342 341 338 338
322 325 326 326 324 324 336 352 350 346 347 349 350 346 348 348 349 349 346 344 344 343 342 342 341 347 345 343 340 346 347 348 348 347 349 348 342 343 349 347 347 347 348 347 339 343 343 343 343
324 325 325 326 324 323 324 324 351 346 349 349 346 347 345 348 348 348 348 343 345 344 343 343 341 345 346 345 339 344 346 347 349 349 350 348 344 342 347 345 343 341 346 345 343 343 344 342 345
325 324 323 323 323 323 322 323 350 350 349 344 344 342 346 348 348 348 348 346 344 345 344 343 342 342 344 344 340 343 345 346 349 347 350 348 349 346 348 350 349 342 346 347 346 345 344 347 345
324 323 321 322 323 324 323 322 321 349 347 342 343 345 346 347 349 349 348 347 345 346 344 344 343 342 340 342 340 339 341 346 346 348 343 351 349 347 345 349 349 344 340 347 345 345 342 344 344
324 321 321 325 324 324 323 324 324 339 347 344 344 342 345 348 349 349 348 347 347 346 345 344 344 344 341 334 338 338 336 341 346 347 347 349 347 345 350 345 343 342 340 340 342 345 337 341 342
325 324 323 322 323 324 325 325 325 325 343 344 342 342 349 349 348 348 349 348 347 347 347 346 345 345 344 335 332 337 335 341 343 346 349 352 350 345 349 351 348 347 345 342 339 341 343 341 339
322 323 321 321 324 325 326 326 327 329 332 343 342 348 345 348 348 348 349 350 348 347 347 347 347 345 345 344 333 331 331 330 343 344 346 347 349 349 349 351 350 348 346 338 345 346 343 346 347
318 319 321 321 322 324 324 325 325 327 328 333 344 345 340 340 341 347 346 349 350 350 348 348 348 347 346 346 343 332 331 329 330 344 344 346 345 346 347 352 350 348 347 342 340 344 346 346 348
316 316 316 321 323 325 327 328 327 325 326 335 343 347 343 344 346 335 339 340 349 350 351 349 348 348 347 346 347 344 332 329 328 328 343 343 347 342 345 348 350 350 348 348 343 344 345 353 353

GFSSGP_850_thetae_072.txt.gz
Theta_e
335 335 347 347 351 355 360 359 353 353 353 348 349 351 352 350 352 347 342 338 336 340 339 337 336 334 339 341 339 340 341 341 339 335 337 337 337 337 336 332 341 334 337 337 332 334 337 337 336
343 348 349 350 361 362 363 357 356 353 352 351 352 351 351 350 347 347 341 339 339 339 339 337 338 341 341 341 339 337 341 337 339 338 338 336 337 341 341 337 327 340 337 329 339 335 336 338 338
344 348 348 354 359 358 359 355 353 353 352 352 351 351 349 347 346 345 341 340 340 340 340 341 343 342 341 339 333 333 339 335 338 338 340 335 339 339 340 340 338 340 339 336 332 334 336 336 341
346 349 350 354 360 354 355 353 353 352 351 350 349 348 348 346 346 343 341 340 340 341 343 344 341 337 333 340 342 341 340 337 338 340 340 338 340 340 341 339 339 337 335 331 328 329 332 335 343
352 351 356 358 358 350 349 351 352 353 352 351 350 350 350 348 345 343 341 341 342 343 343 336 339 336 338 342 343 339 339 339 340 340 339 341 341 339 338 339 338 336 333 331 329 331 333 337 342
352 351 359 362 355 352 351 350 352 352 352 350 350 350 349 346 345 347 343 343 342 340 335 332 338 339 341 339 341 339 338 340 340 339 337 338 340 335 333 338 337 334 333 332 328 330 336 343 343
351 355 359 358 358 354 353 351 353 352 351 351 350 350 348 346 346 345 342 340 336 330 333 338 337 339 338 338 339 339 340 340 332 335 336 336 332 333 335 338 339 333 331 331 327 334 342 344 343
351 353 358 354 359 353 348 353 353 352 352 350 348 349 347 347 348 347 345 341 330 330 334 336 335 336 338 339 339 339 336 330 336 339 341 339 337 332 334 338 338 333 331 330 328 343 344 344 345
350 353 359 358 350 350 349 352 352 352 351 351 351 348 342 347 348 346 345 342 331 333 335 332 336 336 336 338 339 332 329 336 343 344 341 338 336 332 335 336 336 336 333 330 328 340 341 342 344
350 350 356 351 349 352 350 350 353 353 351 350 350 345 346 348 346 346 345 340 333 336 331 333 337 337 336 339 333 334 334 341 346 345 341 338 335 333 335 336 336 334 331 333 335 338 341 343 343
347 351 349 350 351 353 353 354 353 353 353 351 350 348 347 347 346 345 345 338 331 332 329 332 335 336 337 332 339 344 344 346 346 346 340 338 337 335 336 338 340 337 337 338 340 341 342 343 342
341 344 346 347 353 355 354 350 349 352 353 350 348 345 347 348 344 346 343 341 339 336 337 341 335 335 336 336 336 338 341 341 345 343 340 341 342 342 339 338 341 343 341 341 342 341 341 343 343
339 340 343 343 352 355 351 347 350 350 352 351 349 347 347 347 346 345 342 343 339 341 343 338 335 337 336 341 343 344 345 341 343 343 340 342 344 343 346 341 342 342 342 340 343 341 341 343 343
339 338 337 336 355 354 352 349 347 350 352 350 349 348 347 347 346 343 344 343 341 342 344 340 342 341 344 344 346 348 346 344 345 343 342 344 344 342 343 342 342 342 342 340 342 341 342 343 342
336 332 328 349 352 351 349 353 354 349 352 350 349 348 348 347 347 344 344 342 342 343 344 340 341 344 344 347 347 347 346 346 346 343 341 345 344 343 343 344 344 344 342 340 341 343 343 344 344
328 326 326 335 351 351 351 359 352 351 351 350 349 348 348 348 348 342 342 343 341 345 344 341 346 346 344 346 347 345 347 347 346 346 344 343 343 344 343 344 342 343 342 343 344 343 343 341 342
324 329 329 327 348 352 351 358 350 346 350 350 349 347 347 347 348 346 341 341 342 344 342 344 344 345 345 345 346 347 344 346 345 346 343 344 344 343 345 344 345 343 343 343 343 343 341 342 342
328 328 324 325 326 349 352 356 351 353 352 351 350 348 347 347 347 347 340 340 342 343 343 341 339 341 343 346 347 347 348 347 347 347 345 343 343 345 343 344 343 344 343 340 342 343 343 342 343
325 325 325 326 327 326 351 355 353 350 349 352 350 349 347 347 347 346 340 339 340 343 343 342 340 339 339 345 344 348 347 348 346 348 349 345 344 344 347 342 344 343 344 341 344 342 342 341 342
326 325 324 324 327 345 354 355 348 349 351 351 351 349 348 348 348 348 342 340 339 341 342 343 342 340 337 344 343 345 347 347 346 346 347 347 345 344 344 344 345 345 343 343 342 343 341 341 342
326 325 325 324 339 346 349 352 347 344 349 351 351 349 349 348 348 349 343 340 339 340 341 341 341 339 336 344 342 344 346 346 348 347 347 344 345 347 349 339 343 347 343 341 342 342 340 340 341
325 322 324 324 322 322 339 355 350 346 349 351 351 347 348 349 347 348 345 341 340 340 340 340 340 340 337 340 340 342 345 347 347 347 347 347 346 345 349 344 344 346 345 341 342 343 342 337 338
326 325 322 323 321 321 322 322 335 345 348 351 350 346 348 348 348 348 348 343 341 341 341 340 340 340 337 343 338 344 345 347 346 347 347 349 343 342 346 346 347 347 347 344 340 343 342 342 343
324 322 319 318 318 320 320 320 332 345 346 346 350 350 349 348 348 348 348 345 343 342 341 341 341 341 339 344 340 345 346 348 348 347 348 348 343 343 342 342 341 340 344 343 336 339 342 342 343
322 317 318 321 319 319 318 320 320 340 343 342 347 349 348 348 348 348 348 344 343 342 342 342 342 342 341 339 344 339 346 346 347 349 348 350 347 347 343 346 348 341 342 345 344 342 340 343 344
323 317 318 322 321 321 319 322 322 328 341 342 342 346 348 345 347 348 347 344 344 343 343 343 343 343 342 337 341 338 342 346 346 349 348 348 348 347 345 342 347 346 340 341 344 342 340 343 343
322 322 318 318 318 319 320 321 322 323 335 343 341 343 345 345 347 348 347 346 344 343 343 343 343 343 343 342 335 340 336 344 346 347 348 348 346 346 345 348 343 344 341 337 340 341 339 337 340
313 315 319 315 322 323 321 323 322 323 331 338 342 342 345 347 347 348 348 347 346 345 345 344 344 344 344 343 342 335 337 336 345 346 349 344 347 347 345 349 349 346 346 343 339 338 342 342 338
313 313 312 315 317 321 321 321 325 327 334 336 340 343 342 346 348 348 349 348 347 347 346 346 345 344 344 344 344 343 334 335 338 344 347 348 349 351 347 349 350 350 348 346 338 342 342 341 342
314 312 309 312 314 317 321 323 323 327 329 337 341 340 342 346 348 348 349 348 348 347 347 347 347 346 345 345 344 344 342 332 334 338 344 346 349 350 349 349 349 351 349 347 346 338 342 343 344

GFSSGP_850_thetae_075.txt.gz
Theta_e
333 339 346 347 347 354 354 351 353 354 350 347 343 347 349 349 350 347 341 333 333 335 337 338 337 336 340 339 340 341 340 339 333 338 337 336 333 333 330 339 334 326 334 330 334 335 337 336 337
334 340 348 350 360 361 359 354 357 352 349 345 351 350 350 349 347 343 337 334 334 337 337 337 335 336 341 339 340 340 341 338 339 337 336 342 340 342 331 335 338 337 335 336 335 336 337 338 340
346 348 348 354 358 358 358 353 354 352 349 350 350 349 347 347 345 339 338 335 338 337 337 335 336 341 341 339 337 341 339 341 338 338 335 339 339 341 338 334 339 337 336 338 336 336 337 339 343
345 346 350 355 358 354 353 353 352 352 351 350 348 348 347 346 341 340 337 337 338 338 337 340 341 341 341 333 333 339 335 339 338 341 335 339 338 339 339 339 336 338 338 333 336 336 337 342 344
348 351 356 358 359 350 350 351 352 352 352 349 349 350 347 346 343 339 338 338 338 339 341 342 340 335 337 341 341 339 337 338 340 340 339 340 340 339 338 337 340 332 329 329 330 333 337 343 344
352 351 359 361 355 351 350 351 352 352 350 349 349 348 348 346 342 339 339 339 339 341 342 339 338 340 342 342 340 341 339 340 341 340 340 340 340 338 337 337 339 339 330 328 331 335 338 342 343
351 354 358 356 357 356 352 352 351 352 350 349 348 348 348 344 341 340 339 340 342 341 335 340 340 340 342 342 340 341 340 338 334 335 338 339 334 336 338 338 336 334 331 328 334 338 341 342 342
351 351 355 352 359 355 349 352 353 351 351 349 346 347 347 345 342 342 342 342 341 335 333 337 339 341 337 339 339 339 335 333 337 338 336 331 333 340 340 337 331 331 330 329 337 341 343 342 343
349 354 358 355 354 352 349 353 352 351 350 348 350 345 345 347 345 345 343 340 335 334 336 336 336 337 338 339 337 332 334 339 339 339 336 336 333 336 337 335 334 330 328 334 341 342 343 343 343
349 351 355 350 347 351 350 352 348 353 350 350 347 344 348 346 346 345 343 337 333 334 336 334 334 335 337 338 331 331 340 341 338 337 335 333 333 336 336 336 335 331 328 339 342 341 341 343 343
348 352 349 350 352 347 350 351 349 352 352 350 345 346 347 347 346 345 341 332 330 335 332 336 335 335 338 330 329 335 343 345 340 337 334 333 333 336 335 334 332 332 332 332 340 341 342 342 342
343 343 348 347 352 353 351 347 350 350 353 351 344 347 347 347 346 345 343 334 332 333 330 335 336 336 332 334 341 344 345 344 344 337 337 336 335 337 340 340 335 337 339 340 341 342 341 341 342
339 339 339 340 343 354 348 347 346 347 350 350 345 347 346 346 347 345 344 338 331 330 331 334 335 335 331 341 341 341 342 345 342 338 341 342 342 340 339 342 340 341 341 341 342 342 342 343 342
338 337 337 337 351 350 349 349 347 351 350 351 348 347 346 345 346 345 344 333 334 334 337 335 334 335 335 336 341 343 342 343 343 340 340 341 343 344 343 341 342 340 341 342 342 343 343 343 341
335 336 329 351 353 352 346 347 352 350 352 352 349 347 347 345 345 345 343 341 336 336 336 336 336 336 341 344 345 345 343 344 344 344 343 343 343 342 341 341 342 341 339 341 341 341 342 342 342
327 324 326 350 350 348 349 356 351 350 350 351 349 347 347 347 346 345 344 342 339 340 339 341 340 342 344 345 346 347 346 346 345 345 342 345 343 342 343 343 342 341 339 341 342 343 343 342 341
322 329 329 328 349 350 350 354 350 352 345 350 349 348 347 347 346 343 343 343 341 341 342 339 342 343 343 345 345 343 345 346 346 345 344 344 343 343 343 343 342 341 342 341 341 342 341 343 342
328 328 325 325 348 351 353 353 351 351 350 350 349 348 347 347 347 344 343 343 341 341 343 340 340 344 344 344 346 344 346 346 347 347 346 344 344 343 344 344 344 341 341 341 341 342 340 343 342
326 325 325 325 325 325 350 352 351 350 349 350 349 347 347 347 347 347 344 342 342 341 344 341 340 343 345 345 346 346 345 346 347 348 344 344 343 345 343 344 344 344 343 340 342 341 342 342 342
327 326 325 324 331 335 351 354 350 351 349 351 349 347 347 347 347 347 346 341 342 341 344 341 341 343 345 343 345 345 347 346 346 345 348 345 345 344 346 343 344 343 342 341 343 341 341 341 342
326 325 325 325 330 347 349 356 353 349 349 349 351 350 347 346 347 347 346 342 341 343 343 342 341 340 340 342 344 344 347 347 346 346 348 346 345 345 345 344 344 343 343 342 341 341 340 341 343
326 323 325 324 320 321 341 356 352 346 347 348 351 351 349 347 346 347 346 342 341 342 342 342 342 341 340 338 343 342 345 346 345 346 346 346 346 345 347 339 343 344 343 342 342 341 341 339 340
325 324 322 322 320 320 324 326 338 345 348 349 350 351 350 349 347 347 347 346 340 341 342 341 341 341 340 336 337 343 342 344 341 346 347 347 345 346 345 345 342 344 345 343 342 342 343 340 338
323 323 317 314 315 318 319 319 323 345 347 345 349 350 351 349 348 347 347 347 341 340 341 341 341 340 340 337 335 343 341 341 345 345 347 348 345 342 344 349 344 346 346 344 341 342 342 340 340
317 316 318 319 318 319 317 319 320 337 341 342 345 349 350 350 346 347 347 346 345 341 340 340 341 340 340 340 335 335 338 342 345 346 346 348 347 342 342 344 342 342 341 344 340 341 342 341 341
321 316 317 321 319 320 316 320 322 320 325 334 342 346 348 349 347 347 347 348 347 346 341 340 341 341 341 341 339 334 335 343 345 346 346 347 348 346 346 344 346 348 342 344 342 341 339 340 342
318 318 317 315 315 319 318 320 321 327 333 336 340 343 348 348 348 347 347 348 348 347 345 342 341 341 341 341 342 335 333 343 344 346 346 348 348 348 347 347 343 346 349 344 343 346 343 339 340
312 312 316 313 320 323 319 320 326 329 332 336 339 341 345 348 347 346 347 347 347 348 347 345 343 342 342 342 342 342 333 333 339 345 345 347 348 348 346 348 346 343 345 346 342 341 343 340 336
311 311 309 311 314 318 320 321 321 327 329 338 340 341 341 345 347 346 348 347 347 347 346 346 343 342 342 342 343 342 342 332 333 340 345 346 347 347 346 348 348 347 347 346 346 341 342 341 342
310 310 307 310 313 311 317 321 314 315 325 336 339 341 342 343 346 346 345 346 346 346 346 346 344 343 342 343 343 343 343 343 331 331 339 345 346 347 347 349 348 349 350 349 347 346 342 344 342

GFSSGP_850_thetae_078.txt.gz
Theta_e
333 334 342 346 348 354 355 351 350 354 350 346 342 343 344 346 348 345 340 334 334 337 337 337 336 335 337 337 330 331 337 333 330 335 334 331 331 329 328 328 326 338 331 339 335 336 340 341 340
337 344 347 349 358 360 359 353 355 352 346 343 349 348 349 349 346 341 335 334 335 337 337 337 335 339 339 339 340 339 338 335 337 336 337 338 338 332 342 336 333 332 334 340 336 336 336 335 337
337 347 348 353 357 356 357 353 353 348 345 350 349 348 347 346 346 337 334 334 335 337 337 336 335 339 338 339 339 339 337 337 339 336 340 340 342 335 329 339 336 331 335 335 336 336 336 341 343
347 346 349 354 355 353 352 353 351 350 350 350 348 348 345 346 338 335 333 333 335 337 337 335 335 340 338 338 338 341 340 339 340 336 341 339 340 340 342 338 338 333 338 336 335 337 338 342 343
345 350 356 358 358 352 349 352 352 352 351 349 349 348 346 342 340 335 333 335 336 336 334 336 340 341 338 332 338 337 338 339 341 338 338 340 338 339 337 337 336 337 334 337 335 338 341 342 342
351 351 358 360 356 351 351 352 352 352 350 348 346 346 346 345 339 335 336 337 336 335 339 340 339 336 339 340 339 337 339 342 340 340 340 340 339 339 339 338 331 329 339 332 334 338 342 342 341
351 354 356 353 357 356 352 352 353 351 349 348 347 347 346 344 337 336 338 337 337 340 340 337 334 342 341 340 339 339 339 340 341 340 339 339 336 338 338 339 338 339 337 331 334 338 342 342 340
351 350 354 351 357 356 350 353 352 352 350 348 347 345 346 343 337 338 338 338 340 341 337 337 340 340 342 340 341 339 336 334 335 334 338 337 335 339 340 337 337 333 331 334 336 341 342 342 341
349 352 357 355 354 353 349 354 352 351 349 348 348 345 345 340 339 339 340 341 342 337 336 338 340 341 340 338 340 333 336 340 338 336 332 334 337 340 339 336 337 329 331 337 340 341 341 342 341
349 352 353 349 349 351 351 348 350 347 349 346 347 345 344 340 340 341 342 342 339 334 337 337 336 337 338 336 332 334 338 337 336 335 334 332 336 336 335 338 336 328 336 340 341 342 342 341 341
349 352 349 350 350 351 350 347 349 351 352 347 347 346 344 342 343 342 341 336 330 333 334 336 336 337 338 329 332 338 338 337 335 333 332 334 335 335 335 333 330 329 340 340 340 341 342 341 342
346 344 347 349 351 350 350 350 350 350 351 349 345 344 346 345 344 340 335 331 329 332 332 333 335 336 334 329 338 341 339 339 338 334 332 334 334 334 334 332 333 331 333 340 341 342 340 341 342
340 342 341 341 344 352 347 348 348 351 350 345 347 346 347 345 342 336 332 331 330 332 333 334 335 338 330 332 337 343 344 343 338 337 336 335 337 341 338 336 338 339 339 340 341 341 340 342 341
337 338 337 336 340 349 346 345 348 346 350 345 347 346 346 345 345 343 341 333 331 330 333 334 335 333 333 340 340 340 343 341 337 340 341 341 340 340 340 340 341 342 341 341 343 342 342 341 341
333 335 334 351 350 350 347 348 350 348 352 346 346 346 346 346 345 344 343 336 330 329 332 333 335 332 336 338 341 340 342 342 341 340 341 341 342 342 341 341 342 341 342 342 342 342 342 341 340
325 324 327 351 349 349 346 353 353 352 353 350 347 346 346 346 346 346 344 335 332 330 333 332 334 333 334 339 343 343 343 344 343 343 342 342 342 342 341 341 342 340 339 341 341 341 341 340 340
322 329 328 332 349 348 348 352 350 350 352 350 347 347 346 345 345 346 344 339 333 337 333 333 334 336 342 343 345 345 345 344 345 344 343 344 343 343 342 343 342 339 340 341 342 342 342 341 342
328 327 324 326 350 350 349 350 349 352 348 350 349 346 346 346 345 345 345 342 335 337 336 336 337 340 343 345 345 345 344 345 345 346 344 344 343 342 342 343 342 341 341 339 342 342 341 342 341
326 324 325 324 324 326 343 349 351 351 350 350 349 347 346 346 346 345 345 344 340 340 339 340 339 340 342 344 345 344 345 345 345 347 346 345 343 342 344 343 343 341 340 340 342 341 341 342 341
326 326 326 325 331 333 350 352 349 348 349 350 349 348 347 346 346 346 343 343 343 340 342 341 340 341 340 341 341 344 343 344 346 347 345 343 342 343 343 343 343 343 342 339 342 340 341 342 341
326 325 325 326 326 346 347 351 353 350 348 349 349 348 347 346 346 347 346 343 342 343 341 342 341 341 340 340 344 345 345 346 346 343 345 345 344 343 344 345 342 345 342 339 342 341 340 340 341
326 323 325 325 319 320 340 341 349 348 348 347 348 350 348 346 346 347 347 346 343 342 342 341 342 341 341 342 344 344 343 344 346 344 344 347 346 343 344 344 343 343 343 342 342 341 340 340 341
325 322 323 323 319 318 324 330 337 343 345 345 346 347 350 347 346 346 346 347 347 343 342 341 343 342 341 342 342 343 343 342 346 345 345 346 345 344 344 344 340 343 343 343 342 342 341 340 339
322 318 313 312 313 318 319 321 319 344 345 343 343 346 348 350 348 346 346 346 346 344 341 341 343 342 341 341 340 340 341 341 342 342 345 346 347 346 344 344 344 342 344 343 340 340 341 342 339
317 316 316 318 317 319 314 318 322 319 325 334 337 345 348 350 349 346 346 346 346 344 341 341 343 342 341 341 339 337 339 340 339 341 342 345 347 346 340 342 347 344 342 346 345 342 341 341 339
317 316 316 320 318 319 316 319 324 327 333 337 339 339 347 350 350 348 346 346 347 347 344 341 342 342 341 341 340 337 336 340 340 339 342 345 346 346 343 343 343 345 345 342 345 339 340 342 341
318 315 314 313 314 317 317 323 322 321 328 336 339 340 344 348 350 349 348 347 346 347 347 343 340 340 341 340 340 339 336 338 334 338 343 344 344 346 348 346 346 344 345 346 343 345 343 342 340
311 311 316 314 320 322 318 323 321 316 316 324 337 338 339 341 348 349 348 347 347 346 346 347 344 341 340 340 341 340 340 336 334 338 342 343 343 345 346 348 348 347 343 343 347 342 344 345 343
309 309 308 310 312 318 322 320 315 314 319 319 334 338 341 341 342 348 348 347 346 347 347 347 347 344 340 341 341 341 341 338 335 337 338 342 343 345 346 345 346 347 345 344 344 345 343 341 342
308 308 306 312 314 310 315 315 311 320 326 330 335 338 341 342 343 347 347 347 347 346 346 347 347 346 345 342 341 341 341 342 337 335 334 336 343 344 347 344 345 347 347 348 348 347 347 344 342

GFSSGP_850_thetae_081.txt.gz
Theta_e
333 333 338 346 352 354 358 351 351 353 350 346 343 343 343 342 347 351 339 335 338 340 341 338 335 336 334 329 330 336 334 330 332 333 333 330 330 326 325 327 337 333 338 334 340 339 341 341 339
334 344 347 349 356 359 359 353 355 352 348 345 347 345 348 347 347 341 336 335 337 338 337 336 335 337 337 333 332 337 336 333 336 335 334 337 332 340 337 330 335 336 341 337 338 340 340 339 339
341 347 350 354 357 356 357 353 354 347 345 347 350 348 349 347 343 338 335 336 337 338 337 335 337 339 338 339 340 338 336 337 336 337 340 341 337 331 339 336 333 337 338 336 336 337 337 341 342
347 346 349 355 357 354 352 354 347 349 350 350 349 349 346 345 339 335 334 336 337 337 336 335 338 338 337 338 338 336 337 338 336 336 339 340 340 342 338 338 338 336 337 338 336 338 341 343 341
345 351 357 359 358 354 351 352 349 350 351 349 350 347 343 343 337 334 334 336 337 337 337 335 337 339 337 335 341 338 339 340 340 338 342 341 341 337 337 338 339 338 338 336 337 340 341 339 342
352 352 359 361 356 354 352 352 353 352 350 348 347 346 346 343 335 334 334 336 337 337 336 336 340 339 333 335 341 336 338 341 340 340 340 339 339 340 339 332 330 337 337 335 338 341 340 338 337
352 354 355 352 357 357 353 352 352 351 350 349 346 348 344 343 335 334 335 336 336 335 337 340 337 338 341 341 342 342 341 339 339 339 339 336 339 337 338 338 339 336 332 335 339 342 341 339 339
352 353 355 354 356 357 351 352 352 352 350 348 347 347 345 342 336 337 338 337 335 338 340 335 339 344 343 342 340 340 340 341 340 339 338 337 338 339 337 337 334 329 331 335 339 342 340 341 340
350 356 358 355 354 354 351 353 349 349 349 348 347 346 344 342 339 342 342 343 340 340 339 338 341 342 342 343 341 338 340 337 336 339 336 336 340 339 342 336 330 331 335 339 341 341 342 341 340
350 353 355 349 350 352 349 350 351 348 349 348 347 346 344 342 342 343 343 341 345 340 341 343 344 339 340 344 339 339 342 340 336 334 332 336 337 335 341 337 327 333 339 341 341 340 341 342 343
350 354 350 349 350 351 349 347 349 350 352 348 347 347 344 343 343 343 343 341 344 333 338 340 339 337 338 337 334 337 337 334 333 331 333 335 334 336 335 334 331 339 340 341 341 342 341 341 341
350 347 348 349 352 351 350 348 350 348 352 348 347 346 344 343 343 344 344 344 341 334 335 335 336 337 334 330 337 336 336 333 332 332 334 335 335 334 332 331 330 339 340 341 342 340 340 342 342
346 346 343 343 350 352 350 350 350 350 350 347 346 345 344 344 344 345 344 340 339 334 335 335 335 336 329 334 339 338 339 336 332 333 334 334 337 333 333 335 335 336 340 341 340 339 341 342 341
338 340 338 337 337 349 349 348 348 351 349 347 346 345 345 345 345 345 341 332 330 333 332 334 335 334 328 335 342 343 343 337 337 337 336 338 340 339 338 339 342 340 340 341 340 341 342 342 341
333 335 346 350 348 349 346 350 350 350 348 348 347 346 346 346 346 339 332 330 330 331 334 334 335 331 333 337 341 343 343 339 339 340 340 341 341 340 340 341 342 341 341 341 341 342 342 340 340
330 329 334 353 351 349 349 355 352 350 347 348 347 346 346 345 343 341 338 334 330 330 334 334 334 331 338 340 339 341 342 342 341 341 342 342 342 342 341 341 342 341 342 341 341 341 341 340 341
329 339 332 351 351 351 350 351 353 352 349 347 346 346 345 345 346 346 344 337 331 329 332 333 333 330 335 341 342 343 343 344 344 343 342 341 341 342 342 342 341 339 341 341 341 342 341 341 342
337 333 329 341 352 350 352 351 352 353 353 349 347 346 345 345 346 346 345 342 332 329 331 333 333 331 334 341 344 346 345 344 345 345 343 343 344 342 342 342 342 339 340 341 342 342 341 342 340
330 330 331 328 332 337 339 342 349 352 348 350 348 347 346 345 346 347 346 344 335 334 333 333 333 335 340 343 344 344 344 344 345 346 345 345 342 342 342 343 341 340 341 339 341 341 341 341 340
331 332 331 328 339 332 349 351 349 349 349 349 349 347 348 346 346 346 346 345 341 334 335 335 335 337 341 343 343 343 343 344 344 346 344 344 345 342 343 343 343 342 340 340 342 340 341 341 341
331 334 331 330 327 348 349 353 352 351 350 351 351 349 348 347 347 346 345 345 344 337 337 338 338 339 341 342 343 343 343 344 345 345 344 344 343 343 344 343 341 344 342 338 342 339 339 340 341
334 328 330 329 328 328 346 338 353 350 352 349 351 351 349 348 347 347 346 345 344 344 339 340 340 339 341 341 342 342 344 344 344 342 342 346 345 342 343 344 341 343 342 341 341 341 340 340 340
331 327 329 328 328 325 335 339 331 349 351 350 347 349 350 348 347 347 346 345 343 343 343 341 341 341 341 341 342 343 344 344 345 344 344 346 346 344 344 345 344 343 345 343 342 341 340 339 339
325 323 322 322 324 327 328 334 337 338 338 340 341 346 348 350 348 347 347 346 345 346 343 342 342 341 341 341 341 342 344 344 343 345 345 345 346 344 342 345 341 342 344 343 342 342 341 341 340
325 326 327 328 327 328 322 331 338 335 336 340 341 340 342 348 350 347 346 346 346 347 347 345 342 341 342 342 341 341 344 343 341 342 342 345 345 347 344 342 345 345 343 345 344 341 339 340 341
326 327 327 329 328 327 322 332 332 322 325 330 339 341 343 346 349 350 347 346 346 347 347 346 343 341 341 342 341 341 342 342 342 342 341 341 345 344 345 341 341 343 343 343 345 344 343 341 341
321 324 320 323 320 327 325 327 327 325 331 334 340 342 343 343 349 350 349 346 346 346 346 346 345 341 340 342 342 341 341 340 337 339 341 340 343 343 346 346 345 342 344 345 343 346 339 340 341
319 316 324 324 327 327 328 327 326 331 336 338 337 339 343 344 344 350 350 346 346 346 346 346 346 345 342 340 341 341 341 339 336 338 341 339 343 345 345 347 348 346 344 342 344 346 343 344 343
317 319 319 322 322 327 330 326 324 333 335 333 334 339 342 346 343 346 350 349 347 346 346 346 346 346 344 341 341 341 341 340 339 337 338 337 342 344 343 345 346 347 348 343 342 344 345 342 341
312 314 316 326 325 322 326 322 328 331 331 330 332 337 339 341 346 347 348 349 346 347 346 346 346 346 346 346 343 341 340 340 340 340 336 334 340 343 344 344 344 345 346 346 346 346 346 347 345

GFSSGP_850_thetae_084.txt.gz
Theta_e
335 340 343 348 355 355 360 355 353 353 353 349 346 344 344 344 349 355 342 343 346 347 345 341 344 330 330 335 336 332 335 331 342 334 330 331 330 326 327 335 333 336 334 340 339 342 340 341 340
342 342 348 349 357 360 361 356 356 353 350 347 345 344 346 352 348 343 342 344 347 347 346 346 337 338 329 330 336 336 332 335 337 336 343 334 341 340 330 338 336 341 337 339 340 340 340 340 337
346 349 352 356 356 359 361 357 354 349 347 349 350 349 350 350 345 341 342 345 347 347 347 343 336 338 335 335 337 337 337 337 336 340 341 336 335 339 337 336 339 340 335 338 336 338 342 340 336
348 351 352 360 360 355 357 354 349 349 350 351 349 352 347 347 340 340 343 345 346 347 347 337 339 338 339 340 339 337 337 338 336 340 340 340 341 338 340 341 336 336 337 336 340 342 339 339 339
349 353 360 360 360 355 355 351 351 352 352 352 351 350 346 343 342 341 344 344 346 346 347 344 340 338 338 338 338 339 339 339 337 341 341 341 339 338 338 338 338 337 336 337 340 340 334 341 340
353 352 361 362 359 355 355 354 351 353 352 349 349 348 348 344 341 342 344 345 345 346 346 346 343 338 338 340 341 338 339 341 337 341 339 340 340 339 331 331 336 337 335 339 340 335 334 337 338
353 357 358 358 359 358 355 353 354 354 352 350 349 350 346 341 341 343 344 345 346 346 346 348 348 339 336 339 337 338 341 339 340 340 340 339 338 338 338 337 337 334 336 340 341 338 336 337 336
353 355 356 356 358 361 354 353 352 353 352 348 349 349 345 341 342 343 345 345 347 346 347 347 347 349 350 346 342 340 341 341 339 339 338 338 338 337 337 336 332 334 337 341 341 340 340 339 337
351 358 358 355 356 357 353 352 349 349 351 349 350 348 342 341 342 344 345 345 346 347 346 346 351 351 350 350 342 340 338 338 338 339 337 347 345 345 345 334 332 333 337 341 341 341 340 340 338
353 357 354 349 351 355 353 350 348 350 350 350 350 346 342 341 343 344 344 344 346 346 345 347 348 349 350 347 349 346 347 349 345 344 346 348 346 346 342 336 334 338 340 340 340 341 344 349 345
352 354 350 349 349 351 351 349 347 348 353 351 349 347 342 342 343 344 344 344 344 345 346 348 348 348 347 346 347 347 345 346 345 345 347 346 345 346 342 343 345 345 346 345 347 348 346 346 343
353 350 348 349 350 349 350 349 349 350 353 351 349 346 342 343 343 343 343 344 344 344 346 347 348 348 346 345 346 345 344 343 344 345 345 346 345 344 343 344 346 346 345 346 347 346 344 348 348
351 348 344 342 348 348 351 351 351 350 350 349 347 344 343 343 343 342 343 344 343 344 345 346 348 349 346 348 346 347 345 343 344 344 344 345 344 345 343 344 345 345 345 346 347 348 348 347 347
344 344 341 340 338 349 352 350 350 351 349 348 346 344 343 343 342 343 343 342 342 344 346 346 347 347 346 348 348 345 346 345 344 344 342 345 345 346 346 347 346 347 347 347 348 348 348 347 346
340 342 345 344 344 350 349 352 354 350 349 347 345 344 344 343 343 344 343 341 342 344 345 347 347 346 345 346 347 347 346 346 346 345 339 341 346 342 347 347 347 347 341 342 346 349 347 345 345
340 340 344 349 351 350 351 357 354 350 349 348 346 345 345 345 344 343 341 340 342 343 345 346 345 345 345 347 348 349 347 347 348 347 347 342 342 342 344 348 346 346 346 347 347 347 345 345 346
341 346 341 354 352 351 352 357 351 350 350 350 348 346 346 346 343 342 342 341 340 342 346 346 346 344 347 346 348 349 349 350 349 349 348 342 342 342 348 348 347 341 347 347 346 347 346 345 344
344 345 340 350 352 350 350 355 354 351 350 350 348 348 346 343 341 345 344 342 340 342 344 346 346 345 346 347 348 349 350 351 351 350 349 342 344 342 344 349 347 345 347 347 347 346 346 346 345
340 341 341 347 348 343 343 349 356 354 353 350 349 348 346 341 342 346 346 344 341 341 342 345 346 344 343 347 348 349 350 351 351 351 346 343 346 341 342 348 344 347 348 347 343 345 345 344 344
338 338 336 337 336 334 339 340 353 353 351 352 351 349 347 342 345 347 347 346 343 341 341 344 346 341 338 347 348 349 351 351 349 345 347 348 345 342 345 346 344 346 347 343 342 343 345 344 343
338 339 335 337 334 339 343 347 348 350 349 350 349 350 349 344 345 348 348 346 345 340 343 344 344 344 340 348 349 347 350 351 351 351 351 349 345 343 344 342 349 343 345 346 345 342 343 344 344
336 337 334 332 333 343 343 357 354 350 352 351 351 350 351 349 346 346 348 348 346 343 342 345 342 340 340 343 350 351 348 348 349 350 350 351 349 347 346 344 342 344 347 348 345 345 345 343 341
333 334 335 333 333 331 336 342 351 351 352 353 350 351 351 350 349 348 348 348 346 347 345 344 342 339 345 340 346 349 346 348 349 348 351 351 344 342 344 344 342 342 346 345 348 342 342 343 343
331 332 332 333 333 334 334 339 343 345 346 345 344 346 350 351 350 349 348 348 347 346 347 347 347 340 340 340 341 344 350 350 350 349 351 350 350 348 344 347 343 342 346 344 346 344 341 344 343
330 331 333 336 334 334 333 336 343 337 335 340 344 344 343 350 351 351 350 349 348 346 347 348 349 346 341 341 341 342 342 347 351 348 346 349 349 350 349 342 343 344 342 343 346 341 349 343 347
330 330 331 335 334 333 331 338 334 333 337 342 344 346 345 346 351 351 349 349 349 348 348 349 349 348 343 342 342 341 342 349 348 349 347 349 350 350 350 343 346 346 345 343 343 346 347 348 346
330 331 328 329 332 332 332 333 331 334 338 340 343 344 348 347 347 351 351 350 349 349 349 350 350 348 347 342 341 342 342 342 348 348 350 348 349 350 352 351 348 350 347 343 344 349 345 350 345
327 328 329 328 332 333 331 336 336 338 339 340 341 342 346 349 347 350 351 352 350 349 349 350 351 349 346 345 344 342 342 341 341 348 349 349 348 350 351 348 353 351 347 341 342 350 347 340 346
324 327 327 328 329 331 335 333 332 338 337 338 339 339 341 344 348 350 352 352 351 350 350 350 350 351 351 347 348 348 348 342 341 340 342 346 349 351 345 345 347 351 353 349 341 349 351 342 349
320 325 327 330 330 330 331 331 332 336 335 336 338 336 336 338 343 348 350 351 351 350 350 350 349 350 351 352 349 348 347 350 349 341 340 340 343 347 351 345 345 346 352 354 343 344 350 352 352

GFSSGP_850_thetae_087.txt.gz
Theta_e
337 340 346 347 358 357 361 360 352 355 352 347 344 344 347 350 353 354 346 348 348 347 343 338 328 327 328 330 330 335 329 338 334 330 331 332 326 327 333 335 336 335 340 341 340 340 339 340 341
345 343 348 349 363 363 363 357 356 353 349 346 344 344 350 352 348 344 346 348 348 346 346 347 334 331 335 336 334 338 338 342 340 342 336 342 340 331 342 336 339 337 339 340 339 340 337 333 332
347 347 351 356 359 365 364 357 353 350 347 346 347 350 352 346 344 345 346 347 348 346 347 342 340 332 330 335 341 342 338 337 341 341 335 340 339 338 337 339 340 336 338 337 341 340 336 333 331
349 351 353 361 361 357 358 352 350 351 351 349 350 352 348 345 344 346 346 347 346 348 349 336 344 342 342 339 341 343 342 338 340 341 340 341 339 340 339 336 338 338 337 340 342 339 340 339 333
349 352 362 362 361 357 353 351 351 351 350 349 352 351 345 342 343 346 346 347 346 349 348 345 341 342 341 342 340 340 340 337 340 341 340 340 338 338 338 336 338 336 338 340 335 337 341 338 332
352 355 364 365 361 357 354 355 352 352 352 351 351 349 346 344 344 345 345 346 347 346 348 347 343 342 339 341 338 339 341 338 341 339 339 339 338 330 338 336 337 337 339 339 334 337 338 336 332
354 359 361 360 360 360 357 356 355 352 350 351 352 351 346 343 344 344 345 345 345 345 346 349 348 340 337 340 337 340 340 340 340 339 338 337 337 337 336 339 335 339 340 338 336 335 336 333 332
353 358 359 358 362 361 356 354 354 353 353 350 351 347 345 343 344 344 344 345 347 346 346 349 346 348 349 347 340 340 339 338 338 338 337 336 338 339 337 336 337 340 340 335 337 339 337 332 330
353 360 358 357 358 359 355 353 351 352 351 351 352 344 342 343 344 344 344 346 345 347 347 349 349 347 348 347 341 340 338 337 338 340 344 345 348 345 346 337 336 341 341 339 340 340 338 331 333
354 359 354 352 353 357 355 350 351 353 352 352 349 343 342 343 343 343 344 345 346 346 345 349 350 347 346 346 347 348 346 348 345 344 343 348 344 341 341 334 337 341 341 340 341 346 346 345 346
353 355 350 351 352 353 354 351 349 352 354 352 347 343 342 344 343 343 344 343 344 344 348 348 346 349 348 346 347 349 344 342 342 346 347 342 343 343 341 337 340 340 342 345 346 347 347 345 340
355 351 349 348 350 350 352 349 348 349 354 352 348 344 342 343 342 342 343 343 344 345 346 348 346 347 345 345 346 344 343 342 345 346 345 342 344 343 345 347 344 346 345 348 346 345 347 344 342
352 350 346 346 349 350 351 352 350 352 352 351 349 343 342 342 342 342 342 344 344 345 345 346 347 348 345 348 345 346 343 345 344 347 347 345 344 344 343 345 346 344 346 345 346 346 345 344 344
349 349 345 343 345 351 352 351 351 351 351 349 348 344 342 342 341 341 342 344 344 344 344 346 347 346 347 349 347 347 345 343 344 345 346 347 345 344 346 345 346 346 347 347 347 347 345 345 344
345 347 344 344 346 352 350 352 354 351 350 348 346 344 342 341 341 341 342 342 343 344 345 345 347 345 348 348 346 348 344 345 345 347 348 348 347 350 347 346 347 346 341 344 348 344 345 342 345
346 346 350 346 351 351 351 360 352 350 349 346 345 343 342 341 341 341 342 341 343 343 346 346 344 345 347 352 348 347 346 347 346 346 348 350 349 349 348 347 347 346 348 347 347 346 343 346 345
346 350 350 352 351 352 354 359 352 351 349 346 345 344 343 343 342 342 341 340 342 344 347 346 346 345 346 347 349 347 347 347 347 347 348 349 351 346 351 347 347 346 346 345 345 345 345 345 345
343 345 349 352 352 350 352 358 353 352 350 349 346 345 344 344 343 341 340 339 341 344 347 348 346 346 348 347 349 348 349 348 348 348 348 342 349 345 350 349 345 347 346 346 346 346 347 345 345
340 342 344 351 348 350 351 353 357 350 352 350 349 347 346 345 343 341 342 341 340 343 346 348 348 348 348 347 347 349 351 350 348 349 351 350 350 350 345 349 345 347 347 348 348 345 345 344 343
340 341 342 347 347 345 347 352 355 353 352 352 350 348 347 346 342 344 344 342 340 341 344 347 348 349 349 349 348 348 349 350 350 351 352 351 351 350 349 350 345 346 348 339 348 348 346 343 342
340 341 342 342 340 338 341 352 357 353 353 352 351 350 348 345 342 346 347 345 342 342 342 346 348 349 348 348 349 349 352 353 349 350 350 350 352 350 348 343 348 347 349 347 343 342 348 346 341
338 338 337 339 341 344 344 351 353 355 354 352 350 350 350 347 343 347 347 347 344 340 342 346 350 349 348 350 348 351 349 348 350 348 350 352 351 351 351 350 350 345 348 348 346 346 348 347 340
334 338 338 336 338 341 344 353 354 355 358 355 352 351 351 348 345 347 348 347 346 342 344 347 350 350 348 348 350 350 350 349 348 349 350 349 351 351 351 352 353 342 348 344 351 346 346 345 345
334 336 338 337 337 339 337 345 356 353 352 350 350 351 352 351 348 347 348 348 347 343 344 346 351 348 349 351 346 351 352 348 350 349 349 349 350 351 351 351 352 351 352 352 350 350 346 350 345
335 336 339 339 338 337 335 342 350 344 344 346 346 347 350 352 350 349 348 348 349 345 344 346 349 352 351 352 353 347 352 351 354 351 349 350 349 351 350 345 344 351 348 352 352 350 352 348 347
334 334 336 338 337 334 334 344 342 340 343 345 347 348 347 347 351 350 350 349 349 347 345 347 350 352 354 352 353 352 353 351 348 347 349 346 349 349 352 353 352 352 352 351 351 350 347 347 347
334 333 331 332 334 334 338 339 340 342 344 344 344 348 353 347 351 351 353 350 349 349 347 347 349 353 355 355 355 353 351 345 349 348 348 350 349 350 352 352 353 353 353 352 352 350 349 354 348
329 332 333 332 335 335 340 341 342 343 344 342 342 345 349 351 349 353 351 350 351 349 349 349 350 353 355 356 356 355 355 354 346 351 350 349 350 350 349 353 353 354 353 352 348 352 351 351 350
329 331 332 332 332 335 340 341 340 343 343 343 339 339 342 348 350 353 352 349 347 351 350 350 351 353 355 356 356 355 354 355 354 354 353 350 346 350 352 355 351 356 355 355 352 349 354 352 351
326 329 331 332 333 331 335 340 339 339 341 340 337 335 339 341 343 341 346 347 350 351 351 351 352 352 353 355 356 355 354 354 354 355 354 353 351 349 349 353 354 352 354 356 353 353 349 352 353

GFSSGP_850_thetae_090.txt.gz
Theta_e
338 345 348 347 355 357 362 359 354 352 348 344 346 349 351 349 351 356 349 348 348 348 341 340 335 328 327 327 327 329 341 333 331 333 335 326 330 331 339 333 337 339 340 339 339 340 340 334 330
344 346 347 351 360 364 363 356 356 352 346 345 349 349 348 349 348 349 348 347 348 346 344 328 328 332 334 334 339 335 341 339 341 338 341 336 333 340 336 336 338 339 339 339 339 340 339 330 330
348 348 347 356 361 366 364 357 353 346 344 348 352 347 346 347 347 348 348 347 345 348 347 330 331 333 336 339 341 338 337 340 341 335 339 340 335 338 337 338 337 339 339 341 336 333 331 329 328
350 349 351 359 363 359 357 355 349 348 347 349 348 347 345 346 347 348 348 346 348 350 344 336 332 331 336 340 342 342 340 340 340 340 340 339 340 337 338 338 336 336 341 341 339 338 333 332 339
350 351 359 361 361 354 355 351 350 350 351 352 345 346 344 347 346 347 347 348 348 349 338 340 342 340 341 340 338 339 337 340 341 340 340 337 337 338 335 336 336 340 342 340 341 341 334 335 334
350 354 362 365 361 356 357 356 353 351 352 349 343 343 345 346 345 347 346 348 348 349 348 342 343 340 339 340 340 340 338 340 339 338 337 337 331 336 336 336 336 340 339 335 337 340 334 332 333
351 359 362 361 361 360 357 354 355 352 352 349 345 345 345 345 344 346 347 347 346 349 347 346 342 341 342 342 339 340 339 339 337 336 336 335 335 336 337 335 338 340 337 335 337 334 332 331 331
352 358 361 360 364 362 356 355 352 353 352 352 347 345 345 345 344 346 345 346 347 347 349 348 346 345 343 339 340 338 337 337 335 336 336 336 332 331 335 335 341 338 337 336 338 332 328 329 338
353 360 361 358 361 361 354 353 352 350 352 352 352 343 344 343 344 345 344 345 347 347 347 348 349 348 345 339 340 338 336 335 343 343 345 346 344 343 344 338 341 335 339 340 339 328 333 334 340
354 360 356 354 356 358 353 352 354 353 353 350 344 343 343 343 344 346 344 346 345 349 350 350 347 349 346 342 343 342 341 345 347 346 346 344 343 341 335 338 341 339 339 343 343 333 340 342 342
354 357 351 352 354 356 353 351 352 353 354 345 343 343 343 342 343 346 342 345 342 349 348 346 346 347 348 344 348 340 344 345 344 346 345 342 332 332 334 339 340 340 342 346 342 342 342 346 345
356 353 350 351 353 353 353 351 351 352 352 346 343 343 342 342 342 344 345 346 347 347 348 347 348 348 347 347 350 344 342 342 344 345 343 346 347 344 331 346 338 334 340 340 346 343 344 341 341
351 352 351 351 351 352 351 350 349 353 354 348 344 343 342 342 342 343 343 344 346 348 345 347 346 345 348 347 346 346 344 345 342 346 345 344 344 345 343 346 344 347 346 342 341 346 344 341 344
346 351 348 348 351 352 353 350 351 352 352 349 345 343 342 341 341 342 344 344 345 347 346 346 346 344 348 345 345 345 344 346 345 346 345 344 342 342 343 346 341 339 343 343 340 347 346 345 341
350 354 347 345 352 353 351 353 354 352 350 350 345 343 342 341 341 340 345 344 345 345 347 346 345 346 351 344 347 345 344 346 344 342 350 345 346 345 345 347 347 345 341 349 344 347 347 345 344
349 348 349 346 352 352 351 360 352 351 349 349 345 343 341 341 341 341 344 343 344 345 346 345 345 344 346 344 348 348 345 347 347 343 342 345 347 348 348 345 346 347 348 348 345 343 346 343 343
346 352 350 349 351 353 353 356 350 351 348 347 344 343 342 342 341 341 342 342 343 346 346 346 345 344 349 345 350 348 346 345 347 347 347 346 346 349 349 347 345 349 348 343 348 343 346 347 347
344 348 349 352 353 352 355 356 352 351 347 346 345 343 342 343 342 341 340 341 343 346 347 347 345 345 349 347 347 346 349 349 349 349 348 345 347 350 344 346 343 344 347 347 348 347 343 345 344
341 343 349 347 351 354 356 355 352 350 347 346 345 344 344 343 343 342 341 340 343 346 347 348 346 345 349 346 346 347 347 346 348 348 349 348 349 350 346 348 344 347 347 341 343 345 345 348 341
339 340 349 346 343 350 356 356 353 351 349 348 347 345 345 344 344 342 341 340 342 346 347 348 348 345 350 344 349 347 351 348 348 349 351 350 348 349 351 346 347 344 346 343 348 350 346 346 341
335 339 347 348 345 346 351 358 355 352 353 350 349 347 346 345 345 342 344 342 341 344 346 347 349 347 347 345 348 349 346 346 350 349 352 348 348 348 350 347 347 345 346 346 339 346 348 343 341
333 338 343 347 339 349 349 364 357 356 355 353 351 349 348 347 346 345 345 343 341 342 343 347 349 347 343 348 346 348 350 348 350 348 351 350 348 349 349 341 345 347 347 346 342 344 344 345 342
334 339 341 342 340 339 342 356 354 339 355 354 352 351 348 346 347 346 348 346 345 343 343 345 348 348 340 345 345 347 346 350 348 350 347 351 347 349 349 348 347 346 345 348 349 346 344 346 346
335 335 340 340 339 341 343 343 359 348 345 352 351 350 350 349 346 347 347 346 348 342 341 345 348 347 346 341 347 349 349 345 351 348 349 348 346 341 349 349 348 342 341 347 345 343 341 345 344
333 335 341 340 338 338 341 343 355 345 343 341 353 351 351 351 349 345 348 347 346 343 344 346 348 344 342 342 344 346 348 352 349 348 347 352 350 351 345 343 343 341 346 351 348 343 340 338 340
332 336 339 340 338 336 336 350 348 339 347 349 350 350 343 342 352 348 348 349 347 348 344 346 347 345 341 342 341 341 340 341 349 350 353 347 351 352 353 349 343 349 348 347 347 346 343 343 338
332 335 335 336 335 336 343 344 344 347 347 347 348 351 353 350 352 352 348 349 349 348 346 345 344 345 343 341 347 346 344 346 345 348 347 347 349 350 352 351 348 347 350 348 348 344 345 348 347
332 332 335 336 338 337 345 347 351 349 348 345 345 345 348 349 354 353 352 352 349 349 349 349 347 346 347 347 347 348 346 343 348 349 350 351 350 349 345 346 350 348 351 351 350 348 348 347 345
331 332 333 334 334 336 345 346 345 348 346 344 343 344 344 344 345 349 351 349 350 350 347 349 351 349 350 354 356 356 351 348 344 345 342 349 349 353 349 339 345 350 350 351 344 348 351 349 345
330 331 332 334 338 340 348 349 342 343 342 341 340 341 342 340 340 341 339 346 347 346 342 340 347 352 354 356 357 356 356 355 355 347 344 343 341 341 350 350 351 351 350 352 350 346 352 351 349

GFSSGP_850_thetae_093.txt.gz
Theta_e
339 346 347 347 353 353 361 359 353 351 350 348 349 348 349 348 351 353 347 346 338 341 340 339 334 329 327 326 339 335 331 330 335 334 326 328 331 337 332 336 337 339 339 338 339 331 331 338 341
339 346 347 350 358 362 361 355 353 351 348 345 347 348 349 350 347 349 348 346 340 341 338 330 327 331 339 336 334 338 336 339 339 339 333 335 337 337 335 338 339 342 337 335 333 329 335 339 342
347 348 348 354 358 362 361 358 353 351 351 345 347 347 349 349 348 348 347 345 341 336 328 330 335 334 336 336 336 336 339 339 336 337 338 334 337 337 338 338 339 339 338 332 330 328 336 341 342
350 351 347 355 361 359 358 353 349 349 345 345 346 348 349 349 348 346 346 345 342 330 329 331 332 335 339 339 339 338 339 339 339 338 338 337 337 338 338 337 341 340 336 336 332 327 335 341 341
351 350 357 350 353 356 355 353 352 351 345 345 345 348 348 346 346 346 347 347 347 343 333 331 335 338 339 336 337 336 339 339 338 337 337 337 335 335 334 335 337 341 340 340 333 333 339 338 341
349 351 354 357 361 356 353 353 352 347 345 344 347 347 348 345 347 346 346 346 344 338 337 339 339 339 340 338 338 337 339 338 337 337 336 333 334 335 340 340 341 339 338 338 334 332 335 342 342
350 354 359 360 362 357 354 353 354 346 344 344 346 345 347 348 347 347 347 345 344 339 337 337 338 340 339 338 339 338 339 337 337 336 334 334 333 335 340 340 340 335 336 334 331 331 332 340 342
350 354 360 360 362 360 354 354 352 351 349 344 345 345 345 347 347 348 348 348 344 341 338 337 336 338 337 338 336 336 337 336 335 335 331 330 332 337 337 339 337 335 336 329 328 331 333 339 343
351 356 360 360 358 360 354 350 350 351 352 346 344 345 346 347 348 345 347 348 348 348 346 344 345 341 336 336 336 333 336 339 340 344 342 340 333 336 339 338 337 338 338 329 328 334 340 341 341
353 356 359 356 354 357 353 351 350 353 353 351 344 345 343 346 346 346 346 348 349 349 348 345 343 337 338 339 336 335 342 344 345 344 343 342 337 337 339 337 339 339 343 339 335 337 340 341 340
352 357 354 356 354 352 351 351 351 353 353 346 344 343 343 345 344 346 344 345 348 349 346 343 343 345 344 341 341 341 344 343 344 341 341 342 334 336 340 340 340 340 341 341 339 341 342 341 337
344 350 353 356 354 351 351 353 353 351 348 344 343 342 344 345 344 342 346 347 347 348 345 344 347 348 346 343 343 341 341 343 342 343 343 339 339 337 340 339 341 340 338 337 341 340 341 341 342
352 353 351 354 353 353 351 351 352 350 348 345 342 343 343 345 344 342 346 346 346 345 347 346 348 347 347 347 343 343 343 343 343 344 346 346 343 336 337 334 332 337 332 337 341 341 343 343 339
346 346 351 352 352 352 350 350 350 348 346 346 343 342 342 343 345 345 346 347 345 345 348 345 348 347 346 346 345 344 342 343 344 344 343 344 343 344 344 341 340 341 339 339 341 344 344 342 343
342 346 350 352 352 350 349 353 352 350 348 343 343 342 342 341 345 345 347 347 345 345 347 344 344 345 345 346 346 344 345 345 343 343 344 342 342 345 346 343 343 344 341 343 341 344 344 343 340
347 352 355 354 352 351 352 358 352 351 351 344 343 342 341 342 343 344 346 347 346 346 345 343 341 345 344 348 344 346 346 345 344 343 345 343 344 344 345 344 345 342 345 345 345 345 345 344 342
346 352 354 357 352 351 354 357 352 350 350 348 343 343 341 341 341 344 344 346 347 347 343 345 341 342 343 347 345 345 345 347 346 344 345 345 345 345 344 344 344 347 342 343 344 345 345 344 344
338 347 349 353 352 347 352 354 352 350 349 347 344 343 342 340 341 344 343 343 346 346 343 345 343 339 344 346 349 345 344 346 347 346 347 345 345 343 345 344 344 347 345 345 344 344 344 344 344
335 342 348 348 345 348 354 353 352 350 349 345 344 342 342 340 340 341 342 343 344 346 343 345 344 341 346 348 347 346 345 346 347 346 346 348 344 342 344 343 341 345 345 344 344 345 346 342 341
333 337 351 348 347 348 355 355 352 350 347 345 344 342 342 341 341 341 342 343 345 345 342 346 345 343 346 344 346 345 347 348 345 347 347 348 348 343 348 346 344 345 343 346 346 345 344 343 342
330 330 348 349 348 349 349 352 354 350 347 347 347 344 343 343 342 342 340 343 343 345 342 348 346 345 342 347 347 346 346 347 346 348 347 348 348 346 345 346 345 345 339 341 344 345 345 342 341
325 331 340 348 348 351 347 354 345 350 350 348 346 347 345 344 343 342 340 343 343 345 343 342 347 347 341 347 349 349 341 346 347 346 348 346 348 348 348 343 343 343 342 339 345 343 343 340 343
325 340 344 345 344 351 351 353 353 348 352 349 346 349 346 345 345 341 342 341 342 342 342 341 342 346 341 348 348 346 348 348 349 347 348 348 348 348 347 345 345 345 345 343 343 347 343 342 346
327 334 339 341 341 343 349 354 354 352 352 352 350 350 349 347 346 346 345 342 342 341 342 342 342 340 340 348 346 347 344 348 348 349 349 349 344 346 348 350 347 342 343 344 346 345 341 343 345
328 332 333 342 341 341 336 351 351 348 344 346 345 344 349 349 347 347 345 344 345 343 342 343 343 339 340 345 344 346 347 347 347 348 346 346 347 347 347 348 347 342 344 345 342 341 338 343 343
327 329 330 344 338 335 337 352 347 343 342 345 343 347 345 349 348 347 348 347 346 344 343 340 340 340 338 336 343 347 349 347 348 347 347 350 348 348 347 347 344 342 341 343 340 347 336 338 338
331 330 328 332 332 333 345 344 341 340 340 345 346 339 345 345 348 349 349 347 346 346 341 342 341 339 337 336 335 339 340 340 342 347 351 349 349 350 351 351 346 344 348 345 345 340 337 337 335
333 329 329 329 336 339 349 349 350 349 349 347 346 345 344 349 341 345 348 349 348 349 345 344 343 343 340 340 340 340 340 339 342 347 349 348 349 349 349 349 345 343 344 350 346 343 345 343 345
330 328 330 328 331 338 348 349 346 346 344 344 344 341 342 344 349 349 350 349 349 350 348 349 346 346 345 344 341 341 341 342 343 346 347 348 348 350 348 346 347 342 345 346 343 344 346 348 343
327 329 328 329 332 337 344 348 342 342 341 341 341 339 340 340 342 347 344 341 339 339 348 346 348 348 347 349 348 347 344 346 343 343 346 349 349 347 347 347 347 340 349 348 350 345 342 351 349

GFSSGP_850_thetae_096.txt.gz
Theta_e
338 339 347 347 352 353 359 356 353 351 349 347 345 347 348 347 349 347 340 341 341 341 341 342 337 334 332 330 330 330 330 332 328 328 331 337 333 335 332 338 342 339 339 331 330 338 338 336 335
344 346 348 349 355 361 358 355 350 349 348 348 349 348 348 348 347 346 345 340 341 339 337 331 327 327 328 340 333 334 340 338 336 329 329 339 335 336 338 340 340 339 337 331 335 340 341 340 340
344 346 348 352 356 360 357 353 348 347 347 347 348 348 348 348 347 347 341 339 339 336 328 327 332 336 333 337 336 339 337 337 338 334 338 336 335 336 337 340 338 340 335 330 336 340 342 342 342
348 351 347 353 358 356 356 352 346 346 346 346 347 348 347 347 347 345 341 340 338 329 328 333 334 337 336 336 337 343 338 341 338 336 336 336 337 338 337 338 336 333 330 328 334 341 341 341 341
351 350 356 351 353 354 355 347 345 345 348 348 348 349 348 346 345 344 341 338 329 329 332 332 335 338 338 338 337 339 338 338 341 338 339 340 340 339 339 339 337 338 332 328 334 340 340 341 340
350 346 353 354 356 356 353 348 345 345 348 348 348 347 347 345 345 343 337 335 333 330 329 334 338 337 336 337 337 339 338 337 336 336 340 339 339 339 335 340 339 338 334 332 337 339 342 340 341
350 350 353 357 360 357 353 349 346 347 348 348 346 347 346 346 344 345 345 344 337 335 336 337 337 337 337 338 337 338 337 336 334 333 335 339 337 338 340 338 337 334 332 332 334 340 341 340 340
349 353 355 355 358 358 354 353 349 346 347 347 345 347 346 348 346 347 347 344 336 336 335 333 337 337 338 338 338 336 335 334 334 333 334 338 338 337 339 334 334 333 329 331 333 337 340 341 341
349 356 359 357 356 355 352 349 346 349 345 345 345 346 347 348 347 347 345 343 338 337 339 336 335 337 336 336 337 335 335 339 337 333 331 336 336 339 335 334 335 329 328 332 333 335 341 342 341
349 356 357 352 352 353 351 350 347 351 348 346 346 347 348 348 347 347 347 346 344 345 344 342 336 336 336 335 335 341 344 344 341 338 339 335 338 338 336 338 337 337 334 334 339 339 341 342 342
348 355 350 353 353 352 350 351 352 351 349 345 345 347 347 347 348 348 347 346 345 345 341 339 342 341 335 333 341 344 344 343 339 339 334 335 339 340 336 339 341 336 335 337 336 341 341 341 340
346 343 349 354 353 351 349 350 351 350 350 344 345 346 347 346 346 347 347 345 347 344 341 343 345 343 340 340 343 341 342 342 337 337 332 335 339 339 339 340 339 339 337 339 340 339 338 341 341
345 345 350 352 351 351 351 351 350 348 346 344 344 346 347 346 346 345 345 346 346 344 345 346 346 347 343 340 341 342 342 342 343 342 342 337 339 338 337 335 335 335 339 339 340 341 339 339 339
348 351 349 352 351 351 351 351 347 347 346 343 343 345 344 345 345 345 345 347 345 344 347 347 345 348 346 343 343 341 342 344 344 344 343 341 339 338 336 339 338 337 338 340 341 343 341 341 341
349 349 352 353 351 349 350 352 348 346 346 342 342 344 344 343 344 344 346 346 345 346 346 347 346 345 345 345 344 341 344 343 344 343 342 341 341 343 342 342 342 338 341 339 342 342 341 341 342
347 349 354 353 350 349 350 357 348 345 349 343 343 342 343 345 342 345 346 346 345 348 345 345 344 346 345 345 343 344 343 342 342 342 343 341 343 343 341 342 340 340 342 341 343 344 344 340 342
343 352 354 357 350 349 351 354 348 347 349 342 342 342 341 345 345 345 346 344 344 347 345 343 343 346 345 347 345 345 346 344 343 344 343 343 343 345 344 343 342 340 341 344 343 344 343 343 344
329 349 351 356 352 349 350 354 350 349 350 342 343 342 344 345 345 346 347 346 346 345 342 339 343 344 346 345 346 346 346 346 344 343 345 344 343 344 345 343 343 345 343 343 343 343 345 344 344
325 328 350 349 350 349 352 353 352 350 349 347 343 342 342 344 345 345 346 346 346 343 344 344 341 342 345 344 344 345 343 345 346 346 346 344 343 342 345 342 345 346 345 345 343 343 344 342 341
326 333 352 349 347 350 348 354 350 349 348 348 343 342 340 342 344 345 346 347 345 344 343 343 343 342 343 344 344 345 344 347 346 347 345 347 341 342 343 340 343 346 344 343 342 345 341 341 342
322 325 349 351 343 342 346 351 351 350 348 345 343 343 340 342 343 344 345 346 346 345 342 343 343 343 340 345 345 346 345 345 345 347 346 346 346 344 346 342 343 344 343 342 342 345 344 339 343
320 324 343 351 349 355 345 353 345 345 349 346 346 344 340 340 342 343 343 344 343 344 344 341 344 344 339 343 346 346 345 346 346 345 346 346 347 344 343 346 344 344 342 341 343 344 343 340 342
322 325 342 347 344 349 348 346 347 342 350 348 348 346 343 340 340 342 343 343 343 343 342 341 343 345 341 345 346 348 348 345 346 346 348 349 347 346 344 341 341 345 343 338 342 344 345 342 341
323 340 340 342 339 345 346 351 354 349 349 349 347 346 346 344 342 341 342 341 342 343 342 341 340 341 343 342 346 347 346 346 347 346 346 347 348 346 347 343 345 344 345 342 342 344 343 343 344
325 324 332 344 343 341 344 351 347 347 347 347 347 345 348 347 346 344 342 343 342 343 342 342 341 339 342 345 345 343 345 344 348 348 350 347 347 345 345 346 346 342 344 343 344 345 340 343 344
325 325 328 342 338 337 344 351 345 346 349 346 348 347 347 347 347 344 346 343 342 341 342 342 342 342 338 340 347 345 346 344 344 348 348 345 346 347 343 345 343 341 340 345 343 340 337 340 342
324 328 324 330 328 336 346 344 342 343 344 348 347 345 346 347 348 347 347 344 342 342 342 341 342 338 336 336 343 344 345 347 344 346 347 346 347 348 345 348 349 344 341 342 341 342 339 334 338
324 327 328 324 333 342 347 346 346 342 347 347 344 343 345 346 347 348 348 346 345 345 344 343 342 340 339 338 335 337 345 341 341 346 347 349 349 348 348 349 350 341 346 346 342 342 339 336 336
327 327 325 324 326 343 349 349 347 347 347 346 343 342 344 345 346 347 348 348 347 345 344 345 343 343 342 342 337 336 336 338 338 342 347 347 347 348 348 347 346 344 341 346 348 346 342 341 338
325 326 323 326 330 336 339 351 343 342 341 340 340 341 342 345 344 347 348 349 348 348 346 345 345 344 343 341 343 341 341 341 341 341 347 346 346 348 346 347 345 344 343 344 346 344 341 347 350

GFSSGP_850_thetae_102.txt.gz
Theta_e
333 339 346 347 351 351 355 355 349 338 335 337 335 341 343 346 346 340 337 336 337 338 340 341 341 340 337 328 328 331 340 339 334 335 337 338 339 338 339 339 340 337 336 336 332 337 335 337 338
336 346 348 348 353 356 356 351 347 339 338 337 340 346 346 348 345 340 338 339 341 340 342 342 340 338 329 328 329 329 330 338 338 333 337 337 334 340 340 340 339 332 340 337 335 337 331 332 332
346 348 347 352 355 357 356 351 349 345 342 337 347 347 347 347 344 340 338 340 341 341 342 337 333 340 331 331 342 342 332 335 333 339 336 337 340 339 339 341 333 340 339 340 337 339 340 339 337
346 350 346 352 356 354 352 349 346 345 344 347 346 347 345 345 341 340 340 340 340 341 332 327 335 339 339 340 339 342 336 334 336 341 335 338 338 339 339 341 339 340 341 340 341 341 339 337 336
349 349 354 355 355 352 350 346 346 347 347 347 346 345 344 343 342 339 340 340 336 328 337 338 335 338 338 340 338 341 341 339 338 335 336 337 338 337 334 332 330 337 339 340 340 340 338 338 337
350 346 352 356 353 353 348 346 348 347 347 345 344 343 346 345 339 340 339 335 327 330 334 337 342 337 341 339 338 339 339 340 339 336 337 336 337 335 339 335 328 334 339 339 339 340 338 337 335
349 348 353 354 354 354 351 347 348 346 345 344 342 345 346 342 340 339 336 328 330 332 332 337 339 337 339 340 339 339 340 339 339 338 338 334 337 338 339 336 333 335 339 338 339 338 338 338 338
348 348 353 350 356 353 350 349 346 345 345 344 342 344 344 340 340 338 334 328 332 330 336 336 336 340 340 340 339 339 335 337 337 337 335 334 338 338 336 338 339 337 339 339 338 339 339 339 340
349 354 356 348 354 351 349 349 347 346 343 345 345 343 341 339 340 336 328 331 330 335 337 336 339 339 341 341 338 336 336 337 336 335 337 338 339 338 334 334 334 333 336 338 339 340 340 340 341
346 353 352 348 349 349 349 348 346 344 344 344 344 344 343 340 334 331 331 331 336 336 336 337 337 337 337 335 336 334 335 335 336 336 336 338 335 335 332 332 331 332 333 336 340 341 341 341 341
346 354 350 350 348 347 348 349 346 346 345 344 346 345 341 337 340 342 337 335 335 334 336 336 336 334 335 336 340 339 335 333 334 335 338 335 335 334 334 333 333 333 333 336 340 340 340 339 340
350 348 347 350 347 349 348 348 346 347 345 340 341 341 341 343 345 341 336 337 338 337 334 335 336 333 339 341 341 340 338 334 333 337 337 335 336 335 338 335 334 337 338 340 340 340 340 340 340
344 347 350 351 348 349 349 347 346 345 345 343 343 344 345 345 342 340 339 341 339 337 338 336 333 335 342 343 341 338 337 333 334 338 339 336 337 339 338 336 336 337 339 341 340 339 339 339 341
343 348 347 351 351 349 348 347 345 345 347 346 345 345 346 345 343 342 343 339 340 342 339 338 334 339 341 341 340 340 340 340 335 337 338 337 337 337 338 337 335 337 340 340 340 339 340 338 340
350 351 350 350 350 349 348 350 351 345 347 346 345 346 346 346 345 344 343 338 342 343 342 341 339 340 341 341 340 342 342 342 341 339 340 339 338 338 338 338 336 338 339 340 341 341 340 340 341
351 349 352 353 350 348 348 354 349 344 346 346 346 346 347 346 346 345 345 341 340 344 345 345 342 341 342 340 341 343 343 342 341 341 340 341 342 341 341 339 337 339 339 341 341 341 340 342 342
338 350 351 353 350 349 349 351 348 346 346 346 346 345 346 346 346 346 345 343 343 342 343 344 345 343 342 340 342 342 342 343 342 342 341 340 341 341 340 339 341 341 340 342 342 342 339 341 343
332 347 350 351 349 351 350 350 346 347 345 345 345 345 344 345 345 344 344 344 343 343 344 343 344 343 342 341 341 343 342 344 342 343 342 340 341 343 343 340 340 341 341 342 342 343 344 344 343
324 342 352 348 350 348 350 350 345 346 343 344 344 343 343 344 345 345 345 344 344 345 345 344 343 343 343 342 343 344 343 343 342 343 343 343 342 343 342 341 341 341 342 342 342 343 343 342 341
328 347 352 349 347 349 349 351 346 346 343 343 341 343 344 344 344 344 344 344 345 345 344 345 344 343 344 342 342 343 345 345 344 343 344 343 342 342 342 341 343 343 343 341 341 343 341 341 341
324 333 349 351 349 348 349 352 349 347 344 342 342 341 343 344 344 344 345 345 345 345 342 343 342 341 344 342 344 343 344 344 345 344 345 343 343 341 342 342 341 344 343 343 342 343 343 339 342
322 323 347 347 346 351 345 352 351 348 348 346 343 342 342 344 344 344 344 345 344 344 342 340 341 341 343 343 343 343 343 342 344 344 346 344 344 342 343 344 341 343 343 341 340 344 343 340 341
323 324 344 346 345 342 345 345 344 348 350 347 344 344 341 344 345 344 344 345 344 345 343 342 340 341 342 341 343 343 344 344 344 345 345 346 345 346 343 343 343 343 341 340 341 343 342 342 342
324 340 337 337 339 346 341 343 343 346 348 347 343 341 341 343 344 344 344 344 344 345 343 343 341 341 342 341 340 343 344 344 345 345 345 344 346 343 342 343 343 343 343 341 337 338 341 342 343
322 330 339 344 344 345 337 345 340 343 342 346 346 344 342 342 343 345 345 345 345 345 343 343 342 342 342 341 336 341 344 346 343 344 345 345 345 342 344 341 342 342 343 344 341 341 339 342 343
321 324 335 341 341 340 341 346 343 342 344 345 346 345 340 340 343 344 345 345 345 345 344 343 342 342 342 342 338 336 343 344 345 345 345 346 346 344 344 343 344 344 341 344 343 340 339 340 340
321 326 326 329 326 341 343 341 340 345 344 346 346 346 342 340 340 343 343 344 345 345 344 344 343 342 342 343 342 338 342 343 343 343 345 347 346 345 345 343 345 343 341 340 343 343 343 342 338
321 319 325 320 331 339 343 343 342 350 349 345 345 346 346 342 341 342 341 342 344 344 344 344 344 343 343 343 343 341 340 341 342 344 345 346 345 346 346 344 345 346 348 343 340 341 340 339 339
324 324 319 320 324 334 342 341 341 343 347 346 344 344 345 346 344 343 342 343 342 343 342 344 344 345 342 345 344 342 340 340 344 345 346 346 346 347 345 346 347 348 348 345 342 344 342 341 340
323 323 320 324 330 331 333 340 341 343 343 343 342 342 342 343 345 345 346 345 342 342 343 344 345 345 343 344 346 344 342 341 342 343 344 341 345 345 345 345 347 346 345 346 343 344 343 343 342

GFSSGP_850_thetae_105.txt.gz
Theta_e
332 338 346 348 354 355 357 356 346 337 335 335 334 337 340 346 347 341 337 333 334 337 339 338 340 338 333 327 332 339 334 330 336 335 337 336 337 338 338 339 334 341 327 339 336 337 339 338 339
336 346 348 347 357 359 358 353 342 336 334 335 344 344 347 349 345 339 339 334 337 338 339 341 341 338 329 329 329 331 336 338 332 333 335 336 338 338 339 332 336 338 336 339 338 334 330 328 325
346 348 348 354 356 359 357 352 339 336 337 339 348 348 348 346 343 342 336 337 338 341 341 340 338 331 329 332 338 331 333 337 334 337 335 335 340 341 340 332 340 339 336 335 335 339 339 337 332
346 348 346 354 356 354 353 350 340 340 337 348 347 348 345 345 342 338 338 340 340 341 338 332 339 334 339 342 342 338 331 331 340 336 337 339 339 340 339 339 339 339 339 340 340 338 337 334 337
349 351 355 354 354 352 349 346 342 342 342 347 347 345 344 344 341 340 340 341 340 333 327 332 340 339 338 337 339 339 337 341 338 335 336 339 339 340 340 335 340 340 340 339 339 337 336 334 330
351 347 354 355 354 352 348 348 346 347 347 345 344 343 345 345 341 341 341 340 334 333 341 339 336 339 341 340 341 340 341 338 335 335 337 338 335 339 334 336 339 339 339 339 338 336 335 332 329
350 349 354 354 354 353 350 349 348 348 347 345 342 343 345 346 340 341 340 335 329 338 343 343 342 341 339 339 339 340 339 340 337 338 336 337 338 339 336 338 339 338 337 338 337 337 338 338 339
349 349 354 352 355 355 350 349 346 346 346 343 341 345 345 345 340 339 336 328 335 336 342 342 338 339 339 339 339 337 337 337 337 336 336 337 338 339 339 338 338 337 338 337 338 339 339 340 340
350 354 353 350 353 351 350 347 347 344 344 343 345 341 343 343 340 338 330 333 338 341 342 339 339 343 341 339 339 337 336 334 336 336 336 339 338 336 339 339 334 337 338 339 339 339 340 340 339
346 353 352 347 349 349 350 347 344 346 345 345 344 344 344 343 341 339 334 336 336 343 340 341 339 340 341 338 336 335 334 334 334 337 338 339 338 335 340 337 331 334 336 339 340 341 341 341 340
345 353 350 349 348 347 348 347 344 346 347 345 343 344 344 344 342 337 337 332 334 342 339 340 337 337 335 336 335 332 334 335 336 336 337 334 335 331 331 332 331 332 336 340 340 340 339 340 338
350 349 348 348 348 347 348 346 347 348 344 344 343 344 344 342 338 338 338 335 335 335 338 337 336 336 336 340 337 333 332 334 336 337 336 335 334 337 336 334 335 336 339 340 340 340 340 340 339
347 347 349 349 348 348 346 347 346 347 345 345 345 343 342 342 343 342 340 336 336 335 336 337 335 339 341 340 336 336 334 335 338 337 335 336 338 339 336 336 336 338 340 340 338 339 339 340 339
344 347 348 350 348 349 346 345 344 346 345 345 344 343 344 346 346 342 339 340 336 336 336 335 335 342 342 339 337 335 334 335 338 338 336 338 339 339 337 336 335 339 340 339 339 340 340 340 339
347 350 350 350 349 348 346 346 348 347 346 346 346 346 345 346 345 343 339 337 339 338 337 332 340 342 341 340 340 341 342 337 337 337 336 336 336 337 337 336 335 339 339 340 340 340 339 341 342
350 349 354 352 349 348 348 354 347 346 348 347 347 347 347 347 346 345 336 338 341 340 338 338 339 341 341 340 342 341 341 341 341 340 341 341 341 340 338 337 338 339 340 341 341 340 341 342 342
346 350 352 355 350 349 349 354 345 344 348 346 347 347 347 347 347 346 341 339 343 344 342 340 341 341 341 341 342 342 342 342 342 340 340 341 341 341 339 338 340 339 341 341 340 339 341 342 343
348 349 351 351 350 351 352 352 347 344 344 347 346 346 347 346 347 346 346 341 341 344 345 345 343 343 341 341 342 342 343 341 342 342 341 341 342 343 340 340 341 341 342 343 341 341 342 343 342
339 340 352 354 349 350 351 353 349 343 344 347 346 346 347 346 346 347 347 343 342 343 344 344 344 343 342 340 342 342 343 342 340 343 343 341 343 342 342 341 341 342 341 342 342 343 342 341 342
346 352 352 349 346 349 349 351 350 348 347 346 346 346 345 346 346 347 344 345 343 343 344 344 343 343 342 342 343 343 343 344 342 342 343 343 342 343 343 341 344 343 342 341 342 342 341 340 342
330 339 350 351 348 348 347 351 349 347 345 345 343 345 345 345 346 347 345 344 344 343 344 344 343 343 343 343 343 344 344 345 344 344 343 343 342 341 343 341 344 344 342 341 342 342 341 341 342
331 328 348 347 347 350 345 352 351 349 347 345 344 342 344 345 346 347 344 344 343 343 344 344 344 344 344 343 343 343 342 341 342 343 344 344 344 340 342 341 340 344 343 341 340 343 342 341 342
328 328 347 347 348 349 349 350 350 349 351 347 344 344 343 344 345 346 346 343 344 344 344 342 343 343 344 344 343 342 343 343 342 343 344 344 344 342 344 344 341 343 342 341 341 343 342 342 343
337 342 345 345 347 351 349 350 350 353 352 349 345 344 343 343 345 346 344 344 344 344 344 342 341 341 342 344 344 343 343 344 344 345 344 343 344 343 343 344 343 342 342 342 339 341 341 342 343
333 339 344 345 348 342 341 350 346 347 346 348 346 345 344 343 344 346 347 345 344 344 344 343 342 341 341 343 342 342 343 344 345 345 345 344 345 343 341 341 343 343 342 343 340 339 341 341 342
330 334 337 343 344 343 344 351 347 344 343 344 346 345 344 343 343 346 347 344 344 344 344 344 343 341 341 342 343 340 343 344 344 343 344 346 345 344 343 343 342 344 344 343 343 341 341 341 341
324 325 329 336 338 343 349 346 343 346 348 345 346 347 343 342 343 345 346 346 344 344 343 344 343 343 341 342 343 341 340 344 344 344 345 345 347 346 345 343 343 344 344 342 343 343 341 341 342
325 325 327 332 341 342 349 349 349 351 348 347 347 347 344 343 344 344 343 345 345 345 344 344 344 343 343 342 343 341 340 342 344 343 344 345 346 345 345 344 345 346 346 344 341 341 341 339 340
325 326 327 331 333 339 345 348 344 348 349 350 348 347 346 344 343 342 343 344 345 345 344 345 344 343 344 342 343 342 341 341 341 343 344 346 345 345 346 346 346 346 346 346 342 342 342 341 340
326 327 328 329 335 338 342 346 345 345 346 345 346 347 348 346 345 342 342 343 343 343 344 345 344 343 343 344 343 343 343 341 341 341 343 345 345 347 347 346 346 346 347 346 344 342 343 342 342

GFSSGP_850_thetae_108.txt.gz
Theta_e
334 342 347 350 358 356 355 354 343 341 339 336 336 337 345 347 346 348 339 341 343 346 345 341 340 337 332 334 338 332 331 338 335 337 338 338 338 338 339 340 330 340 340 337 340 340 338 339 336
341 347 350 352 360 360 357 349 343 339 338 336 341 342 347 350 343 341 341 341 344 346 346 347 339 335 328 329 332 338 336 333 335 337 338 338 339 340 330 338 335 339 338 339 334 330 327 326 325
346 349 353 357 357 361 357 345 341 338 336 347 348 348 349 346 341 341 341 343 345 347 348 343 338 329 329 331 331 331 338 332 333 336 334 341 341 336 332 339 334 340 336 336 338 339 337 332 330
349 352 352 357 359 355 352 343 340 339 345 350 349 350 346 342 343 343 343 345 348 348 349 338 334 331 340 341 336 332 332 338 333 335 339 340 341 334 339 338 342 339 340 338 338 335 336 338 329
352 353 357 356 359 353 350 341 342 341 348 349 349 349 344 345 344 344 345 347 347 344 342 345 339 342 338 340 336 334 338 340 335 337 338 338 339 340 339 339 340 340 339 337 336 335 336 329 329
353 351 358 356 356 354 350 343 343 342 348 348 347 344 344 345 344 346 347 347 341 339 343 345 340 340 341 341 341 340 337 335 335 337 338 337 338 336 338 338 339 339 339 337 334 332 331 329 328
350 353 355 354 355 356 352 347 346 349 349 347 344 343 346 347 347 346 347 342 343 345 348 348 347 341 340 339 339 339 337 336 337 337 338 339 337 338 335 338 338 338 337 336 338 339 339 338 333
351 350 356 354 355 356 352 350 350 349 349 345 343 344 348 347 347 346 343 341 344 345 347 348 347 350 346 346 340 338 339 338 337 337 337 338 337 338 336 338 337 337 337 339 339 340 340 338 337
351 356 359 356 353 354 350 351 349 348 346 345 344 342 345 346 346 343 341 342 343 347 347 346 347 348 345 346 338 338 338 336 336 337 338 342 337 341 346 338 337 338 339 339 340 341 340 336 334
349 356 353 349 349 351 350 349 347 348 347 346 342 344 345 345 344 341 340 342 344 347 346 346 348 346 347 345 343 343 346 345 345 345 347 347 346 343 347 333 335 337 339 340 341 340 341 343 342
348 354 351 348 348 349 349 347 346 348 349 346 345 345 345 344 342 338 340 341 344 345 346 347 347 346 345 346 344 343 344 345 346 347 348 347 344 344 343 339 340 341 343 344 345 346 343 344 342
352 349 348 348 348 349 349 346 349 346 346 345 344 343 343 343 340 338 340 341 344 345 345 345 345 346 347 344 342 342 343 344 345 346 345 345 345 345 343 342 339 341 344 342 347 345 342 346 346
348 349 350 347 347 348 346 348 348 347 345 344 343 343 343 342 339 339 340 343 344 344 345 345 345 346 345 346 343 343 344 345 344 344 345 344 345 345 344 341 344 343 344 345 346 346 346 345 345
344 349 351 347 347 349 348 345 344 346 344 344 343 342 341 340 341 341 342 343 342 344 345 344 347 346 346 345 345 344 345 345 345 344 344 346 345 345 343 340 343 343 344 345 346 348 344 343 343
346 351 352 351 349 349 345 346 345 345 344 344 343 343 343 344 345 344 344 343 343 345 344 345 347 346 346 345 346 345 345 346 345 344 340 340 344 338 341 343 343 345 340 340 346 345 345 342 341
349 351 357 351 349 349 347 351 347 346 344 343 343 342 345 346 345 343 343 342 345 346 344 346 345 345 347 347 345 347 346 345 345 344 344 337 338 337 341 344 346 343 345 347 345 343 343 343 343
347 350 355 355 349 349 349 351 346 348 345 345 343 343 346 346 346 345 343 345 346 347 346 346 346 346 347 343 347 348 345 346 345 346 347 341 341 340 346 346 344 342 347 346 345 345 345 344 344
350 352 352 356 353 350 351 352 346 345 347 346 345 344 346 346 346 347 344 345 347 348 348 349 348 348 347 346 347 348 347 347 347 346 347 341 342 340 346 347 345 346 347 346 346 348 346 346 345
345 348 352 353 351 352 353 352 348 344 347 345 345 345 345 345 346 347 346 345 347 348 349 350 349 347 348 348 347 346 347 347 348 347 341 341 345 342 340 348 346 348 347 349 350 347 344 344 346
341 346 354 352 349 349 348 353 345 344 345 346 345 344 344 345 346 347 348 347 346 348 349 349 349 345 346 348 348 347 348 347 347 349 341 342 345 342 344 347 347 350 347 345 345 343 343 345 346
344 347 350 353 349 346 346 349 352 344 344 345 345 345 344 345 346 347 348 348 347 348 350 350 349 345 341 349 349 345 346 346 344 345 346 346 344 343 342 341 348 343 347 347 345 346 344 345 348
337 338 347 350 351 352 345 355 351 347 345 347 346 346 345 345 346 347 347 348 348 348 350 351 350 348 344 343 349 349 346 343 347 346 349 349 343 342 344 343 343 344 349 347 346 347 347 349 348
333 331 341 345 345 347 347 350 347 350 350 348 346 345 345 345 345 346 348 348 347 348 349 351 351 342 349 342 346 344 347 347 347 347 349 347 343 342 346 342 340 343 348 343 343 344 346 348 350
331 334 339 344 344 344 347 350 350 350 353 345 344 345 344 344 345 345 346 348 348 347 348 350 351 342 346 343 343 345 348 348 346 344 349 349 349 349 345 347 342 342 346 342 345 342 341 347 348
333 340 345 345 346 346 343 348 346 346 347 349 344 344 345 343 344 345 346 348 349 348 348 349 351 346 343 345 348 346 343 344 346 345 349 349 349 348 348 346 341 346 342 342 347 340 347 343 350
332 338 341 347 346 345 344 349 348 344 346 347 347 345 345 345 344 343 346 347 347 349 349 349 351 351 350 347 346 344 341 347 344 348 350 349 348 348 350 348 342 342 342 343 343 347 348 347 346
331 334 336 338 340 343 345 345 346 345 347 346 348 348 346 345 344 344 346 347 349 349 349 349 350 351 350 349 347 342 338 341 347 345 344 351 351 350 350 350 350 348 342 342 344 348 343 347 346
327 331 335 336 339 342 347 345 343 351 350 348 347 348 347 346 346 345 346 348 349 349 349 349 350 350 350 349 350 347 348 345 340 344 344 346 351 348 348 345 349 349 348 346 340 347 345 342 348
326 328 329 330 334 338 343 344 346 349 349 349 347 347 348 347 345 345 347 349 350 349 347 347 351 351 346 349 349 349 349 347 348 344 348 346 345 345 343 345 346 347 349 345 344 347 350 350 350
327 326 328 329 333 335 337 347 347 347 348 349 350 349 348 348 345 345 344 343 345 348 347 345 345 347 348 346 346 350 349 347 346 348 348 347 345 344 345 345 344 346 350 350 346 350 350 351 351

GFSSGP_850_thetae_111.txt.gz
Theta_e
334 342 348 351 359 361 354 349 344 343 342 339 338 342 347 348 347 349 342 344 346 346 341 339 340 337 336 337 330 331 335 335 341 338 339 338 338 338 330 336 339 337 339 340 339 339 341 338 339
346 346 351 353 362 358 352 346 344 342 339 339 342 344 347 346 342 342 343 345 346 345 346 348 336 331 328 333 338 335 332 335 337 338 338 339 340 337 335 336 339 339 337 330 330 330 325 332 334
346 350 354 359 360 361 351 345 344 339 340 344 345 349 346 342 341 341 343 344 346 347 349 340 335 328 329 329 332 336 334 333 336 336 340 340 332 339 338 340 340 336 339 339 338 333 337 328 334
350 354 354 361 359 356 346 344 341 342 347 348 349 349 342 343 342 341 342 347 347 349 349 338 330 333 341 335 332 336 335 334 336 339 340 340 338 339 338 338 339 340 339 339 334 338 337 328 332
351 355 361 360 356 352 344 342 342 350 349 349 348 344 342 343 342 343 347 347 348 346 346 345 337 340 341 337 332 333 340 334 338 338 339 339 339 338 339 337 341 338 335 334 336 333 332 330 330
354 353 360 361 358 352 343 343 343 348 350 350 347 344 345 342 343 345 347 347 340 342 346 345 339 339 339 339 339 339 338 335 338 339 336 337 335 338 339 340 339 337 335 332 332 331 328 328 328
354 358 358 355 356 357 345 344 343 349 349 348 344 346 343 343 345 345 346 339 340 347 346 347 347 341 339 338 339 336 335 337 338 336 336 335 331 336 337 338 338 335 337 339 338 338 335 330 326
353 354 357 355 358 358 349 346 348 348 349 346 343 346 345 346 345 345 340 344 348 347 347 348 349 349 348 346 339 337 336 336 337 337 336 335 333 332 337 337 337 339 339 340 340 338 335 331 329
352 359 361 357 357 356 351 352 350 350 348 347 346 344 346 345 344 342 341 343 346 345 347 347 347 347 347 345 339 337 337 335 336 337 335 341 346 346 347 338 337 339 340 341 340 334 342 339 328
350 358 356 352 351 353 351 351 351 350 348 348 345 346 345 345 343 341 342 342 345 346 347 348 345 348 347 346 346 345 345 345 343 344 341 343 346 347 345 336 338 339 340 340 339 339 342 344 348
348 355 352 351 350 351 350 351 350 349 349 346 346 346 345 343 342 340 342 342 343 347 344 348 345 345 345 344 345 346 345 344 345 346 347 344 342 345 340 336 340 343 346 347 345 346 343 342 340
352 350 351 350 350 351 349 349 350 349 347 346 347 345 344 342 340 340 341 342 342 344 346 344 345 346 343 342 344 344 343 345 347 347 345 345 342 344 342 342 345 345 346 346 343 342 344 342 344
350 351 350 348 348 349 349 350 350 348 345 345 346 344 343 341 339 341 341 343 343 344 344 345 345 346 345 343 342 345 344 345 346 345 344 346 345 343 345 345 345 345 346 345 345 345 345 344 344
349 350 350 348 347 348 349 347 347 346 345 345 344 343 341 340 340 341 342 343 343 344 344 344 346 346 347 344 345 344 345 344 344 344 345 347 344 346 345 346 344 345 345 346 346 349 344 343 341
346 352 352 348 348 348 346 347 348 344 343 344 343 342 340 339 341 341 342 342 343 345 344 347 348 345 345 344 344 345 344 345 344 346 348 348 346 348 345 344 345 346 343 345 344 344 343 341 340
349 353 358 351 349 349 346 352 346 345 343 343 342 341 340 342 343 342 342 341 345 345 345 346 344 345 344 346 347 346 344 345 344 345 347 347 346 347 346 345 346 345 348 345 343 343 341 341 341
350 353 358 355 349 349 349 352 345 347 343 343 342 341 343 345 344 343 342 343 346 346 345 347 345 345 346 345 348 346 347 345 345 345 346 349 348 342 347 345 347 346 343 344 342 343 344 341 341
351 354 353 356 352 350 351 350 346 347 345 342 342 342 344 345 345 343 342 344 346 346 347 346 346 348 347 349 346 346 348 346 345 346 348 347 349 348 349 347 346 348 347 342 349 347 344 344 344
344 348 353 351 352 349 349 350 343 347 348 344 343 343 345 345 345 344 343 343 345 346 347 346 347 349 350 348 346 346 345 347 346 348 349 347 349 347 345 348 345 351 347 348 345 344 344 345 342
338 353 353 352 350 346 348 352 346 345 348 346 344 344 345 345 344 344 343 344 344 346 348 349 349 349 349 347 347 346 346 346 347 348 349 351 350 350 348 350 349 348 345 345 351 347 344 344 347
339 351 355 356 349 347 345 351 348 344 347 347 344 343 344 345 345 344 347 344 345 345 348 348 349 350 348 349 349 349 349 348 347 349 348 349 350 350 349 345 349 347 349 347 347 342 347 347 346
339 346 349 352 352 355 347 354 347 347 347 346 347 344 344 345 344 344 347 347 346 346 347 351 350 351 348 351 349 349 346 345 348 348 348 350 350 350 349 350 349 344 349 349 343 346 345 352 346
338 337 353 349 348 349 349 352 349 344 345 345 347 345 345 344 345 346 346 347 348 347 346 348 349 351 351 350 349 350 348 348 348 348 349 349 351 351 350 348 347 344 350 346 354 346 351 349 351
335 337 343 345 345 351 348 349 352 352 348 346 345 346 344 345 344 345 347 348 347 346 345 348 349 350 353 351 350 345 348 349 349 349 351 349 349 350 351 350 352 351 353 349 350 352 345 353 348
334 340 351 354 351 351 347 349 348 348 345 345 346 346 346 346 342 345 347 347 346 346 344 347 350 351 350 350 350 351 353 350 351 350 349 348 347 348 349 351 351 350 345 354 352 344 352 350 354
336 339 349 352 351 350 345 348 351 343 344 345 344 344 345 345 346 345 345 345 347 346 346 345 350 352 351 350 349 350 350 350 350 348 350 347 350 347 351 350 352 351 352 351 352 350 349 350 349
333 338 341 344 341 347 349 347 349 347 347 347 346 345 344 347 344 345 345 347 346 348 348 348 352 352 351 349 349 349 350 349 351 351 351 351 350 348 352 349 349 351 351 352 351 348 349 355 349
329 333 337 340 343 345 350 350 345 351 350 349 349 346 344 346 346 346 343 344 349 346 349 349 350 351 350 349 349 349 349 350 350 351 345 349 350 352 351 351 351 350 353 353 350 351 350 350 350
327 329 333 335 337 341 345 351 348 350 349 349 348 348 346 346 346 347 343 345 347 348 349 350 350 353 352 351 351 349 347 347 348 350 350 351 351 347 349 351 352 352 351 352 347 350 351 352 351
327 328 329 331 336 335 335 345 341 348 348 348 347 347 348 348 346 346 345 349 350 352 353 353 352 353 354 352 352 351 351 348 347 348 349 350 350 351 351 353 350 352 353 351 352 352 350 352 351

GFSSGP_850_thetae_114.txt.gz
Theta_e
334 345 348 351 356 361 354 346 343 343 342 341 344 347 348 346 347 350 345 346 346 346 333 336 339 338 333 329 331 335 336 341 339 338 337 337 330 331 337 337 338 339 337 337 340 339 337 332 333
345 347 350 353 360 358 351 344 343 341 339 343 347 344 344 344 343 346 345 346 347 347 349 337 332 328 333 338 332 337 337 338 337 338 339 338 334 333 337 337 336 328 328 330 325 327 332 333 326
346 348 352 355 357 361 349 344 342 340 341 348 347 343 343 343 343 344 345 347 345 349 345 337 328 328 329 331 335 333 333 337 338 339 334 336 339 338 337 337 338 338 337 336 333 329 329 333 332
349 353 354 359 359 355 345 343 340 346 346 346 342 344 342 341 343 345 347 345 349 350 344 334 328 336 335 331 337 331 336 333 340 340 336 339 336 336 337 338 339 339 336 335 337 329 329 328 331
349 354 359 360 358 353 343 341 345 347 348 347 342 344 343 341 343 347 347 349 348 348 340 329 338 340 336 332 333 336 336 338 338 340 336 338 339 335 340 339 334 333 335 337 330 329 329 329 331
353 354 362 361 353 354 343 343 348 349 349 345 343 343 342 342 347 347 346 344 347 347 343 337 337 338 336 336 338 338 334 338 339 339 339 338 338 341 338 338 335 332 330 330 328 327 327 327 330
351 358 359 355 356 356 344 343 349 347 345 344 344 344 342 345 347 343 344 346 345 346 347 343 341 339 340 340 339 335 335 338 336 337 335 336 337 336 337 336 332 337 337 337 334 329 325 324 330
351 355 357 354 355 356 349 348 349 347 345 344 343 343 344 346 342 346 345 347 348 348 343 348 346 344 341 341 335 334 335 336 335 337 333 331 333 336 336 335 338 339 340 336 331 328 326 326 336
352 359 360 356 354 353 353 352 351 348 347 345 345 342 343 344 344 343 345 346 345 348 346 349 349 346 343 338 337 337 336 336 337 336 339 332 334 339 343 338 339 340 337 330 342 344 332 337 337
352 357 357 353 352 352 353 351 350 349 347 346 345 345 343 343 341 342 346 347 347 348 344 347 347 347 345 344 337 340 340 342 339 335 346 343 345 345 337 338 339 340 336 340 343 343 344 345 346
351 357 353 353 352 351 353 350 348 347 348 346 346 344 344 342 340 342 341 344 341 348 348 348 344 346 345 343 347 340 344 344 338 335 336 346 338 338 335 338 342 345 347 342 346 344 344 347 341
353 350 352 351 351 352 353 350 349 347 347 345 346 344 343 341 341 341 342 346 348 346 345 346 346 345 341 346 346 348 346 342 336 342 344 344 345 342 342 346 340 347 342 342 341 343 341 342 342
351 351 351 350 351 350 350 350 351 348 347 346 346 344 341 341 340 341 343 345 346 344 346 346 344 342 347 345 345 343 346 347 347 336 342 346 343 342 342 343 344 342 346 344 346 344 340 343 343
350 352 351 349 350 349 350 348 349 347 344 345 345 344 341 340 341 342 342 343 345 344 347 345 344 343 348 344 344 345 344 345 346 345 343 344 345 341 341 343 343 345 339 346 339 345 345 341 340
351 353 350 348 349 349 346 346 348 344 344 345 344 342 341 340 341 341 343 342 345 345 346 343 343 348 344 344 343 344 346 346 347 344 347 344 344 344 346 344 345 345 342 337 342 343 340 341 341
351 352 357 349 348 348 347 352 348 343 344 344 343 341 340 341 341 342 343 342 344 346 343 346 346 344 342 343 346 347 346 344 345 346 344 347 341 345 341 344 347 337 343 344 345 344 342 343 344
353 357 356 353 347 349 348 352 345 347 343 343 342 341 339 342 342 342 341 344 347 345 347 346 343 343 345 348 346 345 344 345 344 347 347 344 337 346 346 349 346 339 346 346 346 345 343 343 343
351 354 354 356 351 350 351 351 342 346 347 342 342 340 341 344 343 343 341 346 347 345 347 345 344 347 340 348 348 347 346 346 346 346 347 345 342 345 349 347 338 344 349 341 348 340 345 345 344
343 349 354 351 349 348 346 346 347 346 347 345 342 342 345 344 343 342 344 347 346 345 348 344 347 345 344 346 344 344 347 348 347 348 347 348 344 347 347 346 340 342 347 347 345 340 345 346 344
343 349 353 352 348 346 345 348 346 345 347 348 343 344 344 342 344 342 344 347 346 344 345 345 349 344 345 346 348 347 347 347 347 349 346 350 347 340 348 348 349 343 344 340 343 348 349 346 344
345 346 352 353 349 345 345 347 344 341 345 346 347 344 345 344 345 344 343 345 347 346 347 349 347 344 348 350 348 346 346 348 347 347 346 345 348 346 347 349 346 346 348 341 342 347 349 347 345
344 350 349 352 350 354 346 353 347 343 345 345 347 346 346 345 345 344 344 344 346 348 349 345 350 343 347 348 348 347 348 349 349 350 348 349 347 346 347 345 351 335 344 347 345 345 349 350 352
340 343 350 349 351 349 351 352 351 343 344 346 346 346 346 347 342 346 342 346 345 344 349 348 344 346 348 347 348 347 347 346 348 348 349 350 345 348 349 348 347 346 346 347 350 345 346 351 350
337 345 343 344 349 356 350 350 350 349 345 344 345 346 346 343 345 344 347 341 347 345 348 349 342 346 347 345 348 349 348 349 349 349 347 345 347 345 347 347 347 342 347 350 347 339 344 348 338
336 341 353 355 357 356 349 351 349 347 346 342 343 345 345 345 345 344 347 347 348 347 349 349 347 344 345 348 348 346 347 343 348 347 347 351 348 349 348 346 346 346 345 352 352 347 343 342 341
335 336 346 351 354 353 348 352 351 344 343 342 342 344 344 345 346 345 344 348 346 348 349 349 348 343 343 346 346 348 349 351 350 346 351 346 350 348 350 347 346 346 349 350 350 344 342 350 345
333 336 337 346 347 350 348 348 344 345 344 342 343 344 345 347 341 346 349 347 347 347 348 350 348 342 347 349 348 347 349 348 350 349 343 345 349 351 347 348 351 346 350 349 352 342 348 348 353
331 332 336 344 350 349 352 352 355 349 346 347 346 346 346 345 345 345 345 345 344 344 346 349 348 345 346 349 347 346 346 345 350 348 347 351 349 344 341 350 349 349 349 347 348 348 350 348 345
328 329 331 333 341 349 349 350 347 348 342 351 347 346 345 341 342 347 346 347 345 348 348 351 350 344 347 350 347 347 346 346 349 348 347 348 347 340 350 351 352 347 344 345 348 346 349 349 348
328 328 328 330 336 337 340 340 340 345 347 348 348 346 347 345 346 348 347 347 343 347 348 352 349 345 346 348 346 348 346 347 348 347 348 350 350 345 346 347 347 349 349 350 346 342 351 350 349

GFSSGP_850_thetae_117.txt.gz
Theta_e
335 342 347 350 354 352 351 345 340 347 347 345 345 344 345 345 346 348 348 347 333 334 339 333 328 329 333 335 335 337 337 337 336 335 327 330 340 339 340 339 337 337 338 340 336 330 338 342 342
336 345 348 352 357 357 348 342 344 348 345 344 343 343 343 345 346 347 346 345 330 334 336 334 334 335 332 336 335 335 336 337 338 338 332 340 335 337 335 328 331 334 325 326 332 331 330 339 344
346 347 350 352 356 356 346 342 347 348 345 344 344 344 345 346 346 346 346 345 343 339 335 328 328 331 335 335 335 335 335 338 337 338 335 336 335 334 337 335 333 331 331 328 328 333 329 339 339
349 350 344 357 357 357 342 340 341 345 343 342 342 343 345 346 347 347 347 348 346 343 334 328 330 331 332 335 330 333 334 339 333 336 335 335 336 333 336 338 336 333 334 329 328 329 333 339 341
343 351 352 355 355 354 340 346 347 346 344 342 342 343 347 344 346 347 345 348 345 342 331 335 339 333 333 332 331 333 336 340 337 336 337 337 339 338 334 332 331 332 329 328 329 327 333 342 341
351 352 356 357 351 350 347 348 348 345 344 343 342 343 347 347 346 345 343 346 341 334 332 338 339 333 331 336 335 336 337 339 336 337 338 337 339 337 332 332 328 327 326 327 327 326 330 343 342
351 353 357 351 355 353 350 344 347 344 343 343 342 344 347 347 348 346 348 347 344 335 336 337 338 338 338 338 335 335 337 338 338 336 336 339 335 337 334 330 334 333 331 326 324 324 327 337 341
352 351 355 354 354 352 352 348 347 344 344 343 341 342 346 346 346 344 347 346 345 342 340 339 337 337 337 336 333 336 337 336 335 334 335 336 337 334 334 335 337 331 327 327 325 328 338 338 342
350 353 358 354 352 353 350 351 345 345 343 342 343 346 345 343 346 346 347 346 345 343 347 345 343 338 336 334 335 335 336 336 337 334 335 336 336 335 337 339 335 329 338 341 332 336 337 337 338
352 352 355 351 346 352 352 351 348 347 346 343 343 346 342 345 345 345 345 344 345 343 346 344 344 338 335 336 336 335 336 336 337 337 336 341 340 336 339 338 335 339 341 342 343 341 342 341 339
351 355 353 353 345 348 351 350 345 347 348 343 343 344 344 344 342 343 345 346 343 345 346 345 344 344 340 338 336 337 339 338 336 335 340 340 338 336 338 343 344 341 343 345 345 344 341 340 338
352 351 352 353 352 350 351 352 347 348 346 344 342 343 340 339 345 347 347 346 346 347 348 344 344 345 345 346 342 343 336 335 337 335 339 339 339 339 342 344 345 341 340 342 343 338 340 341 341
351 353 352 351 351 348 343 350 350 349 346 344 343 342 340 339 341 344 344 345 344 345 348 344 341 344 345 348 345 343 340 335 338 339 340 342 344 342 343 343 339 341 343 342 341 342 342 342 344
351 353 351 350 350 347 347 349 349 347 346 345 344 341 340 340 343 344 346 344 344 345 345 343 342 345 345 345 343 343 341 340 337 342 342 343 342 344 346 342 341 341 340 341 343 344 343 339 342
352 354 350 348 349 349 343 349 348 345 346 345 343 341 341 340 343 345 345 344 344 346 344 343 343 344 343 344 344 344 345 345 342 341 342 343 342 341 342 345 343 339 339 340 343 345 345 343 339
353 350 355 350 348 347 348 351 348 344 346 345 343 341 341 341 342 342 342 345 345 346 343 343 342 343 343 344 345 345 346 346 344 344 345 344 342 346 345 342 341 341 346 345 345 346 343 343 344
347 353 353 350 347 347 348 350 346 346 345 344 343 342 341 341 342 343 342 346 346 344 343 346 342 342 343 345 346 346 344 344 345 343 340 339 343 345 346 346 342 339 345 345 347 345 344 342 343
350 353 352 353 349 348 348 347 343 345 346 343 342 341 341 341 342 342 344 345 345 343 344 343 341 343 341 346 346 345 345 345 346 345 345 336 345 347 348 344 339 341 342 344 343 344 344 345 344
346 352 353 350 348 347 349 346 343 342 345 346 344 339 342 342 342 342 347 346 346 346 345 343 343 343 344 346 347 346 346 346 346 346 344 341 344 346 345 341 340 341 342 342 341 341 346 344 346
344 351 351 349 346 347 346 346 343 344 344 347 347 342 343 343 343 346 347 347 342 347 346 343 344 340 344 345 344 346 346 347 346 348 345 344 343 345 343 341 336 343 341 340 340 345 349 345 344
345 348 350 352 348 345 344 347 346 344 342 343 345 346 344 343 343 347 347 346 341 347 345 343 344 342 344 346 346 347 347 347 347 348 344 347 346 345 348 346 340 340 338 343 344 347 349 343 345
349 348 349 351 349 353 345 352 347 344 343 342 344 346 344 344 343 346 347 345 342 342 343 342 346 343 346 348 347 346 346 345 347 348 346 344 342 344 345 345 343 345 338 340 345 348 349 350 344
348 345 347 346 346 349 347 351 348 345 345 343 343 345 346 344 341 345 346 345 345 344 343 345 344 341 347 347 348 345 345 347 348 348 346 346 343 346 348 344 343 332 344 344 342 348 344 348 349
345 348 345 346 349 352 348 351 351 347 344 342 342 343 346 345 343 345 345 346 347 346 348 343 342 339 347 344 347 346 345 345 349 349 349 347 344 345 348 349 342 341 345 343 349 345 343 346 347
341 343 348 351 354 356 348 351 351 344 341 341 341 342 345 345 345 344 345 347 347 347 347 347 343 344 343 346 348 347 346 348 349 349 346 344 345 346 344 348 344 342 344 347 344 348 344 343 342
343 342 346 350 354 353 345 354 349 341 341 340 341 341 346 346 344 345 345 345 346 350 349 348 346 340 342 344 343 344 345 341 348 347 346 349 349 347 350 349 346 344 343 346 344 343 344 343 344
334 333 330 344 345 348 349 346 342 340 344 339 340 342 345 346 344 345 344 343 349 346 346 349 347 343 337 343 345 344 345 348 347 347 344 347 348 348 350 349 347 346 345 347 343 343 341 347 347
329 329 337 341 349 350 352 345 347 344 344 343 340 342 345 345 344 344 346 346 346 347 346 350 347 345 340 334 340 344 346 347 345 349 347 344 348 350 347 345 346 345 346 349 346 344 348 348 346
325 324 325 332 339 347 347 351 344 344 345 345 344 341 343 346 345 345 345 346 346 344 348 350 349 347 341 335 340 342 341 342 347 346 347 345 346 347 342 346 349 349 349 348 348 347 346 350 346
325 326 324 323 325 336 341 342 343 341 345 344 344 345 343 345 345 343 346 348 346 344 345 348 351 347 342 342 346 341 343 342 342 345 346 345 345 345 339 348 352 351 346 343 343 344 345 350 348

GFSSGP_850_thetae_120.txt.gz
Theta_e
335 338 347 351 351 350 350 347 345 346 345 343 341 343 344 344 342 346 343 340 338 338 338 338 337 335 337 337 338 338 338 339 334 333 330 340 338 335 335 337 338 339 335 333 337 339 340 341 341
335 345 346 350 351 351 353 347 346 344 343 344 344 345 345 347 347 347 345 339 336 332 330 329 331 331 334 335 337 337 337 338 328 337 338 339 340 340 339 339 339 334 334 328 338 342 343 341 340
344 347 349 349 353 357 353 346 344 343 343 343 344 345 346 347 347 347 341 333 332 336 336 341 334 332 335 333 335 336 338 338 332 338 337 338 333 332 329 330 326 326 329 330 327 336 343 343 342
348 343 342 354 356 353 346 347 343 343 343 344 344 346 347 347 346 345 333 335 336 333 328 337 335 334 337 335 340 338 338 338 336 338 338 339 339 336 334 333 330 331 328 331 329 336 339 341 343
346 340 347 351 354 352 347 343 342 342 343 344 345 346 348 346 345 345 342 340 340 331 328 330 331 338 334 332 334 340 336 335 336 339 337 338 338 337 336 331 331 327 328 328 330 338 342 340 340
350 341 349 353 351 351 349 346 343 342 343 345 346 346 348 346 346 346 346 344 340 331 336 336 333 336 332 337 333 339 337 336 337 337 338 337 335 332 327 326 325 327 328 327 331 341 341 341 339
348 351 349 352 352 353 348 344 347 342 343 345 345 346 347 347 346 346 346 339 332 334 337 336 332 332 337 333 336 338 338 337 337 337 338 341 336 332 330 331 329 325 324 325 330 342 341 340 340
350 351 352 352 353 354 346 348 345 342 342 345 344 347 346 345 345 344 344 338 336 337 337 338 338 338 338 332 335 337 338 338 336 338 335 341 334 333 333 331 331 327 325 328 329 338 340 342 343
352 352 354 350 351 352 351 347 344 342 343 344 344 347 347 347 347 345 346 344 342 341 340 337 336 337 334 331 336 336 336 335 335 336 337 335 334 337 337 330 333 326 327 334 338 338 343 342 342
350 349 352 345 346 350 352 349 344 343 341 343 345 346 347 347 347 346 345 344 343 345 344 341 337 335 333 334 335 336 336 335 332 335 335 335 335 338 332 332 341 342 339 336 337 337 337 337 338
350 352 353 345 345 348 348 348 347 345 346 346 346 345 346 346 345 345 346 344 342 343 342 341 334 335 336 335 335 336 335 337 331 335 337 336 337 338 340 340 342 343 344 344 343 342 342 338 337
353 351 353 352 350 348 350 348 348 347 345 345 344 343 345 345 347 346 344 343 344 343 343 344 341 339 337 335 336 337 336 335 337 339 337 334 337 340 343 342 339 340 340 338 340 341 340 339 339
351 351 352 351 350 348 347 348 350 349 344 345 343 345 345 344 345 344 344 343 344 344 341 344 344 343 343 342 341 337 337 336 334 337 337 340 341 342 343 340 340 341 341 340 341 342 343 344 340
352 351 350 348 347 344 345 345 346 348 346 342 343 343 344 343 346 346 345 345 344 344 343 343 345 344 345 342 341 335 335 337 337 340 342 343 342 341 339 340 340 341 341 341 342 342 343 342 343
351 352 349 348 346 344 344 347 348 345 343 343 340 339 339 344 346 345 345 342 343 343 342 343 345 345 345 343 342 339 337 339 338 342 342 341 344 341 338 340 342 340 340 342 343 344 344 341 343
350 348 352 348 348 347 347 350 347 345 343 343 340 339 340 343 345 345 343 343 343 343 342 342 342 344 344 343 344 343 341 341 341 341 342 341 340 344 342 341 340 342 342 343 344 346 342 341 342
343 347 353 351 347 347 347 349 344 346 345 341 340 340 340 345 345 345 343 343 345 344 343 344 340 343 344 343 344 345 345 342 341 340 341 343 343 343 341 343 339 339 344 344 344 346 343 342 344
347 349 350 350 348 347 349 349 343 342 346 344 341 341 342 344 344 345 344 345 344 343 342 342 342 341 344 345 345 345 344 343 343 343 337 340 343 343 340 346 344 337 343 343 344 344 345 344 343
348 349 351 348 346 345 347 348 346 341 343 345 344 340 342 342 342 345 345 345 343 344 342 339 339 342 345 345 345 344 344 343 345 343 339 340 344 342 342 341 337 340 342 343 341 346 344 345 347
346 348 350 348 345 346 347 347 344 342 343 345 346 341 341 342 343 345 345 344 344 344 342 341 342 341 342 345 345 345 345 345 345 345 344 338 345 347 345 341 339 339 343 340 344 347 344 344 344
344 346 348 350 347 344 345 346 345 343 343 342 344 345 341 342 344 345 345 345 344 343 343 341 342 340 345 346 346 345 346 345 345 343 341 338 344 344 342 342 339 338 338 340 345 348 345 343 345
348 346 347 349 349 352 344 351 346 344 344 343 343 345 343 344 344 346 346 344 343 343 344 342 343 341 343 345 345 346 346 346 343 344 343 346 345 338 343 345 341 338 337 345 343 347 347 345 341
347 345 347 347 345 347 347 349 345 344 345 344 343 344 345 343 345 346 346 345 342 343 343 342 343 341 343 344 346 346 346 344 347 348 346 345 342 346 346 341 340 341 337 342 343 347 345 347 346
343 344 344 344 345 348 348 349 348 345 344 343 343 344 345 344 346 346 346 344 342 341 343 343 343 342 343 347 347 346 346 345 346 347 347 346 344 346 346 343 341 335 344 344 340 344 344 343 346
342 342 347 349 350 351 347 350 347 344 342 342 343 343 344 345 343 345 346 344 343 342 342 344 344 342 342 344 346 345 344 346 347 346 348 347 345 344 347 346 341 340 343 343 341 343 342 343 342
340 336 341 345 351 351 346 350 344 341 338 340 341 343 343 344 344 344 345 345 344 345 343 344 342 342 339 342 342 346 344 344 347 347 347 344 344 344 347 346 345 341 340 344 341 340 342 341 341
337 339 334 339 341 346 348 346 343 340 342 340 340 342 343 345 345 344 346 346 345 346 345 344 344 342 343 342 344 346 345 347 344 347 345 348 347 347 348 348 348 344 340 341 344 341 341 345 343
329 328 335 337 345 347 350 345 346 341 343 339 340 340 341 342 345 344 345 346 347 346 345 345 346 345 340 342 344 341 341 345 347 347 344 345 346 348 348 348 349 347 346 348 343 344 339 340 345
322 322 321 328 335 344 350 348 341 340 343 341 339 340 339 340 342 345 344 345 346 347 346 346 346 346 344 337 340 340 341 345 345 346 348 346 345 347 348 345 345 345 347 348 350 345 340 343 342
321 322 317 319 322 335 337 340 338 337 343 342 341 339 339 338 341 345 344 345 344 346 347 347 347 348 345 341 338 338 340 342 343 345 346 346 344 346 347 344 347 347 348 348 347 348 345 347 346